<?xml version="1.0" encoding="UTF-8" standalone="no" ?>
<gpx xmlns="http://www.topografix.com/GPX/1/1" xmlns:xsi="http://www.w3.org/2001/XMLSchema-instance" xsi:schemaLocation="http://www.topografix.com/GPX/1/1 http://www.topografix.com/GPX/1/1/gpx.xsd" version="1.1" creator="VisuGPX - https://www.visugpx.com">
  <metadata>
    <name>2021-04-21 16:20:06 [Garmin]</name>
  </metadata>
  <trk>
    <name><![CDATA[2021-04-21 16:20:06 [Garmin]_1]]></name>
    <trkseg>
      <trkpt lat="49.14786" lon="1.35829">
        <ele>23.2</ele>
        <time>2021-04-21T14:21:23Z</time>
      </trkpt>
      <trkpt lat="49.14765" lon="1.35861">
        <ele>23.6</ele>
        <time>2021-04-21T14:21:31Z</time>
      </trkpt>
      <trkpt lat="49.14764" lon="1.35865">
        <ele>23.8</ele>
        <time>2021-04-21T14:21:32Z</time>
      </trkpt>
      <trkpt lat="49.14755" lon="1.35905">
        <ele>24.2</ele>
        <time>2021-04-21T14:21:39Z</time>
      </trkpt>
      <trkpt lat="49.1475" lon="1.3593">
        <ele>24.8</ele>
        <time>2021-04-21T14:21:43Z</time>
      </trkpt>
      <trkpt lat="49.14744" lon="1.35962">
        <ele>25.4</ele>
        <time>2021-04-21T14:21:48Z</time>
      </trkpt>
      <trkpt lat="49.14738" lon="1.36018">
        <ele>25.6</ele>
        <time>2021-04-21T14:21:57Z</time>
      </trkpt>
      <trkpt lat="49.14744" lon="1.36042">
        <ele>25.4</ele>
        <time>2021-04-21T14:22:01Z</time>
      </trkpt>
      <trkpt lat="49.14746" lon="1.36048">
        <ele>25.4</ele>
        <time>2021-04-21T14:22:02Z</time>
      </trkpt>
      <trkpt lat="49.1475" lon="1.3606">
        <ele>25.4</ele>
        <time>2021-04-21T14:22:04Z</time>
      </trkpt>
      <trkpt lat="49.14753" lon="1.36086">
        <ele>24.8</ele>
        <time>2021-04-21T14:22:08Z</time>
      </trkpt>
      <trkpt lat="49.14753" lon="1.36121">
        <ele>24.8</ele>
        <time>2021-04-21T14:22:14Z</time>
      </trkpt>
      <trkpt lat="49.14754" lon="1.36124">
        <ele>24.6</ele>
        <time>2021-04-21T14:22:15Z</time>
      </trkpt>
      <trkpt lat="49.1476" lon="1.36127">
        <ele>24.6</ele>
        <time>2021-04-21T14:22:17Z</time>
      </trkpt>
      <trkpt lat="49.14781" lon="1.36134">
        <ele>24.6</ele>
        <time>2021-04-21T14:22:24Z</time>
      </trkpt>
      <trkpt lat="49.14807" lon="1.36144">
        <ele>24</ele>
        <time>2021-04-21T14:22:32Z</time>
      </trkpt>
      <trkpt lat="49.1482" lon="1.36146">
        <ele>23.8</ele>
        <time>2021-04-21T14:22:36Z</time>
      </trkpt>
      <trkpt lat="49.14827" lon="1.36147">
        <ele>23.2</ele>
        <time>2021-04-21T14:22:38Z</time>
      </trkpt>
      <trkpt lat="49.14845" lon="1.36152">
        <ele>22.6</ele>
        <time>2021-04-21T14:22:43Z</time>
      </trkpt>
      <trkpt lat="49.14852" lon="1.36155">
        <ele>22.4</ele>
        <time>2021-04-21T14:22:45Z</time>
      </trkpt>
      <trkpt lat="49.14868" lon="1.36159">
        <ele>22</ele>
        <time>2021-04-21T14:22:50Z</time>
      </trkpt>
      <trkpt lat="49.14879" lon="1.3616">
        <ele>21.8</ele>
        <time>2021-04-21T14:22:54Z</time>
      </trkpt>
      <trkpt lat="49.14881" lon="1.36158">
        <ele>21.8</ele>
        <time>2021-04-21T14:22:55Z</time>
      </trkpt>
      <trkpt lat="49.14887" lon="1.36151">
        <ele>21.6</ele>
        <time>2021-04-21T14:22:58Z</time>
      </trkpt>
      <trkpt lat="49.14895" lon="1.36141">
        <ele>21.4</ele>
        <time>2021-04-21T14:23:01Z</time>
      </trkpt>
      <trkpt lat="49.14913" lon="1.36115">
        <ele>21.2</ele>
        <time>2021-04-21T14:23:07Z</time>
      </trkpt>
      <trkpt lat="49.14917" lon="1.3611">
        <ele>21.2</ele>
        <time>2021-04-21T14:23:08Z</time>
      </trkpt>
      <trkpt lat="49.14929" lon="1.36102">
        <ele>21</ele>
        <time>2021-04-21T14:23:11Z</time>
      </trkpt>
      <trkpt lat="49.14938" lon="1.36104">
        <ele>20.8</ele>
        <time>2021-04-21T14:23:13Z</time>
      </trkpt>
      <trkpt lat="49.14955" lon="1.36108">
        <ele>20.6</ele>
        <time>2021-04-21T14:23:17Z</time>
      </trkpt>
      <trkpt lat="49.14959" lon="1.36109">
        <ele>20.4</ele>
        <time>2021-04-21T14:23:18Z</time>
      </trkpt>
      <trkpt lat="49.1499" lon="1.36117">
        <ele>19.6</ele>
        <time>2021-04-21T14:23:25Z</time>
      </trkpt>
      <trkpt lat="49.15012" lon="1.36124">
        <ele>19.4</ele>
        <time>2021-04-21T14:23:30Z</time>
      </trkpt>
      <trkpt lat="49.15029" lon="1.36129">
        <ele>19</ele>
        <time>2021-04-21T14:23:34Z</time>
      </trkpt>
      <trkpt lat="49.15079" lon="1.36144">
        <ele>18.8</ele>
        <time>2021-04-21T14:23:45Z</time>
      </trkpt>
      <trkpt lat="49.1512" lon="1.3616">
        <ele>18.6</ele>
        <time>2021-04-21T14:23:54Z</time>
      </trkpt>
      <trkpt lat="49.15154" lon="1.3618">
        <ele>18.8</ele>
        <time>2021-04-21T14:24:02Z</time>
      </trkpt>
      <trkpt lat="49.15158" lon="1.36183">
        <ele>18.8</ele>
        <time>2021-04-21T14:24:03Z</time>
      </trkpt>
      <trkpt lat="49.15196" lon="1.36207">
        <ele>18.8</ele>
        <time>2021-04-21T14:24:12Z</time>
      </trkpt>
      <trkpt lat="49.15226" lon="1.36225">
        <ele>19.2</ele>
        <time>2021-04-21T14:24:19Z</time>
      </trkpt>
      <trkpt lat="49.15231" lon="1.36227">
        <ele>19.2</ele>
        <time>2021-04-21T14:24:20Z</time>
      </trkpt>
      <trkpt lat="49.15246" lon="1.36233">
        <ele>19</ele>
        <time>2021-04-21T14:24:24Z</time>
      </trkpt>
      <trkpt lat="49.15247" lon="1.3623">
        <ele>19.2</ele>
        <time>2021-04-21T14:24:25Z</time>
      </trkpt>
      <trkpt lat="49.15243" lon="1.36216">
        <ele>19.6</ele>
        <time>2021-04-21T14:24:28Z</time>
      </trkpt>
      <trkpt lat="49.1523" lon="1.36181">
        <ele>20</ele>
        <time>2021-04-21T14:24:34Z</time>
      </trkpt>
      <trkpt lat="49.15211" lon="1.36127">
        <ele>19.6</ele>
        <time>2021-04-21T14:24:42Z</time>
      </trkpt>
      <trkpt lat="49.15199" lon="1.3609">
        <ele>19.2</ele>
        <time>2021-04-21T14:24:48Z</time>
      </trkpt>
      <trkpt lat="49.15184" lon="1.36038">
        <ele>19</ele>
        <time>2021-04-21T14:24:56Z</time>
      </trkpt>
      <trkpt lat="49.15166" lon="1.3597">
        <ele>18.8</ele>
        <time>2021-04-21T14:25:06Z</time>
      </trkpt>
      <trkpt lat="49.15159" lon="1.35916">
        <ele>18.8</ele>
        <time>2021-04-21T14:25:14Z</time>
      </trkpt>
      <trkpt lat="49.15159" lon="1.35853">
        <ele>19.2</ele>
        <time>2021-04-21T14:25:23Z</time>
      </trkpt>
      <trkpt lat="49.15161" lon="1.35796">
        <ele>19.2</ele>
        <time>2021-04-21T14:25:31Z</time>
      </trkpt>
      <trkpt lat="49.15163" lon="1.35717">
        <ele>19.4</ele>
        <time>2021-04-21T14:25:42Z</time>
      </trkpt>
      <trkpt lat="49.15161" lon="1.3566">
        <ele>19.2</ele>
        <time>2021-04-21T14:25:50Z</time>
      </trkpt>
      <trkpt lat="49.15152" lon="1.35613">
        <ele>19.2</ele>
        <time>2021-04-21T14:25:58Z</time>
      </trkpt>
      <trkpt lat="49.15143" lon="1.35584">
        <ele>19.4</ele>
        <time>2021-04-21T14:26:03Z</time>
      </trkpt>
      <trkpt lat="49.15131" lon="1.35541">
        <ele>19.6</ele>
        <time>2021-04-21T14:26:10Z</time>
      </trkpt>
      <trkpt lat="49.15129" lon="1.35535">
        <ele>19.6</ele>
        <time>2021-04-21T14:26:11Z</time>
      </trkpt>
      <trkpt lat="49.15122" lon="1.35498">
        <ele>19.6</ele>
        <time>2021-04-21T14:26:17Z</time>
      </trkpt>
      <trkpt lat="49.15122" lon="1.35485">
        <ele>19.8</ele>
        <time>2021-04-21T14:26:19Z</time>
      </trkpt>
      <trkpt lat="49.15125" lon="1.35465">
        <ele>20.4</ele>
        <time>2021-04-21T14:26:22Z</time>
      </trkpt>
      <trkpt lat="49.1513" lon="1.35445">
        <ele>20.8</ele>
        <time>2021-04-21T14:26:25Z</time>
      </trkpt>
      <trkpt lat="49.15131" lon="1.35439">
        <ele>20.8</ele>
        <time>2021-04-21T14:26:26Z</time>
      </trkpt>
      <trkpt lat="49.15136" lon="1.35414">
        <ele>21.2</ele>
        <time>2021-04-21T14:26:30Z</time>
      </trkpt>
      <trkpt lat="49.15138" lon="1.35402">
        <ele>21.2</ele>
        <time>2021-04-21T14:26:32Z</time>
      </trkpt>
      <trkpt lat="49.15147" lon="1.35356">
        <ele>21.4</ele>
        <time>2021-04-21T14:26:39Z</time>
      </trkpt>
      <trkpt lat="49.15149" lon="1.35348">
        <ele>21.4</ele>
        <time>2021-04-21T14:26:40Z</time>
      </trkpt>
      <trkpt lat="49.15159" lon="1.35288">
        <ele>21.8</ele>
        <time>2021-04-21T14:26:48Z</time>
      </trkpt>
      <trkpt lat="49.15163" lon="1.35251">
        <ele>21.8</ele>
        <time>2021-04-21T14:26:54Z</time>
      </trkpt>
      <trkpt lat="49.15163" lon="1.35245">
        <ele>22</ele>
        <time>2021-04-21T14:26:55Z</time>
      </trkpt>
      <trkpt lat="49.15162" lon="1.35226">
        <ele>22</ele>
        <time>2021-04-21T14:26:58Z</time>
      </trkpt>
      <trkpt lat="49.15163" lon="1.35216">
        <ele>22</ele>
        <time>2021-04-21T14:27:00Z</time>
      </trkpt>
      <trkpt lat="49.15162" lon="1.35208">
        <ele>22</ele>
        <time>2021-04-21T14:27:02Z</time>
      </trkpt>
      <trkpt lat="49.15158" lon="1.35187">
        <ele>22.4</ele>
        <time>2021-04-21T14:27:06Z</time>
      </trkpt>
      <trkpt lat="49.15154" lon="1.35166">
        <ele>22.8</ele>
        <time>2021-04-21T14:27:10Z</time>
      </trkpt>
      <trkpt lat="49.15151" lon="1.35157">
        <ele>23.2</ele>
        <time>2021-04-21T14:27:12Z</time>
      </trkpt>
      <trkpt lat="49.15145" lon="1.35153">
        <ele>23.2</ele>
        <time>2021-04-21T14:27:15Z</time>
      </trkpt>
      <trkpt lat="49.15143" lon="1.35155">
        <ele>23.4</ele>
        <time>2021-04-21T14:27:16Z</time>
      </trkpt>
      <trkpt lat="49.15136" lon="1.35178">
        <ele>23.4</ele>
        <time>2021-04-21T14:27:21Z</time>
      </trkpt>
      <trkpt lat="49.15123" lon="1.35191">
        <ele>23.4</ele>
        <time>2021-04-21T14:27:25Z</time>
      </trkpt>
      <trkpt lat="49.15083" lon="1.35186">
        <ele>22.6</ele>
        <time>2021-04-21T14:27:34Z</time>
      </trkpt>
      <trkpt lat="49.15057" lon="1.35178">
        <ele>22.4</ele>
        <time>2021-04-21T14:27:40Z</time>
      </trkpt>
      <trkpt lat="49.15049" lon="1.35171">
        <ele>22.4</ele>
        <time>2021-04-21T14:27:42Z</time>
      </trkpt>
      <trkpt lat="49.15046" lon="1.35168">
        <ele>22.4</ele>
        <time>2021-04-21T14:27:43Z</time>
      </trkpt>
      <trkpt lat="49.15031" lon="1.35156">
        <ele>22.4</ele>
        <time>2021-04-21T14:27:47Z</time>
      </trkpt>
      <trkpt lat="49.15015" lon="1.35152">
        <ele>22.6</ele>
        <time>2021-04-21T14:27:51Z</time>
      </trkpt>
      <trkpt lat="49.1501" lon="1.35152">
        <ele>22.6</ele>
        <time>2021-04-21T14:27:52Z</time>
      </trkpt>
      <trkpt lat="49.14979" lon="1.3515">
        <ele>23.4</ele>
        <time>2021-04-21T14:27:59Z</time>
      </trkpt>
      <trkpt lat="49.1495" lon="1.35139">
        <ele>23.8</ele>
        <time>2021-04-21T14:28:06Z</time>
      </trkpt>
      <trkpt lat="49.14939" lon="1.35132">
        <ele>24</ele>
        <time>2021-04-21T14:28:09Z</time>
      </trkpt>
      <trkpt lat="49.14927" lon="1.35119">
        <ele>24</ele>
        <time>2021-04-21T14:28:13Z</time>
      </trkpt>
      <trkpt lat="49.14929" lon="1.35096">
        <ele>24.6</ele>
        <time>2021-04-21T14:28:17Z</time>
      </trkpt>
      <trkpt lat="49.14933" lon="1.35051">
        <ele>25</ele>
        <time>2021-04-21T14:28:24Z</time>
      </trkpt>
      <trkpt lat="49.14935" lon="1.35039">
        <ele>25</ele>
        <time>2021-04-21T14:28:26Z</time>
      </trkpt>
      <trkpt lat="49.14936" lon="1.35026">
        <ele>25.2</ele>
        <time>2021-04-21T14:28:28Z</time>
      </trkpt>
      <trkpt lat="49.14942" lon="1.34981">
        <ele>25.6</ele>
        <time>2021-04-21T14:28:35Z</time>
      </trkpt>
      <trkpt lat="49.14949" lon="1.34956">
        <ele>25.8</ele>
        <time>2021-04-21T14:28:39Z</time>
      </trkpt>
      <trkpt lat="49.14954" lon="1.34944">
        <ele>25.8</ele>
        <time>2021-04-21T14:28:41Z</time>
      </trkpt>
      <trkpt lat="49.1496" lon="1.34926">
        <ele>26</ele>
        <time>2021-04-21T14:28:44Z</time>
      </trkpt>
      <trkpt lat="49.1497" lon="1.34912">
        <ele>26</ele>
        <time>2021-04-21T14:28:47Z</time>
      </trkpt>
      <trkpt lat="49.14986" lon="1.34897">
        <ele>26.2</ele>
        <time>2021-04-21T14:28:52Z</time>
      </trkpt>
      <trkpt lat="49.14987" lon="1.3488">
        <ele>26.4</ele>
        <time>2021-04-21T14:28:55Z</time>
      </trkpt>
      <trkpt lat="49.14985" lon="1.34868">
        <ele>26.4</ele>
        <time>2021-04-21T14:28:57Z</time>
      </trkpt>
      <trkpt lat="49.14981" lon="1.34838">
        <ele>26.4</ele>
        <time>2021-04-21T14:29:02Z</time>
      </trkpt>
      <trkpt lat="49.14983" lon="1.34791">
        <ele>26.8</ele>
        <time>2021-04-21T14:29:10Z</time>
      </trkpt>
      <trkpt lat="49.14985" lon="1.34786">
        <ele>27</ele>
        <time>2021-04-21T14:29:11Z</time>
      </trkpt>
      <trkpt lat="49.14997" lon="1.34768">
        <ele>28</ele>
        <time>2021-04-21T14:29:15Z</time>
      </trkpt>
      <trkpt lat="49.15029" lon="1.34725">
        <ele>28.8</ele>
        <time>2021-04-21T14:29:24Z</time>
      </trkpt>
      <trkpt lat="49.15072" lon="1.34668">
        <ele>28.2</ele>
        <time>2021-04-21T14:29:35Z</time>
      </trkpt>
      <trkpt lat="49.15105" lon="1.34624">
        <ele>27.2</ele>
        <time>2021-04-21T14:29:43Z</time>
      </trkpt>
      <trkpt lat="49.15118" lon="1.34607">
        <ele>27</ele>
        <time>2021-04-21T14:29:46Z</time>
      </trkpt>
      <trkpt lat="49.15147" lon="1.34568">
        <ele>26.2</ele>
        <time>2021-04-21T14:29:53Z</time>
      </trkpt>
      <trkpt lat="49.15155" lon="1.34557">
        <ele>25.8</ele>
        <time>2021-04-21T14:29:55Z</time>
      </trkpt>
      <trkpt lat="49.15163" lon="1.34546">
        <ele>25.6</ele>
        <time>2021-04-21T14:29:57Z</time>
      </trkpt>
      <trkpt lat="49.15177" lon="1.34527">
        <ele>25.2</ele>
        <time>2021-04-21T14:30:00Z</time>
      </trkpt>
      <trkpt lat="49.15182" lon="1.3452">
        <ele>25</ele>
        <time>2021-04-21T14:30:01Z</time>
      </trkpt>
      <trkpt lat="49.15191" lon="1.34504">
        <ele>24.8</ele>
        <time>2021-04-21T14:30:03Z</time>
      </trkpt>
      <trkpt lat="49.15195" lon="1.34496">
        <ele>24.8</ele>
        <time>2021-04-21T14:30:04Z</time>
      </trkpt>
      <trkpt lat="49.15215" lon="1.3446">
        <ele>22.8</ele>
        <time>2021-04-21T14:30:09Z</time>
      </trkpt>
      <trkpt lat="49.15226" lon="1.34446">
        <ele>21.8</ele>
        <time>2021-04-21T14:30:11Z</time>
      </trkpt>
      <trkpt lat="49.15231" lon="1.3444">
        <ele>21.6</ele>
        <time>2021-04-21T14:30:12Z</time>
      </trkpt>
      <trkpt lat="49.15246" lon="1.34422">
        <ele>21.6</ele>
        <time>2021-04-21T14:30:15Z</time>
      </trkpt>
      <trkpt lat="49.15251" lon="1.34417">
        <ele>21.6</ele>
        <time>2021-04-21T14:30:16Z</time>
      </trkpt>
      <trkpt lat="49.15263" lon="1.34392">
        <ele>21.6</ele>
        <time>2021-04-21T14:30:20Z</time>
      </trkpt>
      <trkpt lat="49.15264" lon="1.34385">
        <ele>21.6</ele>
        <time>2021-04-21T14:30:21Z</time>
      </trkpt>
      <trkpt lat="49.15255" lon="1.3437">
        <ele>22</ele>
        <time>2021-04-21T14:30:24Z</time>
      </trkpt>
      <trkpt lat="49.15244" lon="1.34358">
        <ele>22.8</ele>
        <time>2021-04-21T14:30:27Z</time>
      </trkpt>
      <trkpt lat="49.1524" lon="1.34354">
        <ele>22.8</ele>
        <time>2021-04-21T14:30:28Z</time>
      </trkpt>
      <trkpt lat="49.1523" lon="1.34344">
        <ele>23.2</ele>
        <time>2021-04-21T14:30:31Z</time>
      </trkpt>
      <trkpt lat="49.15229" lon="1.34339">
        <ele>23.4</ele>
        <time>2021-04-21T14:30:32Z</time>
      </trkpt>
      <trkpt lat="49.15228" lon="1.34328">
        <ele>23.4</ele>
        <time>2021-04-21T14:30:34Z</time>
      </trkpt>
      <trkpt lat="49.15228" lon="1.34288">
        <ele>23.8</ele>
        <time>2021-04-21T14:30:41Z</time>
      </trkpt>
      <trkpt lat="49.15229" lon="1.34268">
        <ele>24.6</ele>
        <time>2021-04-21T14:30:45Z</time>
      </trkpt>
      <trkpt lat="49.15229" lon="1.34264">
        <ele>24.6</ele>
        <time>2021-04-21T14:30:46Z</time>
      </trkpt>
      <trkpt lat="49.15233" lon="1.34249">
        <ele>24.8</ele>
        <time>2021-04-21T14:30:49Z</time>
      </trkpt>
      <trkpt lat="49.15234" lon="1.34244">
        <ele>25</ele>
        <time>2021-04-21T14:30:50Z</time>
      </trkpt>
      <trkpt lat="49.15235" lon="1.3423">
        <ele>25.6</ele>
        <time>2021-04-21T14:30:53Z</time>
      </trkpt>
      <trkpt lat="49.15236" lon="1.34221">
        <ele>26</ele>
        <time>2021-04-21T14:30:55Z</time>
      </trkpt>
      <trkpt lat="49.1524" lon="1.34207">
        <ele>26.4</ele>
        <time>2021-04-21T14:30:58Z</time>
      </trkpt>
      <trkpt lat="49.15241" lon="1.34203">
        <ele>26.6</ele>
        <time>2021-04-21T14:30:59Z</time>
      </trkpt>
      <trkpt lat="49.1524" lon="1.34195">
        <ele>26.8</ele>
        <time>2021-04-21T14:31:01Z</time>
      </trkpt>
      <trkpt lat="49.1524" lon="1.34191">
        <ele>27</ele>
        <time>2021-04-21T14:31:02Z</time>
      </trkpt>
      <trkpt lat="49.1524" lon="1.34186">
        <ele>27</ele>
        <time>2021-04-21T14:31:03Z</time>
      </trkpt>
      <trkpt lat="49.15242" lon="1.34178">
        <ele>27.4</ele>
        <time>2021-04-21T14:31:05Z</time>
      </trkpt>
      <trkpt lat="49.15243" lon="1.3417">
        <ele>27.6</ele>
        <time>2021-04-21T14:31:07Z</time>
      </trkpt>
      <trkpt lat="49.15244" lon="1.34157">
        <ele>28</ele>
        <time>2021-04-21T14:31:10Z</time>
      </trkpt>
      <trkpt lat="49.15245" lon="1.34152">
        <ele>28.2</ele>
        <time>2021-04-21T14:31:11Z</time>
      </trkpt>
      <trkpt lat="49.15251" lon="1.34125">
        <ele>29</ele>
        <time>2021-04-21T14:31:16Z</time>
      </trkpt>
      <trkpt lat="49.15256" lon="1.34104">
        <ele>29.2</ele>
        <time>2021-04-21T14:31:20Z</time>
      </trkpt>
      <trkpt lat="49.1526" lon="1.3409">
        <ele>29.6</ele>
        <time>2021-04-21T14:31:23Z</time>
      </trkpt>
      <trkpt lat="49.15269" lon="1.34056">
        <ele>30.4</ele>
        <time>2021-04-21T14:31:30Z</time>
      </trkpt>
      <trkpt lat="49.1527" lon="1.34052">
        <ele>30.6</ele>
        <time>2021-04-21T14:31:31Z</time>
      </trkpt>
      <trkpt lat="49.15278" lon="1.34026">
        <ele>31.4</ele>
        <time>2021-04-21T14:31:37Z</time>
      </trkpt>
      <trkpt lat="49.15284" lon="1.34007">
        <ele>32</ele>
        <time>2021-04-21T14:31:42Z</time>
      </trkpt>
      <trkpt lat="49.15287" lon="1.33993">
        <ele>32.6</ele>
        <time>2021-04-21T14:31:46Z</time>
      </trkpt>
      <trkpt lat="49.1529" lon="1.33975">
        <ele>33.6</ele>
        <time>2021-04-21T14:31:51Z</time>
      </trkpt>
      <trkpt lat="49.15292" lon="1.33964">
        <ele>34.4</ele>
        <time>2021-04-21T14:31:54Z</time>
      </trkpt>
      <trkpt lat="49.15293" lon="1.33955">
        <ele>34.8</ele>
        <time>2021-04-21T14:31:56Z</time>
      </trkpt>
      <trkpt lat="49.15295" lon="1.33944">
        <ele>35.4</ele>
        <time>2021-04-21T14:31:59Z</time>
      </trkpt>
      <trkpt lat="49.15296" lon="1.33943">
        <ele>35.6</ele>
        <time>2021-04-21T14:32:00Z</time>
      </trkpt>
      <trkpt lat="49.153" lon="1.33947">
        <ele>35.8</ele>
        <time>2021-04-21T14:32:02Z</time>
      </trkpt>
      <trkpt lat="49.15302" lon="1.33949">
        <ele>36.2</ele>
        <time>2021-04-21T14:32:03Z</time>
      </trkpt>
      <trkpt lat="49.15304" lon="1.33952">
        <ele>36.4</ele>
        <time>2021-04-21T14:32:04Z</time>
      </trkpt>
      <trkpt lat="49.15319" lon="1.3396">
        <ele>36.8</ele>
        <time>2021-04-21T14:32:09Z</time>
      </trkpt>
      <trkpt lat="49.15321" lon="1.33961">
        <ele>36.8</ele>
        <time>2021-04-21T14:32:10Z</time>
      </trkpt>
      <trkpt lat="49.15327" lon="1.33969">
        <ele>36.8</ele>
        <time>2021-04-21T14:32:13Z</time>
      </trkpt>
      <trkpt lat="49.15342" lon="1.33979">
        <ele>36</ele>
        <time>2021-04-21T14:32:18Z</time>
      </trkpt>
      <trkpt lat="49.15357" lon="1.3399">
        <ele>35.2</ele>
        <time>2021-04-21T14:32:22Z</time>
      </trkpt>
      <trkpt lat="49.15361" lon="1.33993">
        <ele>35</ele>
        <time>2021-04-21T14:32:23Z</time>
      </trkpt>
      <trkpt lat="49.15366" lon="1.33997">
        <ele>34.8</ele>
        <time>2021-04-21T14:32:24Z</time>
      </trkpt>
      <trkpt lat="49.15384" lon="1.34017">
        <ele>33.8</ele>
        <time>2021-04-21T14:32:28Z</time>
      </trkpt>
      <trkpt lat="49.154" lon="1.34034">
        <ele>32.2</ele>
        <time>2021-04-21T14:32:31Z</time>
      </trkpt>
      <trkpt lat="49.15411" lon="1.34046">
        <ele>31.2</ele>
        <time>2021-04-21T14:32:33Z</time>
      </trkpt>
      <trkpt lat="49.15416" lon="1.34052">
        <ele>30.8</ele>
        <time>2021-04-21T14:32:34Z</time>
      </trkpt>
      <trkpt lat="49.15426" lon="1.34051">
        <ele>29.6</ele>
        <time>2021-04-21T14:32:36Z</time>
      </trkpt>
      <trkpt lat="49.15434" lon="1.34033">
        <ele>28.4</ele>
        <time>2021-04-21T14:32:39Z</time>
      </trkpt>
      <trkpt lat="49.15439" lon="1.34019">
        <ele>27.4</ele>
        <time>2021-04-21T14:32:41Z</time>
      </trkpt>
      <trkpt lat="49.1545" lon="1.33988">
        <ele>26.4</ele>
        <time>2021-04-21T14:32:46Z</time>
      </trkpt>
      <trkpt lat="49.15453" lon="1.33982">
        <ele>26.2</ele>
        <time>2021-04-21T14:32:47Z</time>
      </trkpt>
      <trkpt lat="49.15455" lon="1.33976">
        <ele>26.2</ele>
        <time>2021-04-21T14:32:48Z</time>
      </trkpt>
      <trkpt lat="49.1547" lon="1.33933">
        <ele>26.2</ele>
        <time>2021-04-21T14:32:55Z</time>
      </trkpt>
      <trkpt lat="49.15474" lon="1.33919">
        <ele>25.8</ele>
        <time>2021-04-21T14:32:57Z</time>
      </trkpt>
      <trkpt lat="49.15485" lon="1.33847">
        <ele>25.4</ele>
        <time>2021-04-21T14:33:07Z</time>
      </trkpt>
      <trkpt lat="49.15485" lon="1.33826">
        <ele>25.4</ele>
        <time>2021-04-21T14:33:10Z</time>
      </trkpt>
      <trkpt lat="49.15483" lon="1.33806">
        <ele>25.4</ele>
        <time>2021-04-21T14:33:13Z</time>
      </trkpt>
      <trkpt lat="49.15477" lon="1.33744">
        <ele>26.4</ele>
        <time>2021-04-21T14:33:22Z</time>
      </trkpt>
      <trkpt lat="49.15482" lon="1.33723">
        <ele>26.6</ele>
        <time>2021-04-21T14:33:26Z</time>
      </trkpt>
      <trkpt lat="49.15496" lon="1.33723">
        <ele>27.2</ele>
        <time>2021-04-21T14:33:30Z</time>
      </trkpt>
      <trkpt lat="49.15503" lon="1.33726">
        <ele>27.4</ele>
        <time>2021-04-21T14:33:32Z</time>
      </trkpt>
      <trkpt lat="49.15522" lon="1.33736">
        <ele>28.6</ele>
        <time>2021-04-21T14:33:37Z</time>
      </trkpt>
      <trkpt lat="49.15546" lon="1.33749">
        <ele>29.6</ele>
        <time>2021-04-21T14:33:43Z</time>
      </trkpt>
      <trkpt lat="49.15559" lon="1.33756">
        <ele>29.6</ele>
        <time>2021-04-21T14:33:46Z</time>
      </trkpt>
      <trkpt lat="49.15564" lon="1.33757">
        <ele>29.6</ele>
        <time>2021-04-21T14:33:47Z</time>
      </trkpt>
      <trkpt lat="49.15576" lon="1.33752">
        <ele>29.6</ele>
        <time>2021-04-21T14:33:50Z</time>
      </trkpt>
      <trkpt lat="49.15582" lon="1.33743">
        <ele>29.6</ele>
        <time>2021-04-21T14:33:52Z</time>
      </trkpt>
      <trkpt lat="49.15589" lon="1.33731">
        <ele>29.6</ele>
        <time>2021-04-21T14:33:55Z</time>
      </trkpt>
      <trkpt lat="49.15596" lon="1.33729">
        <ele>29.6</ele>
        <time>2021-04-21T14:33:57Z</time>
      </trkpt>
      <trkpt lat="49.156" lon="1.3373">
        <ele>29.6</ele>
        <time>2021-04-21T14:33:58Z</time>
      </trkpt>
      <trkpt lat="49.15631" lon="1.33735">
        <ele>29.6</ele>
        <time>2021-04-21T14:34:04Z</time>
      </trkpt>
      <trkpt lat="49.15675" lon="1.3373">
        <ele>28.8</ele>
        <time>2021-04-21T14:34:11Z</time>
      </trkpt>
      <trkpt lat="49.15682" lon="1.33729">
        <ele>28.6</ele>
        <time>2021-04-21T14:34:12Z</time>
      </trkpt>
      <trkpt lat="49.1571" lon="1.33723">
        <ele>27.6</ele>
        <time>2021-04-21T14:34:16Z</time>
      </trkpt>
      <trkpt lat="49.15717" lon="1.3372">
        <ele>27.2</ele>
        <time>2021-04-21T14:34:17Z</time>
      </trkpt>
      <trkpt lat="49.15739" lon="1.33712">
        <ele>26</ele>
        <time>2021-04-21T14:34:20Z</time>
      </trkpt>
      <trkpt lat="49.15754" lon="1.33707">
        <ele>25.2</ele>
        <time>2021-04-21T14:34:22Z</time>
      </trkpt>
      <trkpt lat="49.15761" lon="1.33705">
        <ele>25</ele>
        <time>2021-04-21T14:34:23Z</time>
      </trkpt>
      <trkpt lat="49.15781" lon="1.33698">
        <ele>23.8</ele>
        <time>2021-04-21T14:34:26Z</time>
      </trkpt>
      <trkpt lat="49.15787" lon="1.33695">
        <ele>23.4</ele>
        <time>2021-04-21T14:34:27Z</time>
      </trkpt>
      <trkpt lat="49.15792" lon="1.33692">
        <ele>23.2</ele>
        <time>2021-04-21T14:34:28Z</time>
      </trkpt>
      <trkpt lat="49.15801" lon="1.33679">
        <ele>22.8</ele>
        <time>2021-04-21T14:34:30Z</time>
      </trkpt>
      <trkpt lat="49.15804" lon="1.33671">
        <ele>22.4</ele>
        <time>2021-04-21T14:34:31Z</time>
      </trkpt>
      <trkpt lat="49.15812" lon="1.33658">
        <ele>21.8</ele>
        <time>2021-04-21T14:34:33Z</time>
      </trkpt>
      <trkpt lat="49.15821" lon="1.33645">
        <ele>21.2</ele>
        <time>2021-04-21T14:34:35Z</time>
      </trkpt>
      <trkpt lat="49.15845" lon="1.33603">
        <ele>20.2</ele>
        <time>2021-04-21T14:34:41Z</time>
      </trkpt>
      <trkpt lat="49.15848" lon="1.33596">
        <ele>20</ele>
        <time>2021-04-21T14:34:42Z</time>
      </trkpt>
      <trkpt lat="49.15865" lon="1.33558">
        <ele>19.8</ele>
        <time>2021-04-21T14:34:47Z</time>
      </trkpt>
      <trkpt lat="49.15869" lon="1.33541">
        <ele>19.6</ele>
        <time>2021-04-21T14:34:49Z</time>
      </trkpt>
      <trkpt lat="49.1588" lon="1.33502">
        <ele>19.4</ele>
        <time>2021-04-21T14:34:54Z</time>
      </trkpt>
      <trkpt lat="49.15879" lon="1.33494">
        <ele>19.4</ele>
        <time>2021-04-21T14:34:55Z</time>
      </trkpt>
      <trkpt lat="49.15869" lon="1.33481">
        <ele>19.4</ele>
        <time>2021-04-21T14:34:58Z</time>
      </trkpt>
      <trkpt lat="49.15837" lon="1.33441">
        <ele>20.4</ele>
        <time>2021-04-21T14:35:07Z</time>
      </trkpt>
      <trkpt lat="49.15822" lon="1.33423">
        <ele>21.2</ele>
        <time>2021-04-21T14:35:11Z</time>
      </trkpt>
      <trkpt lat="49.15809" lon="1.33408">
        <ele>21.6</ele>
        <time>2021-04-21T14:35:15Z</time>
      </trkpt>
      <trkpt lat="49.15805" lon="1.334">
        <ele>21.8</ele>
        <time>2021-04-21T14:35:17Z</time>
      </trkpt>
      <trkpt lat="49.15805" lon="1.33396">
        <ele>21.8</ele>
        <time>2021-04-21T14:35:18Z</time>
      </trkpt>
      <trkpt lat="49.15808" lon="1.33387">
        <ele>22</ele>
        <time>2021-04-21T14:35:20Z</time>
      </trkpt>
      <trkpt lat="49.1581" lon="1.33383">
        <ele>22.2</ele>
        <time>2021-04-21T14:35:21Z</time>
      </trkpt>
      <trkpt lat="49.15812" lon="1.33379">
        <ele>22.6</ele>
        <time>2021-04-21T14:35:22Z</time>
      </trkpt>
      <trkpt lat="49.15815" lon="1.33376">
        <ele>23</ele>
        <time>2021-04-21T14:35:23Z</time>
      </trkpt>
      <trkpt lat="49.15819" lon="1.33368">
        <ele>23.4</ele>
        <time>2021-04-21T14:35:25Z</time>
      </trkpt>
      <trkpt lat="49.15826" lon="1.33356">
        <ele>24.4</ele>
        <time>2021-04-21T14:35:28Z</time>
      </trkpt>
      <trkpt lat="49.1583" lon="1.33348">
        <ele>25.2</ele>
        <time>2021-04-21T14:35:30Z</time>
      </trkpt>
      <trkpt lat="49.15834" lon="1.3334">
        <ele>25.6</ele>
        <time>2021-04-21T14:35:32Z</time>
      </trkpt>
      <trkpt lat="49.1584" lon="1.33323">
        <ele>26.2</ele>
        <time>2021-04-21T14:35:37Z</time>
      </trkpt>
      <trkpt lat="49.15842" lon="1.3332">
        <ele>26.4</ele>
        <time>2021-04-21T14:35:39Z</time>
      </trkpt>
      <trkpt lat="49.15843" lon="1.3332">
        <ele>26.6</ele>
        <time>2021-04-21T14:35:40Z</time>
      </trkpt>
      <trkpt lat="49.15843" lon="1.33319">
        <ele>26.8</ele>
        <time>2021-04-21T14:35:41Z</time>
      </trkpt>
      <trkpt lat="49.15847" lon="1.33305">
        <ele>27.6</ele>
        <time>2021-04-21T14:35:46Z</time>
      </trkpt>
      <trkpt lat="49.15852" lon="1.33283">
        <ele>28.6</ele>
        <time>2021-04-21T14:35:53Z</time>
      </trkpt>
      <trkpt lat="49.15853" lon="1.33279">
        <ele>28.6</ele>
        <time>2021-04-21T14:35:54Z</time>
      </trkpt>
      <trkpt lat="49.15856" lon="1.33258">
        <ele>29.2</ele>
        <time>2021-04-21T14:35:59Z</time>
      </trkpt>
      <trkpt lat="49.15859" lon="1.3324">
        <ele>29.8</ele>
        <time>2021-04-21T14:36:03Z</time>
      </trkpt>
      <trkpt lat="49.15862" lon="1.33229">
        <ele>29.8</ele>
        <time>2021-04-21T14:36:06Z</time>
      </trkpt>
      <trkpt lat="49.1587" lon="1.332">
        <ele>30.2</ele>
        <time>2021-04-21T14:36:13Z</time>
      </trkpt>
      <trkpt lat="49.1588" lon="1.33161">
        <ele>30</ele>
        <time>2021-04-21T14:36:21Z</time>
      </trkpt>
      <trkpt lat="49.15886" lon="1.33143">
        <ele>29.8</ele>
        <time>2021-04-21T14:36:24Z</time>
      </trkpt>
      <trkpt lat="49.15893" lon="1.33132">
        <ele>29.8</ele>
        <time>2021-04-21T14:36:26Z</time>
      </trkpt>
      <trkpt lat="49.15896" lon="1.33125">
        <ele>29.6</ele>
        <time>2021-04-21T14:36:27Z</time>
      </trkpt>
      <trkpt lat="49.15899" lon="1.33109">
        <ele>29.6</ele>
        <time>2021-04-21T14:36:29Z</time>
      </trkpt>
      <trkpt lat="49.15901" lon="1.33093">
        <ele>29.6</ele>
        <time>2021-04-21T14:36:31Z</time>
      </trkpt>
      <trkpt lat="49.15905" lon="1.33079">
        <ele>29.4</ele>
        <time>2021-04-21T14:36:33Z</time>
      </trkpt>
      <trkpt lat="49.1591" lon="1.33051">
        <ele>28.6</ele>
        <time>2021-04-21T14:36:37Z</time>
      </trkpt>
      <trkpt lat="49.1592" lon="1.32991">
        <ele>28.2</ele>
        <time>2021-04-21T14:36:46Z</time>
      </trkpt>
      <trkpt lat="49.15921" lon="1.32985">
        <ele>28.2</ele>
        <time>2021-04-21T14:36:47Z</time>
      </trkpt>
      <trkpt lat="49.15923" lon="1.32973">
        <ele>28.2</ele>
        <time>2021-04-21T14:36:49Z</time>
      </trkpt>
      <trkpt lat="49.15923" lon="1.32967">
        <ele>28.4</ele>
        <time>2021-04-21T14:36:50Z</time>
      </trkpt>
      <trkpt lat="49.15916" lon="1.32952">
        <ele>28.4</ele>
        <time>2021-04-21T14:36:54Z</time>
      </trkpt>
      <trkpt lat="49.15902" lon="1.32946">
        <ele>28.6</ele>
        <time>2021-04-21T14:36:59Z</time>
      </trkpt>
      <trkpt lat="49.15887" lon="1.32947">
        <ele>29.4</ele>
        <time>2021-04-21T14:37:05Z</time>
      </trkpt>
      <trkpt lat="49.15883" lon="1.32949">
        <ele>29.6</ele>
        <time>2021-04-21T14:37:07Z</time>
      </trkpt>
      <trkpt lat="49.15872" lon="1.3295">
        <ele>30.6</ele>
        <time>2021-04-21T14:37:12Z</time>
      </trkpt>
      <trkpt lat="49.15869" lon="1.32951">
        <ele>30.8</ele>
        <time>2021-04-21T14:37:13Z</time>
      </trkpt>
      <trkpt lat="49.15858" lon="1.32952">
        <ele>31.6</ele>
        <time>2021-04-21T14:37:18Z</time>
      </trkpt>
      <trkpt lat="49.15852" lon="1.32956">
        <ele>32.2</ele>
        <time>2021-04-21T14:37:21Z</time>
      </trkpt>
      <trkpt lat="49.15847" lon="1.32963">
        <ele>33</ele>
        <time>2021-04-21T14:37:24Z</time>
      </trkpt>
      <trkpt lat="49.1584" lon="1.32976">
        <ele>34</ele>
        <time>2021-04-21T14:37:29Z</time>
      </trkpt>
      <trkpt lat="49.15833" lon="1.32985">
        <ele>35.4</ele>
        <time>2021-04-21T14:37:33Z</time>
      </trkpt>
      <trkpt lat="49.15827" lon="1.32995">
        <ele>36.6</ele>
        <time>2021-04-21T14:37:37Z</time>
      </trkpt>
      <trkpt lat="49.1582" lon="1.33007">
        <ele>37.8</ele>
        <time>2021-04-21T14:37:42Z</time>
      </trkpt>
      <trkpt lat="49.15816" lon="1.33014">
        <ele>38.6</ele>
        <time>2021-04-21T14:37:45Z</time>
      </trkpt>
      <trkpt lat="49.15814" lon="1.33016">
        <ele>38.8</ele>
        <time>2021-04-21T14:37:46Z</time>
      </trkpt>
      <trkpt lat="49.15809" lon="1.33021">
        <ele>39.6</ele>
        <time>2021-04-21T14:37:49Z</time>
      </trkpt>
      <trkpt lat="49.15804" lon="1.3302">
        <ele>40</ele>
        <time>2021-04-21T14:37:51Z</time>
      </trkpt>
      <trkpt lat="49.15801" lon="1.33015">
        <ele>40.4</ele>
        <time>2021-04-21T14:37:53Z</time>
      </trkpt>
      <trkpt lat="49.15794" lon="1.33007">
        <ele>40.8</ele>
        <time>2021-04-21T14:37:56Z</time>
      </trkpt>
      <trkpt lat="49.15792" lon="1.33005">
        <ele>41</ele>
        <time>2021-04-21T14:37:57Z</time>
      </trkpt>
      <trkpt lat="49.15779" lon="1.32996">
        <ele>42.2</ele>
        <time>2021-04-21T14:38:04Z</time>
      </trkpt>
      <trkpt lat="49.15776" lon="1.32983">
        <ele>43.4</ele>
        <time>2021-04-21T14:38:09Z</time>
      </trkpt>
      <trkpt lat="49.15776" lon="1.32981">
        <ele>43.6</ele>
        <time>2021-04-21T14:38:10Z</time>
      </trkpt>
      <trkpt lat="49.15777" lon="1.32973">
        <ele>44.6</ele>
        <time>2021-04-21T14:38:13Z</time>
      </trkpt>
      <trkpt lat="49.15778" lon="1.32962">
        <ele>45.8</ele>
        <time>2021-04-21T14:38:17Z</time>
      </trkpt>
      <trkpt lat="49.15777" lon="1.3296">
        <ele>46.2</ele>
        <time>2021-04-21T14:38:18Z</time>
      </trkpt>
      <trkpt lat="49.15774" lon="1.32961">
        <ele>46.8</ele>
        <time>2021-04-21T14:38:20Z</time>
      </trkpt>
      <trkpt lat="49.15772" lon="1.32962">
        <ele>47.4</ele>
        <time>2021-04-21T14:38:22Z</time>
      </trkpt>
      <trkpt lat="49.15772" lon="1.32961">
        <ele>47.6</ele>
        <time>2021-04-21T14:38:23Z</time>
      </trkpt>
      <trkpt lat="49.15771" lon="1.32959">
        <ele>48</ele>
        <time>2021-04-21T14:38:24Z</time>
      </trkpt>
      <trkpt lat="49.15768" lon="1.32955">
        <ele>49.2</ele>
        <time>2021-04-21T14:38:28Z</time>
      </trkpt>
      <trkpt lat="49.15768" lon="1.32953">
        <ele>49.2</ele>
        <time>2021-04-21T14:38:29Z</time>
      </trkpt>
      <trkpt lat="49.15767" lon="1.32945">
        <ele>50</ele>
        <time>2021-04-21T14:38:34Z</time>
      </trkpt>
      <trkpt lat="49.15766" lon="1.32943">
        <ele>50.2</ele>
        <time>2021-04-21T14:38:35Z</time>
      </trkpt>
      <trkpt lat="49.15766" lon="1.32937">
        <ele>51</ele>
        <time>2021-04-21T14:38:38Z</time>
      </trkpt>
      <trkpt lat="49.15766" lon="1.32935">
        <ele>51.2</ele>
        <time>2021-04-21T14:38:39Z</time>
      </trkpt>
      <trkpt lat="49.15766" lon="1.32933">
        <ele>51.6</ele>
        <time>2021-04-21T14:38:40Z</time>
      </trkpt>
      <trkpt lat="49.15766" lon="1.32931">
        <ele>52.2</ele>
        <time>2021-04-21T14:38:41Z</time>
      </trkpt>
      <trkpt lat="49.15765" lon="1.32923">
        <ele>53.4</ele>
        <time>2021-04-21T14:38:45Z</time>
      </trkpt>
      <trkpt lat="49.15764" lon="1.32921">
        <ele>53.8</ele>
        <time>2021-04-21T14:38:46Z</time>
      </trkpt>
      <trkpt lat="49.15763" lon="1.32921">
        <ele>54</ele>
        <time>2021-04-21T14:38:47Z</time>
      </trkpt>
      <trkpt lat="49.15762" lon="1.32921">
        <ele>54.6</ele>
        <time>2021-04-21T14:38:49Z</time>
      </trkpt>
      <trkpt lat="49.15759" lon="1.32927">
        <ele>55.6</ele>
        <time>2021-04-21T14:38:53Z</time>
      </trkpt>
      <trkpt lat="49.15758" lon="1.32929">
        <ele>55.8</ele>
        <time>2021-04-21T14:38:54Z</time>
      </trkpt>
      <trkpt lat="49.15756" lon="1.32937">
        <ele>56.6</ele>
        <time>2021-04-21T14:38:59Z</time>
      </trkpt>
      <trkpt lat="49.15756" lon="1.32938">
        <ele>56.8</ele>
        <time>2021-04-21T14:39:00Z</time>
      </trkpt>
      <trkpt lat="49.15753" lon="1.32946">
        <ele>57.4</ele>
        <time>2021-04-21T14:39:04Z</time>
      </trkpt>
      <trkpt lat="49.15752" lon="1.32953">
        <ele>58</ele>
        <time>2021-04-21T14:39:07Z</time>
      </trkpt>
      <trkpt lat="49.15752" lon="1.32953">
        <ele>58.6</ele>
        <time>2021-04-21T14:39:09Z</time>
      </trkpt>
      <trkpt lat="49.15752" lon="1.32955">
        <ele>60</ele>
        <time>2021-04-21T14:39:23Z</time>
      </trkpt>
      <trkpt lat="49.15751" lon="1.32966">
        <ele>60</ele>
        <time>2021-04-21T14:39:28Z</time>
      </trkpt>
      <trkpt lat="49.15746" lon="1.32989">
        <ele>60</ele>
        <time>2021-04-21T14:39:34Z</time>
      </trkpt>
      <trkpt lat="49.15741" lon="1.33015">
        <ele>59.8</ele>
        <time>2021-04-21T14:39:40Z</time>
      </trkpt>
      <trkpt lat="49.15735" lon="1.33038">
        <ele>59.8</ele>
        <time>2021-04-21T14:39:46Z</time>
      </trkpt>
      <trkpt lat="49.1573" lon="1.33053">
        <ele>59.8</ele>
        <time>2021-04-21T14:39:51Z</time>
      </trkpt>
      <trkpt lat="49.15724" lon="1.33067">
        <ele>60.8</ele>
        <time>2021-04-21T14:39:57Z</time>
      </trkpt>
      <trkpt lat="49.15722" lon="1.33071">
        <ele>61.2</ele>
        <time>2021-04-21T14:39:59Z</time>
      </trkpt>
      <trkpt lat="49.15717" lon="1.33079">
        <ele>62.4</ele>
        <time>2021-04-21T14:40:03Z</time>
      </trkpt>
      <trkpt lat="49.15716" lon="1.33081">
        <ele>62.8</ele>
        <time>2021-04-21T14:40:04Z</time>
      </trkpt>
      <trkpt lat="49.15713" lon="1.33087">
        <ele>63.8</ele>
        <time>2021-04-21T14:40:07Z</time>
      </trkpt>
      <trkpt lat="49.1571" lon="1.33091">
        <ele>64.6</ele>
        <time>2021-04-21T14:40:09Z</time>
      </trkpt>
      <trkpt lat="49.15709" lon="1.33093">
        <ele>65</ele>
        <time>2021-04-21T14:40:10Z</time>
      </trkpt>
      <trkpt lat="49.15706" lon="1.331">
        <ele>66</ele>
        <time>2021-04-21T14:40:13Z</time>
      </trkpt>
      <trkpt lat="49.15703" lon="1.33106">
        <ele>66.6</ele>
        <time>2021-04-21T14:40:16Z</time>
      </trkpt>
      <trkpt lat="49.15701" lon="1.3311">
        <ele>67.2</ele>
        <time>2021-04-21T14:40:18Z</time>
      </trkpt>
      <trkpt lat="49.15695" lon="1.33117">
        <ele>68.4</ele>
        <time>2021-04-21T14:40:22Z</time>
      </trkpt>
      <trkpt lat="49.15694" lon="1.33117">
        <ele>68.6</ele>
        <time>2021-04-21T14:40:23Z</time>
      </trkpt>
      <trkpt lat="49.15692" lon="1.33117">
        <ele>69.2</ele>
        <time>2021-04-21T14:40:25Z</time>
      </trkpt>
      <trkpt lat="49.1569" lon="1.33114">
        <ele>69.4</ele>
        <time>2021-04-21T14:40:27Z</time>
      </trkpt>
      <trkpt lat="49.15689" lon="1.33112">
        <ele>69.8</ele>
        <time>2021-04-21T14:40:28Z</time>
      </trkpt>
      <trkpt lat="49.15686" lon="1.33107">
        <ele>70.6</ele>
        <time>2021-04-21T14:40:31Z</time>
      </trkpt>
      <trkpt lat="49.15683" lon="1.33104">
        <ele>71.2</ele>
        <time>2021-04-21T14:40:33Z</time>
      </trkpt>
      <trkpt lat="49.1568" lon="1.33102">
        <ele>71.8</ele>
        <time>2021-04-21T14:40:35Z</time>
      </trkpt>
      <trkpt lat="49.15674" lon="1.33103">
        <ele>72.6</ele>
        <time>2021-04-21T14:40:38Z</time>
      </trkpt>
      <trkpt lat="49.15673" lon="1.33104">
        <ele>72.8</ele>
        <time>2021-04-21T14:40:39Z</time>
      </trkpt>
      <trkpt lat="49.15668" lon="1.33107">
        <ele>74</ele>
        <time>2021-04-21T14:40:42Z</time>
      </trkpt>
      <trkpt lat="49.15664" lon="1.3311">
        <ele>74.6</ele>
        <time>2021-04-21T14:40:44Z</time>
      </trkpt>
      <trkpt lat="49.15661" lon="1.33113">
        <ele>75.2</ele>
        <time>2021-04-21T14:40:46Z</time>
      </trkpt>
      <trkpt lat="49.15654" lon="1.33117">
        <ele>76.2</ele>
        <time>2021-04-21T14:40:50Z</time>
      </trkpt>
      <trkpt lat="49.15651" lon="1.33118">
        <ele>76.4</ele>
        <time>2021-04-21T14:40:52Z</time>
      </trkpt>
      <trkpt lat="49.1564" lon="1.33123">
        <ele>77.2</ele>
        <time>2021-04-21T14:40:57Z</time>
      </trkpt>
      <trkpt lat="49.1563" lon="1.33127">
        <ele>78</ele>
        <time>2021-04-21T14:41:01Z</time>
      </trkpt>
      <trkpt lat="49.15622" lon="1.33129">
        <ele>78.6</ele>
        <time>2021-04-21T14:41:04Z</time>
      </trkpt>
      <trkpt lat="49.15617" lon="1.33128">
        <ele>78.6</ele>
        <time>2021-04-21T14:41:06Z</time>
      </trkpt>
      <trkpt lat="49.15601" lon="1.33122">
        <ele>79</ele>
        <time>2021-04-21T14:41:12Z</time>
      </trkpt>
      <trkpt lat="49.15596" lon="1.33117">
        <ele>79.2</ele>
        <time>2021-04-21T14:41:14Z</time>
      </trkpt>
      <trkpt lat="49.15595" lon="1.3311">
        <ele>79.2</ele>
        <time>2021-04-21T14:41:16Z</time>
      </trkpt>
      <trkpt lat="49.15588" lon="1.33093">
        <ele>79.4</ele>
        <time>2021-04-21T14:41:22Z</time>
      </trkpt>
      <trkpt lat="49.15584" lon="1.33095">
        <ele>79.6</ele>
        <time>2021-04-21T14:41:24Z</time>
      </trkpt>
      <trkpt lat="49.15578" lon="1.33098">
        <ele>79.8</ele>
        <time>2021-04-21T14:41:27Z</time>
      </trkpt>
      <trkpt lat="49.15571" lon="1.33089">
        <ele>80.2</ele>
        <time>2021-04-21T14:41:31Z</time>
      </trkpt>
      <trkpt lat="49.15571" lon="1.33085">
        <ele>80.4</ele>
        <time>2021-04-21T14:41:32Z</time>
      </trkpt>
      <trkpt lat="49.1557" lon="1.33078">
        <ele>80.6</ele>
        <time>2021-04-21T14:41:34Z</time>
      </trkpt>
      <trkpt lat="49.15567" lon="1.33055">
        <ele>80.6</ele>
        <time>2021-04-21T14:41:40Z</time>
      </trkpt>
      <trkpt lat="49.15571" lon="1.33034">
        <ele>81</ele>
        <time>2021-04-21T14:41:46Z</time>
      </trkpt>
      <trkpt lat="49.1558" lon="1.33014">
        <ele>81.8</ele>
        <time>2021-04-21T14:41:52Z</time>
      </trkpt>
      <trkpt lat="49.15583" lon="1.33008">
        <ele>82</ele>
        <time>2021-04-21T14:41:54Z</time>
      </trkpt>
      <trkpt lat="49.156" lon="1.32992">
        <ele>82.6</ele>
        <time>2021-04-21T14:42:01Z</time>
      </trkpt>
      <trkpt lat="49.15606" lon="1.32984">
        <ele>82.8</ele>
        <time>2021-04-21T14:42:04Z</time>
      </trkpt>
      <trkpt lat="49.15609" lon="1.32976">
        <ele>83</ele>
        <time>2021-04-21T14:42:06Z</time>
      </trkpt>
      <trkpt lat="49.15619" lon="1.32964">
        <ele>83</ele>
        <time>2021-04-21T14:42:10Z</time>
      </trkpt>
      <trkpt lat="49.15624" lon="1.32944">
        <ele>83.2</ele>
        <time>2021-04-21T14:42:14Z</time>
      </trkpt>
      <trkpt lat="49.1563" lon="1.329">
        <ele>83.2</ele>
        <time>2021-04-21T14:42:22Z</time>
      </trkpt>
      <trkpt lat="49.15637" lon="1.32851">
        <ele>83.2</ele>
        <time>2021-04-21T14:42:30Z</time>
      </trkpt>
      <trkpt lat="49.15643" lon="1.32805">
        <ele>83</ele>
        <time>2021-04-21T14:42:37Z</time>
      </trkpt>
      <trkpt lat="49.15647" lon="1.32786">
        <ele>82.8</ele>
        <time>2021-04-21T14:42:40Z</time>
      </trkpt>
      <trkpt lat="49.15652" lon="1.32773">
        <ele>82.6</ele>
        <time>2021-04-21T14:42:42Z</time>
      </trkpt>
      <trkpt lat="49.15652" lon="1.32754">
        <ele>82.4</ele>
        <time>2021-04-21T14:42:45Z</time>
      </trkpt>
      <trkpt lat="49.15651" lon="1.32749">
        <ele>82</ele>
        <time>2021-04-21T14:42:46Z</time>
      </trkpt>
      <trkpt lat="49.15644" lon="1.32729">
        <ele>82</ele>
        <time>2021-04-21T14:42:51Z</time>
      </trkpt>
      <trkpt lat="49.15635" lon="1.32693">
        <ele>83.4</ele>
        <time>2021-04-21T14:43:00Z</time>
      </trkpt>
      <trkpt lat="49.15633" lon="1.32685">
        <ele>84</ele>
        <time>2021-04-21T14:43:02Z</time>
      </trkpt>
      <trkpt lat="49.1563" lon="1.32668">
        <ele>85.2</ele>
        <time>2021-04-21T14:43:06Z</time>
      </trkpt>
      <trkpt lat="49.15629" lon="1.32664">
        <ele>85.4</ele>
        <time>2021-04-21T14:43:07Z</time>
      </trkpt>
      <trkpt lat="49.15626" lon="1.32645">
        <ele>86.4</ele>
        <time>2021-04-21T14:43:12Z</time>
      </trkpt>
      <trkpt lat="49.15624" lon="1.32637">
        <ele>86.6</ele>
        <time>2021-04-21T14:43:14Z</time>
      </trkpt>
      <trkpt lat="49.15621" lon="1.32621">
        <ele>87.4</ele>
        <time>2021-04-21T14:43:18Z</time>
      </trkpt>
      <trkpt lat="49.15615" lon="1.3261">
        <ele>88.2</ele>
        <time>2021-04-21T14:43:21Z</time>
      </trkpt>
      <trkpt lat="49.15608" lon="1.32602">
        <ele>88.6</ele>
        <time>2021-04-21T14:43:24Z</time>
      </trkpt>
      <trkpt lat="49.15597" lon="1.32594">
        <ele>89.6</ele>
        <time>2021-04-21T14:43:28Z</time>
      </trkpt>
      <trkpt lat="49.15594" lon="1.32592">
        <ele>89.8</ele>
        <time>2021-04-21T14:43:29Z</time>
      </trkpt>
      <trkpt lat="49.15576" lon="1.3258">
        <ele>90.8</ele>
        <time>2021-04-21T14:43:36Z</time>
      </trkpt>
      <trkpt lat="49.15571" lon="1.32576">
        <ele>91.2</ele>
        <time>2021-04-21T14:43:38Z</time>
      </trkpt>
      <trkpt lat="49.15563" lon="1.3257">
        <ele>91.8</ele>
        <time>2021-04-21T14:43:41Z</time>
      </trkpt>
      <trkpt lat="49.15556" lon="1.32558">
        <ele>92.6</ele>
        <time>2021-04-21T14:43:45Z</time>
      </trkpt>
      <trkpt lat="49.15553" lon="1.3255">
        <ele>93</ele>
        <time>2021-04-21T14:43:47Z</time>
      </trkpt>
      <trkpt lat="49.1555" lon="1.3253">
        <ele>94</ele>
        <time>2021-04-21T14:43:52Z</time>
      </trkpt>
      <trkpt lat="49.15554" lon="1.3251">
        <ele>95.2</ele>
        <time>2021-04-21T14:43:57Z</time>
      </trkpt>
      <trkpt lat="49.15558" lon="1.32498">
        <ele>95.8</ele>
        <time>2021-04-21T14:44:00Z</time>
      </trkpt>
      <trkpt lat="49.1556" lon="1.32485">
        <ele>96.2</ele>
        <time>2021-04-21T14:44:03Z</time>
      </trkpt>
      <trkpt lat="49.15558" lon="1.32477">
        <ele>96.6</ele>
        <time>2021-04-21T14:44:05Z</time>
      </trkpt>
      <trkpt lat="49.15554" lon="1.32465">
        <ele>97.4</ele>
        <time>2021-04-21T14:44:08Z</time>
      </trkpt>
      <trkpt lat="49.15547" lon="1.32451">
        <ele>98.2</ele>
        <time>2021-04-21T14:44:12Z</time>
      </trkpt>
      <trkpt lat="49.15546" lon="1.32448">
        <ele>98.4</ele>
        <time>2021-04-21T14:44:13Z</time>
      </trkpt>
      <trkpt lat="49.15533" lon="1.32421">
        <ele>99.6</ele>
        <time>2021-04-21T14:44:20Z</time>
      </trkpt>
      <trkpt lat="49.15531" lon="1.32417">
        <ele>99.8</ele>
        <time>2021-04-21T14:44:21Z</time>
      </trkpt>
      <trkpt lat="49.15517" lon="1.32388">
        <ele>100.8</ele>
        <time>2021-04-21T14:44:28Z</time>
      </trkpt>
      <trkpt lat="49.15509" lon="1.32374">
        <ele>101.2</ele>
        <time>2021-04-21T14:44:32Z</time>
      </trkpt>
      <trkpt lat="49.15499" lon="1.32356">
        <ele>102</ele>
        <time>2021-04-21T14:44:37Z</time>
      </trkpt>
      <trkpt lat="49.15495" lon="1.32349">
        <ele>102.2</ele>
        <time>2021-04-21T14:44:39Z</time>
      </trkpt>
      <trkpt lat="49.15479" lon="1.32324">
        <ele>103</ele>
        <time>2021-04-21T14:44:46Z</time>
      </trkpt>
      <trkpt lat="49.15472" lon="1.32313">
        <ele>103.2</ele>
        <time>2021-04-21T14:44:49Z</time>
      </trkpt>
      <trkpt lat="49.15461" lon="1.32298">
        <ele>103.6</ele>
        <time>2021-04-21T14:44:54Z</time>
      </trkpt>
      <trkpt lat="49.15454" lon="1.32288">
        <ele>104</ele>
        <time>2021-04-21T14:44:57Z</time>
      </trkpt>
      <trkpt lat="49.15448" lon="1.32279">
        <ele>104.6</ele>
        <time>2021-04-21T14:45:00Z</time>
      </trkpt>
      <trkpt lat="49.15442" lon="1.32269">
        <ele>105.2</ele>
        <time>2021-04-21T14:45:03Z</time>
      </trkpt>
      <trkpt lat="49.15436" lon="1.32259">
        <ele>105.6</ele>
        <time>2021-04-21T14:45:06Z</time>
      </trkpt>
      <trkpt lat="49.15427" lon="1.32239">
        <ele>106.2</ele>
        <time>2021-04-21T14:45:12Z</time>
      </trkpt>
      <trkpt lat="49.15409" lon="1.32203">
        <ele>107</ele>
        <time>2021-04-21T14:45:21Z</time>
      </trkpt>
      <trkpt lat="49.15399" lon="1.32185">
        <ele>108</ele>
        <time>2021-04-21T14:45:26Z</time>
      </trkpt>
      <trkpt lat="49.15398" lon="1.32181">
        <ele>108.2</ele>
        <time>2021-04-21T14:45:27Z</time>
      </trkpt>
      <trkpt lat="49.15388" lon="1.3216">
        <ele>109.2</ele>
        <time>2021-04-21T14:45:32Z</time>
      </trkpt>
      <trkpt lat="49.15373" lon="1.32135">
        <ele>110.4</ele>
        <time>2021-04-21T14:45:38Z</time>
      </trkpt>
      <trkpt lat="49.15371" lon="1.32131">
        <ele>110.4</ele>
        <time>2021-04-21T14:45:39Z</time>
      </trkpt>
      <trkpt lat="49.15354" lon="1.32099">
        <ele>111.4</ele>
        <time>2021-04-21T14:45:47Z</time>
      </trkpt>
      <trkpt lat="49.15352" lon="1.32095">
        <ele>111.6</ele>
        <time>2021-04-21T14:45:48Z</time>
      </trkpt>
      <trkpt lat="49.15341" lon="1.32076">
        <ele>112.4</ele>
        <time>2021-04-21T14:45:53Z</time>
      </trkpt>
      <trkpt lat="49.15333" lon="1.3206">
        <ele>112.8</ele>
        <time>2021-04-21T14:45:57Z</time>
      </trkpt>
      <trkpt lat="49.15316" lon="1.32026">
        <ele>113.6</ele>
        <time>2021-04-21T14:46:06Z</time>
      </trkpt>
      <trkpt lat="49.15314" lon="1.32022">
        <ele>113.6</ele>
        <time>2021-04-21T14:46:07Z</time>
      </trkpt>
      <trkpt lat="49.15302" lon="1.31999">
        <ele>114.4</ele>
        <time>2021-04-21T14:46:14Z</time>
      </trkpt>
      <trkpt lat="49.15299" lon="1.31992">
        <ele>114.6</ele>
        <time>2021-04-21T14:46:16Z</time>
      </trkpt>
      <trkpt lat="49.15294" lon="1.31984">
        <ele>115.2</ele>
        <time>2021-04-21T14:46:19Z</time>
      </trkpt>
      <trkpt lat="49.1529" lon="1.31975">
        <ele>115.8</ele>
        <time>2021-04-21T14:46:22Z</time>
      </trkpt>
      <trkpt lat="49.15281" lon="1.31957">
        <ele>116.2</ele>
        <time>2021-04-21T14:46:27Z</time>
      </trkpt>
      <trkpt lat="49.1527" lon="1.3194">
        <ele>116.8</ele>
        <time>2021-04-21T14:46:32Z</time>
      </trkpt>
      <trkpt lat="49.15257" lon="1.31927">
        <ele>117</ele>
        <time>2021-04-21T14:46:37Z</time>
      </trkpt>
      <trkpt lat="49.15243" lon="1.31911">
        <ele>117.2</ele>
        <time>2021-04-21T14:46:42Z</time>
      </trkpt>
      <trkpt lat="49.15231" lon="1.31894">
        <ele>118</ele>
        <time>2021-04-21T14:46:47Z</time>
      </trkpt>
      <trkpt lat="49.15229" lon="1.31891">
        <ele>117.8</ele>
        <time>2021-04-21T14:46:48Z</time>
      </trkpt>
      <trkpt lat="49.15216" lon="1.31876">
        <ele>118</ele>
        <time>2021-04-21T14:46:53Z</time>
      </trkpt>
      <trkpt lat="49.15201" lon="1.3186">
        <ele>118.6</ele>
        <time>2021-04-21T14:46:58Z</time>
      </trkpt>
      <trkpt lat="49.15199" lon="1.31857">
        <ele>118.8</ele>
        <time>2021-04-21T14:46:59Z</time>
      </trkpt>
      <trkpt lat="49.15189" lon="1.31841">
        <ele>119</ele>
        <time>2021-04-21T14:47:03Z</time>
      </trkpt>
      <trkpt lat="49.15179" lon="1.31817">
        <ele>119.6</ele>
        <time>2021-04-21T14:47:09Z</time>
      </trkpt>
      <trkpt lat="49.15174" lon="1.31805">
        <ele>119.8</ele>
        <time>2021-04-21T14:47:12Z</time>
      </trkpt>
      <trkpt lat="49.15172" lon="1.31798">
        <ele>120</ele>
        <time>2021-04-21T14:47:14Z</time>
      </trkpt>
      <trkpt lat="49.15161" lon="1.31781">
        <ele>121</ele>
        <time>2021-04-21T14:47:19Z</time>
      </trkpt>
      <trkpt lat="49.15158" lon="1.31777">
        <ele>121</ele>
        <time>2021-04-21T14:47:20Z</time>
      </trkpt>
      <trkpt lat="49.15134" lon="1.31745">
        <ele>121.8</ele>
        <time>2021-04-21T14:47:29Z</time>
      </trkpt>
      <trkpt lat="49.15132" lon="1.31742">
        <ele>121.8</ele>
        <time>2021-04-21T14:47:30Z</time>
      </trkpt>
      <trkpt lat="49.15121" lon="1.31728">
        <ele>122.4</ele>
        <time>2021-04-21T14:47:34Z</time>
      </trkpt>
      <trkpt lat="49.15113" lon="1.31718">
        <ele>122.8</ele>
        <time>2021-04-21T14:47:37Z</time>
      </trkpt>
      <trkpt lat="49.15108" lon="1.31711">
        <ele>123.2</ele>
        <time>2021-04-21T14:47:39Z</time>
      </trkpt>
      <trkpt lat="49.15096" lon="1.31693">
        <ele>123.8</ele>
        <time>2021-04-21T14:47:44Z</time>
      </trkpt>
      <trkpt lat="49.1508" lon="1.31669">
        <ele>124.6</ele>
        <time>2021-04-21T14:47:50Z</time>
      </trkpt>
      <trkpt lat="49.15074" lon="1.31661">
        <ele>125</ele>
        <time>2021-04-21T14:47:52Z</time>
      </trkpt>
      <trkpt lat="49.15057" lon="1.31643">
        <ele>125.8</ele>
        <time>2021-04-21T14:47:57Z</time>
      </trkpt>
      <trkpt lat="49.15054" lon="1.3164">
        <ele>126</ele>
        <time>2021-04-21T14:47:58Z</time>
      </trkpt>
      <trkpt lat="49.15043" lon="1.31627">
        <ele>126.6</ele>
        <time>2021-04-21T14:48:02Z</time>
      </trkpt>
      <trkpt lat="49.15034" lon="1.31616">
        <ele>127.2</ele>
        <time>2021-04-21T14:48:05Z</time>
      </trkpt>
      <trkpt lat="49.15019" lon="1.31599">
        <ele>128.2</ele>
        <time>2021-04-21T14:48:10Z</time>
      </trkpt>
      <trkpt lat="49.15016" lon="1.31595">
        <ele>128.2</ele>
        <time>2021-04-21T14:48:11Z</time>
      </trkpt>
      <trkpt lat="49.15001" lon="1.31579">
        <ele>129.2</ele>
        <time>2021-04-21T14:48:16Z</time>
      </trkpt>
      <trkpt lat="49.14998" lon="1.31576">
        <ele>129.4</ele>
        <time>2021-04-21T14:48:17Z</time>
      </trkpt>
      <trkpt lat="49.14985" lon="1.31563">
        <ele>129.8</ele>
        <time>2021-04-21T14:48:21Z</time>
      </trkpt>
      <trkpt lat="49.14974" lon="1.31549">
        <ele>130.4</ele>
        <time>2021-04-21T14:48:25Z</time>
      </trkpt>
      <trkpt lat="49.14968" lon="1.31543">
        <ele>130.6</ele>
        <time>2021-04-21T14:48:27Z</time>
      </trkpt>
      <trkpt lat="49.14949" lon="1.31522">
        <ele>131.2</ele>
        <time>2021-04-21T14:48:33Z</time>
      </trkpt>
      <trkpt lat="49.14936" lon="1.31508">
        <ele>131.4</ele>
        <time>2021-04-21T14:48:37Z</time>
      </trkpt>
      <trkpt lat="49.14929" lon="1.31499">
        <ele>131.6</ele>
        <time>2021-04-21T14:48:40Z</time>
      </trkpt>
      <trkpt lat="49.14914" lon="1.31483">
        <ele>131.8</ele>
        <time>2021-04-21T14:48:46Z</time>
      </trkpt>
      <trkpt lat="49.14901" lon="1.31472">
        <ele>132.2</ele>
        <time>2021-04-21T14:48:51Z</time>
      </trkpt>
      <trkpt lat="49.14888" lon="1.31462">
        <ele>132.6</ele>
        <time>2021-04-21T14:48:56Z</time>
      </trkpt>
      <trkpt lat="49.14871" lon="1.31449">
        <ele>132.8</ele>
        <time>2021-04-21T14:49:01Z</time>
      </trkpt>
      <trkpt lat="49.14855" lon="1.31436">
        <ele>133</ele>
        <time>2021-04-21T14:49:06Z</time>
      </trkpt>
      <trkpt lat="49.14846" lon="1.31426">
        <ele>133.2</ele>
        <time>2021-04-21T14:49:10Z</time>
      </trkpt>
      <trkpt lat="49.1484" lon="1.31421">
        <ele>133.2</ele>
        <time>2021-04-21T14:49:13Z</time>
      </trkpt>
      <trkpt lat="49.14836" lon="1.31416">
        <ele>133.4</ele>
        <time>2021-04-21T14:49:15Z</time>
      </trkpt>
      <trkpt lat="49.14818" lon="1.31397">
        <ele>133.4</ele>
        <time>2021-04-21T14:49:20Z</time>
      </trkpt>
      <trkpt lat="49.14811" lon="1.31389">
        <ele>133.2</ele>
        <time>2021-04-21T14:49:22Z</time>
      </trkpt>
      <trkpt lat="49.14798" lon="1.31372">
        <ele>133</ele>
        <time>2021-04-21T14:49:26Z</time>
      </trkpt>
      <trkpt lat="49.14782" lon="1.31356">
        <ele>132.8</ele>
        <time>2021-04-21T14:49:30Z</time>
      </trkpt>
      <trkpt lat="49.14756" lon="1.31335">
        <ele>132.2</ele>
        <time>2021-04-21T14:49:36Z</time>
      </trkpt>
      <trkpt lat="49.14732" lon="1.31315">
        <ele>132</ele>
        <time>2021-04-21T14:49:42Z</time>
      </trkpt>
      <trkpt lat="49.14707" lon="1.31293">
        <ele>132</ele>
        <time>2021-04-21T14:49:48Z</time>
      </trkpt>
      <trkpt lat="49.14689" lon="1.31276">
        <ele>131.8</ele>
        <time>2021-04-21T14:49:53Z</time>
      </trkpt>
      <trkpt lat="49.14674" lon="1.31256">
        <ele>131.4</ele>
        <time>2021-04-21T14:49:59Z</time>
      </trkpt>
      <trkpt lat="49.1466" lon="1.31251">
        <ele>131</ele>
        <time>2021-04-21T14:50:04Z</time>
      </trkpt>
      <trkpt lat="49.14646" lon="1.31237">
        <ele>130.6</ele>
        <time>2021-04-21T14:50:09Z</time>
      </trkpt>
      <trkpt lat="49.14631" lon="1.31219">
        <ele>130.6</ele>
        <time>2021-04-21T14:50:14Z</time>
      </trkpt>
      <trkpt lat="49.14615" lon="1.31201">
        <ele>130.2</ele>
        <time>2021-04-21T14:50:19Z</time>
      </trkpt>
      <trkpt lat="49.14603" lon="1.31186">
        <ele>130</ele>
        <time>2021-04-21T14:50:23Z</time>
      </trkpt>
      <trkpt lat="49.146" lon="1.31182">
        <ele>130</ele>
        <time>2021-04-21T14:50:24Z</time>
      </trkpt>
      <trkpt lat="49.14588" lon="1.31164">
        <ele>129.8</ele>
        <time>2021-04-21T14:50:28Z</time>
      </trkpt>
      <trkpt lat="49.14567" lon="1.31136">
        <ele>130</ele>
        <time>2021-04-21T14:50:34Z</time>
      </trkpt>
      <trkpt lat="49.14545" lon="1.31114">
        <ele>130.4</ele>
        <time>2021-04-21T14:50:40Z</time>
      </trkpt>
      <trkpt lat="49.14529" lon="1.31108">
        <ele>130.4</ele>
        <time>2021-04-21T14:50:44Z</time>
      </trkpt>
      <trkpt lat="49.14504" lon="1.31104">
        <ele>130.4</ele>
        <time>2021-04-21T14:50:50Z</time>
      </trkpt>
      <trkpt lat="49.14496" lon="1.311">
        <ele>130.4</ele>
        <time>2021-04-21T14:50:52Z</time>
      </trkpt>
      <trkpt lat="49.1449" lon="1.31093">
        <ele>130.4</ele>
        <time>2021-04-21T14:50:54Z</time>
      </trkpt>
      <trkpt lat="49.14483" lon="1.31077">
        <ele>130.2</ele>
        <time>2021-04-21T14:50:58Z</time>
      </trkpt>
      <trkpt lat="49.1448" lon="1.31055">
        <ele>130.2</ele>
        <time>2021-04-21T14:51:03Z</time>
      </trkpt>
      <trkpt lat="49.14471" lon="1.31025">
        <ele>130.4</ele>
        <time>2021-04-21T14:51:10Z</time>
      </trkpt>
      <trkpt lat="49.14462" lon="1.3101">
        <ele>130.6</ele>
        <time>2021-04-21T14:51:14Z</time>
      </trkpt>
      <trkpt lat="49.14456" lon="1.31002">
        <ele>130.6</ele>
        <time>2021-04-21T14:51:17Z</time>
      </trkpt>
      <trkpt lat="49.14443" lon="1.30998">
        <ele>130.8</ele>
        <time>2021-04-21T14:51:21Z</time>
      </trkpt>
      <trkpt lat="49.14419" lon="1.30991">
        <ele>131.6</ele>
        <time>2021-04-21T14:51:28Z</time>
      </trkpt>
      <trkpt lat="49.14415" lon="1.3099">
        <ele>131.6</ele>
        <time>2021-04-21T14:51:29Z</time>
      </trkpt>
      <trkpt lat="49.14402" lon="1.30987">
        <ele>132</ele>
        <time>2021-04-21T14:51:33Z</time>
      </trkpt>
      <trkpt lat="49.14383" lon="1.30981">
        <ele>132.6</ele>
        <time>2021-04-21T14:51:39Z</time>
      </trkpt>
      <trkpt lat="49.14381" lon="1.30979">
        <ele>132.8</ele>
        <time>2021-04-21T14:51:40Z</time>
      </trkpt>
      <trkpt lat="49.14373" lon="1.30964">
        <ele>133.4</ele>
        <time>2021-04-21T14:51:44Z</time>
      </trkpt>
      <trkpt lat="49.14376" lon="1.30955">
        <ele>133.8</ele>
        <time>2021-04-21T14:51:47Z</time>
      </trkpt>
      <trkpt lat="49.14378" lon="1.30952">
        <ele>133.8</ele>
        <time>2021-04-21T14:51:48Z</time>
      </trkpt>
      <trkpt lat="49.14388" lon="1.3094">
        <ele>134</ele>
        <time>2021-04-21T14:51:52Z</time>
      </trkpt>
      <trkpt lat="49.14409" lon="1.30914">
        <ele>134</ele>
        <time>2021-04-21T14:52:00Z</time>
      </trkpt>
      <trkpt lat="49.14425" lon="1.30893">
        <ele>133.8</ele>
        <time>2021-04-21T14:52:06Z</time>
      </trkpt>
      <trkpt lat="49.14444" lon="1.3087">
        <ele>133.8</ele>
        <time>2021-04-21T14:52:13Z</time>
      </trkpt>
      <trkpt lat="49.14461" lon="1.3085">
        <ele>133.8</ele>
        <time>2021-04-21T14:52:19Z</time>
      </trkpt>
      <trkpt lat="49.14475" lon="1.3083">
        <ele>133.8</ele>
        <time>2021-04-21T14:52:25Z</time>
      </trkpt>
      <trkpt lat="49.14488" lon="1.30812">
        <ele>133.8</ele>
        <time>2021-04-21T14:52:30Z</time>
      </trkpt>
      <trkpt lat="49.14506" lon="1.30787">
        <ele>134.2</ele>
        <time>2021-04-21T14:52:37Z</time>
      </trkpt>
      <trkpt lat="49.14506" lon="1.30775">
        <ele>134.4</ele>
        <time>2021-04-21T14:52:41Z</time>
      </trkpt>
      <trkpt lat="49.14498" lon="1.30753">
        <ele>134.6</ele>
        <time>2021-04-21T14:52:47Z</time>
      </trkpt>
      <trkpt lat="49.14493" lon="1.30743">
        <ele>134.8</ele>
        <time>2021-04-21T14:52:50Z</time>
      </trkpt>
      <trkpt lat="49.14488" lon="1.30731">
        <ele>135</ele>
        <time>2021-04-21T14:52:53Z</time>
      </trkpt>
      <trkpt lat="49.14479" lon="1.30711">
        <ele>135.2</ele>
        <time>2021-04-21T14:52:58Z</time>
      </trkpt>
      <trkpt lat="49.14471" lon="1.30693">
        <ele>135.8</ele>
        <time>2021-04-21T14:53:03Z</time>
      </trkpt>
      <trkpt lat="49.14461" lon="1.30673">
        <ele>135.8</ele>
        <time>2021-04-21T14:53:08Z</time>
      </trkpt>
      <trkpt lat="49.14456" lon="1.3066">
        <ele>135.8</ele>
        <time>2021-04-21T14:53:11Z</time>
      </trkpt>
      <trkpt lat="49.14451" lon="1.30649">
        <ele>136</ele>
        <time>2021-04-21T14:53:14Z</time>
      </trkpt>
      <trkpt lat="49.14443" lon="1.3063">
        <ele>135.8</ele>
        <time>2021-04-21T14:53:19Z</time>
      </trkpt>
      <trkpt lat="49.14429" lon="1.30602">
        <ele>136</ele>
        <time>2021-04-21T14:53:26Z</time>
      </trkpt>
      <trkpt lat="49.14419" lon="1.3058">
        <ele>136</ele>
        <time>2021-04-21T14:53:32Z</time>
      </trkpt>
      <trkpt lat="49.14408" lon="1.30554">
        <ele>136.2</ele>
        <time>2021-04-21T14:53:39Z</time>
      </trkpt>
      <trkpt lat="49.14396" lon="1.30528">
        <ele>136.2</ele>
        <time>2021-04-21T14:53:46Z</time>
      </trkpt>
      <trkpt lat="49.14387" lon="1.30507">
        <ele>136.2</ele>
        <time>2021-04-21T14:53:52Z</time>
      </trkpt>
      <trkpt lat="49.1438" lon="1.30492">
        <ele>136.2</ele>
        <time>2021-04-21T14:53:56Z</time>
      </trkpt>
      <trkpt lat="49.14379" lon="1.30488">
        <ele>136.2</ele>
        <time>2021-04-21T14:53:57Z</time>
      </trkpt>
      <trkpt lat="49.14374" lon="1.30478">
        <ele>136.2</ele>
        <time>2021-04-21T14:54:00Z</time>
      </trkpt>
      <trkpt lat="49.14368" lon="1.3047">
        <ele>136.2</ele>
        <time>2021-04-21T14:54:03Z</time>
      </trkpt>
      <trkpt lat="49.14354" lon="1.30463">
        <ele>136.4</ele>
        <time>2021-04-21T14:54:08Z</time>
      </trkpt>
      <trkpt lat="49.1435" lon="1.30457">
        <ele>136.8</ele>
        <time>2021-04-21T14:54:10Z</time>
      </trkpt>
      <trkpt lat="49.14347" lon="1.30451">
        <ele>136.8</ele>
        <time>2021-04-21T14:54:12Z</time>
      </trkpt>
      <trkpt lat="49.14336" lon="1.3043">
        <ele>137.2</ele>
        <time>2021-04-21T14:54:19Z</time>
      </trkpt>
      <trkpt lat="49.14326" lon="1.30409">
        <ele>137.8</ele>
        <time>2021-04-21T14:54:25Z</time>
      </trkpt>
      <trkpt lat="49.14312" lon="1.3038">
        <ele>138</ele>
        <time>2021-04-21T14:54:32Z</time>
      </trkpt>
      <trkpt lat="49.14299" lon="1.30352">
        <ele>138.2</ele>
        <time>2021-04-21T14:54:39Z</time>
      </trkpt>
      <trkpt lat="49.14289" lon="1.30332">
        <ele>138.2</ele>
        <time>2021-04-21T14:54:45Z</time>
      </trkpt>
      <trkpt lat="49.14285" lon="1.30324">
        <ele>138.4</ele>
        <time>2021-04-21T14:54:49Z</time>
      </trkpt>
      <trkpt lat="49.14294" lon="1.30312">
        <ele>138.6</ele>
        <time>2021-04-21T14:54:53Z</time>
      </trkpt>
      <trkpt lat="49.14296" lon="1.30309">
        <ele>138.8</ele>
        <time>2021-04-21T14:54:54Z</time>
      </trkpt>
      <trkpt lat="49.143" lon="1.30301">
        <ele>138.8</ele>
        <time>2021-04-21T14:54:56Z</time>
      </trkpt>
      <trkpt lat="49.14309" lon="1.30286">
        <ele>138.8</ele>
        <time>2021-04-21T14:55:00Z</time>
      </trkpt>
      <trkpt lat="49.14329" lon="1.30252">
        <ele>138.8</ele>
        <time>2021-04-21T14:55:08Z</time>
      </trkpt>
      <trkpt lat="49.1435" lon="1.30215">
        <ele>138.8</ele>
        <time>2021-04-21T14:55:16Z</time>
      </trkpt>
      <trkpt lat="49.14377" lon="1.30165">
        <ele>139.4</ele>
        <time>2021-04-21T14:55:26Z</time>
      </trkpt>
      <trkpt lat="49.14396" lon="1.30131">
        <ele>139.8</ele>
        <time>2021-04-21T14:55:33Z</time>
      </trkpt>
      <trkpt lat="49.14406" lon="1.30112">
        <ele>140.6</ele>
        <time>2021-04-21T14:55:37Z</time>
      </trkpt>
      <trkpt lat="49.14417" lon="1.30094">
        <ele>141</ele>
        <time>2021-04-21T14:55:41Z</time>
      </trkpt>
      <trkpt lat="49.1443" lon="1.30073">
        <ele>142.2</ele>
        <time>2021-04-21T14:55:46Z</time>
      </trkpt>
      <trkpt lat="49.14436" lon="1.30064">
        <ele>142.4</ele>
        <time>2021-04-21T14:55:48Z</time>
      </trkpt>
      <trkpt lat="49.1445" lon="1.30046">
        <ele>143.4</ele>
        <time>2021-04-21T14:55:53Z</time>
      </trkpt>
      <trkpt lat="49.14461" lon="1.30038">
        <ele>144</ele>
        <time>2021-04-21T14:55:56Z</time>
      </trkpt>
      <trkpt lat="49.14468" lon="1.30034">
        <ele>144.4</ele>
        <time>2021-04-21T14:55:58Z</time>
      </trkpt>
      <trkpt lat="49.14487" lon="1.30024">
        <ele>145</ele>
        <time>2021-04-21T14:56:03Z</time>
      </trkpt>
      <trkpt lat="49.14494" lon="1.30018">
        <ele>145.2</ele>
        <time>2021-04-21T14:56:05Z</time>
      </trkpt>
      <trkpt lat="49.14503" lon="1.30004">
        <ele>145.8</ele>
        <time>2021-04-21T14:56:08Z</time>
      </trkpt>
      <trkpt lat="49.14509" lon="1.29989">
        <ele>146.6</ele>
        <time>2021-04-21T14:56:11Z</time>
      </trkpt>
      <trkpt lat="49.14512" lon="1.29978">
        <ele>147</ele>
        <time>2021-04-21T14:56:13Z</time>
      </trkpt>
      <trkpt lat="49.14515" lon="1.29974">
        <ele>147.2</ele>
        <time>2021-04-21T14:56:14Z</time>
      </trkpt>
      <trkpt lat="49.14527" lon="1.29974">
        <ele>147.6</ele>
        <time>2021-04-21T14:56:17Z</time>
      </trkpt>
      <trkpt lat="49.14532" lon="1.29975">
        <ele>147.6</ele>
        <time>2021-04-21T14:56:18Z</time>
      </trkpt>
      <trkpt lat="49.14562" lon="1.29988">
        <ele>147.6</ele>
        <time>2021-04-21T14:56:24Z</time>
      </trkpt>
      <trkpt lat="49.14589" lon="1.30002">
        <ele>145.8</ele>
        <time>2021-04-21T14:56:29Z</time>
      </trkpt>
      <trkpt lat="49.14599" lon="1.30009">
        <ele>145.4</ele>
        <time>2021-04-21T14:56:31Z</time>
      </trkpt>
      <trkpt lat="49.14609" lon="1.30017">
        <ele>144.8</ele>
        <time>2021-04-21T14:56:33Z</time>
      </trkpt>
      <trkpt lat="49.14625" lon="1.3003">
        <ele>143.8</ele>
        <time>2021-04-21T14:56:36Z</time>
      </trkpt>
      <trkpt lat="49.14635" lon="1.30039">
        <ele>143</ele>
        <time>2021-04-21T14:56:38Z</time>
      </trkpt>
      <trkpt lat="49.1464" lon="1.30043">
        <ele>142.8</ele>
        <time>2021-04-21T14:56:39Z</time>
      </trkpt>
      <trkpt lat="49.14659" lon="1.30061">
        <ele>141.6</ele>
        <time>2021-04-21T14:56:43Z</time>
      </trkpt>
      <trkpt lat="49.14674" lon="1.30074">
        <ele>141.2</ele>
        <time>2021-04-21T14:56:46Z</time>
      </trkpt>
      <trkpt lat="49.14692" lon="1.30091">
        <ele>140.6</ele>
        <time>2021-04-21T14:56:50Z</time>
      </trkpt>
      <trkpt lat="49.14719" lon="1.30116">
        <ele>140.2</ele>
        <time>2021-04-21T14:56:56Z</time>
      </trkpt>
      <trkpt lat="49.14742" lon="1.3014">
        <ele>140.2</ele>
        <time>2021-04-21T14:57:01Z</time>
      </trkpt>
      <trkpt lat="49.14746" lon="1.30144">
        <ele>140.2</ele>
        <time>2021-04-21T14:57:02Z</time>
      </trkpt>
      <trkpt lat="49.14783" lon="1.30177">
        <ele>139.6</ele>
        <time>2021-04-21T14:57:10Z</time>
      </trkpt>
      <trkpt lat="49.14788" lon="1.30181">
        <ele>139.4</ele>
        <time>2021-04-21T14:57:11Z</time>
      </trkpt>
      <trkpt lat="49.1483" lon="1.30223">
        <ele>138.8</ele>
        <time>2021-04-21T14:57:20Z</time>
      </trkpt>
      <trkpt lat="49.14873" lon="1.30262">
        <ele>138.8</ele>
        <time>2021-04-21T14:57:29Z</time>
      </trkpt>
      <trkpt lat="49.14915" lon="1.30301">
        <ele>138.8</ele>
        <time>2021-04-21T14:57:38Z</time>
      </trkpt>
      <trkpt lat="49.14934" lon="1.3032">
        <ele>138.4</ele>
        <time>2021-04-21T14:57:42Z</time>
      </trkpt>
      <trkpt lat="49.14958" lon="1.30345">
        <ele>138</ele>
        <time>2021-04-21T14:57:47Z</time>
      </trkpt>
      <trkpt lat="49.14986" lon="1.30374">
        <ele>137.2</ele>
        <time>2021-04-21T14:57:53Z</time>
      </trkpt>
      <trkpt lat="49.14998" lon="1.30389">
        <ele>136.8</ele>
        <time>2021-04-21T14:57:56Z</time>
      </trkpt>
      <trkpt lat="49.15016" lon="1.30415">
        <ele>136.2</ele>
        <time>2021-04-21T14:58:01Z</time>
      </trkpt>
      <trkpt lat="49.1502" lon="1.30421">
        <ele>136.2</ele>
        <time>2021-04-21T14:58:02Z</time>
      </trkpt>
      <trkpt lat="49.15029" lon="1.30437">
        <ele>136</ele>
        <time>2021-04-21T14:58:05Z</time>
      </trkpt>
      <trkpt lat="49.15039" lon="1.30454">
        <ele>135.8</ele>
        <time>2021-04-21T14:58:08Z</time>
      </trkpt>
      <trkpt lat="49.15059" lon="1.30497">
        <ele>135.6</ele>
        <time>2021-04-21T14:58:15Z</time>
      </trkpt>
      <trkpt lat="49.15078" lon="1.3054">
        <ele>135.4</ele>
        <time>2021-04-21T14:58:22Z</time>
      </trkpt>
      <trkpt lat="49.15081" lon="1.30543">
        <ele>135.4</ele>
        <time>2021-04-21T14:58:23Z</time>
      </trkpt>
      <trkpt lat="49.15085" lon="1.30545">
        <ele>135.2</ele>
        <time>2021-04-21T14:58:24Z</time>
      </trkpt>
      <trkpt lat="49.15092" lon="1.3055">
        <ele>135.2</ele>
        <time>2021-04-21T14:58:26Z</time>
      </trkpt>
      <trkpt lat="49.15095" lon="1.30553">
        <ele>135.2</ele>
        <time>2021-04-21T14:58:27Z</time>
      </trkpt>
      <trkpt lat="49.15108" lon="1.30563">
        <ele>135</ele>
        <time>2021-04-21T14:58:31Z</time>
      </trkpt>
      <trkpt lat="49.15109" lon="1.30566">
        <ele>135</ele>
        <time>2021-04-21T14:58:32Z</time>
      </trkpt>
      <trkpt lat="49.15111" lon="1.30573">
        <ele>134.8</ele>
        <time>2021-04-21T14:58:34Z</time>
      </trkpt>
      <trkpt lat="49.15117" lon="1.30579">
        <ele>134.8</ele>
        <time>2021-04-21T14:58:36Z</time>
      </trkpt>
      <trkpt lat="49.15127" lon="1.30597">
        <ele>134.8</ele>
        <time>2021-04-21T14:58:40Z</time>
      </trkpt>
      <trkpt lat="49.15132" lon="1.30609">
        <ele>134.8</ele>
        <time>2021-04-21T14:58:42Z</time>
      </trkpt>
      <trkpt lat="49.1514" lon="1.30626">
        <ele>134.6</ele>
        <time>2021-04-21T14:58:45Z</time>
      </trkpt>
      <trkpt lat="49.15155" lon="1.30661">
        <ele>134.6</ele>
        <time>2021-04-21T14:58:51Z</time>
      </trkpt>
      <trkpt lat="49.15157" lon="1.30667">
        <ele>134.6</ele>
        <time>2021-04-21T14:58:52Z</time>
      </trkpt>
      <trkpt lat="49.15165" lon="1.30682">
        <ele>134.6</ele>
        <time>2021-04-21T14:58:55Z</time>
      </trkpt>
      <trkpt lat="49.15177" lon="1.30705">
        <ele>134.4</ele>
        <time>2021-04-21T14:58:59Z</time>
      </trkpt>
      <trkpt lat="49.1518" lon="1.30711">
        <ele>134.4</ele>
        <time>2021-04-21T14:59:00Z</time>
      </trkpt>
      <trkpt lat="49.15193" lon="1.30737">
        <ele>134.2</ele>
        <time>2021-04-21T14:59:04Z</time>
      </trkpt>
      <trkpt lat="49.15196" lon="1.30741">
        <ele>134.2</ele>
        <time>2021-04-21T14:59:05Z</time>
      </trkpt>
      <trkpt lat="49.15199" lon="1.30743">
        <ele>134</ele>
        <time>2021-04-21T14:59:06Z</time>
      </trkpt>
      <trkpt lat="49.15206" lon="1.30747">
        <ele>133.8</ele>
        <time>2021-04-21T14:59:08Z</time>
      </trkpt>
      <trkpt lat="49.1523" lon="1.30762">
        <ele>133.2</ele>
        <time>2021-04-21T14:59:13Z</time>
      </trkpt>
      <trkpt lat="49.15235" lon="1.30765">
        <ele>133.2</ele>
        <time>2021-04-21T14:59:14Z</time>
      </trkpt>
      <trkpt lat="49.15251" lon="1.30772">
        <ele>132.8</ele>
        <time>2021-04-21T14:59:17Z</time>
      </trkpt>
      <trkpt lat="49.15257" lon="1.30773">
        <ele>132.6</ele>
        <time>2021-04-21T14:59:18Z</time>
      </trkpt>
      <trkpt lat="49.15267" lon="1.30773">
        <ele>132</ele>
        <time>2021-04-21T14:59:20Z</time>
      </trkpt>
      <trkpt lat="49.15274" lon="1.30778">
        <ele>131.2</ele>
        <time>2021-04-21T14:59:22Z</time>
      </trkpt>
      <trkpt lat="49.15277" lon="1.30782">
        <ele>130.8</ele>
        <time>2021-04-21T14:59:23Z</time>
      </trkpt>
      <trkpt lat="49.15291" lon="1.30802">
        <ele>129.6</ele>
        <time>2021-04-21T14:59:27Z</time>
      </trkpt>
      <trkpt lat="49.15303" lon="1.30821">
        <ele>128.2</ele>
        <time>2021-04-21T14:59:30Z</time>
      </trkpt>
      <trkpt lat="49.15315" lon="1.30841">
        <ele>127.6</ele>
        <time>2021-04-21T14:59:33Z</time>
      </trkpt>
      <trkpt lat="49.15314" lon="1.30853">
        <ele>127.2</ele>
        <time>2021-04-21T14:59:35Z</time>
      </trkpt>
      <trkpt lat="49.15306" lon="1.30865">
        <ele>126</ele>
        <time>2021-04-21T14:59:38Z</time>
      </trkpt>
      <trkpt lat="49.15307" lon="1.30881">
        <ele>125.2</ele>
        <time>2021-04-21T14:59:41Z</time>
      </trkpt>
      <trkpt lat="49.15317" lon="1.30896">
        <ele>125</ele>
        <time>2021-04-21T14:59:44Z</time>
      </trkpt>
      <trkpt lat="49.15325" lon="1.30904">
        <ele>124.8</ele>
        <time>2021-04-21T14:59:46Z</time>
      </trkpt>
      <trkpt lat="49.1533" lon="1.30906">
        <ele>124.6</ele>
        <time>2021-04-21T14:59:47Z</time>
      </trkpt>
      <trkpt lat="49.15335" lon="1.30908">
        <ele>124.6</ele>
        <time>2021-04-21T14:59:48Z</time>
      </trkpt>
      <trkpt lat="49.15353" lon="1.30902">
        <ele>124.4</ele>
        <time>2021-04-21T14:59:52Z</time>
      </trkpt>
      <trkpt lat="49.15363" lon="1.30899">
        <ele>124.4</ele>
        <time>2021-04-21T14:59:54Z</time>
      </trkpt>
      <trkpt lat="49.15373" lon="1.30892">
        <ele>123.8</ele>
        <time>2021-04-21T14:59:56Z</time>
      </trkpt>
      <trkpt lat="49.15378" lon="1.30886">
        <ele>123.6</ele>
        <time>2021-04-21T14:59:57Z</time>
      </trkpt>
      <trkpt lat="49.15383" lon="1.30879">
        <ele>123.2</ele>
        <time>2021-04-21T14:59:58Z</time>
      </trkpt>
      <trkpt lat="49.15388" lon="1.30873">
        <ele>122.6</ele>
        <time>2021-04-21T14:59:59Z</time>
      </trkpt>
      <trkpt lat="49.15392" lon="1.30865">
        <ele>122.2</ele>
        <time>2021-04-21T15:00:00Z</time>
      </trkpt>
      <trkpt lat="49.15394" lon="1.30843">
        <ele>120.8</ele>
        <time>2021-04-21T15:00:03Z</time>
      </trkpt>
      <trkpt lat="49.15387" lon="1.3083">
        <ele>119.4</ele>
        <time>2021-04-21T15:00:06Z</time>
      </trkpt>
      <trkpt lat="49.15384" lon="1.30829">
        <ele>119</ele>
        <time>2021-04-21T15:00:07Z</time>
      </trkpt>
      <trkpt lat="49.15374" lon="1.3082">
        <ele>118.2</ele>
        <time>2021-04-21T15:00:11Z</time>
      </trkpt>
      <trkpt lat="49.15372" lon="1.30817">
        <ele>118.2</ele>
        <time>2021-04-21T15:00:12Z</time>
      </trkpt>
      <trkpt lat="49.15364" lon="1.30806">
        <ele>118.2</ele>
        <time>2021-04-21T15:00:15Z</time>
      </trkpt>
      <trkpt lat="49.15353" lon="1.30799">
        <ele>118.2</ele>
        <time>2021-04-21T15:00:18Z</time>
      </trkpt>
      <trkpt lat="49.1535" lon="1.30799">
        <ele>118.4</ele>
        <time>2021-04-21T15:00:19Z</time>
      </trkpt>
      <trkpt lat="49.15346" lon="1.30797">
        <ele>118.8</ele>
        <time>2021-04-21T15:00:20Z</time>
      </trkpt>
      <trkpt lat="49.15341" lon="1.3079">
        <ele>119.2</ele>
        <time>2021-04-21T15:00:22Z</time>
      </trkpt>
      <trkpt lat="49.1534" lon="1.30785">
        <ele>119.4</ele>
        <time>2021-04-21T15:00:23Z</time>
      </trkpt>
      <trkpt lat="49.15332" lon="1.30768">
        <ele>120.2</ele>
        <time>2021-04-21T15:00:27Z</time>
      </trkpt>
      <trkpt lat="49.15329" lon="1.30764">
        <ele>120.6</ele>
        <time>2021-04-21T15:00:28Z</time>
      </trkpt>
      <trkpt lat="49.15322" lon="1.30749">
        <ele>121.6</ele>
        <time>2021-04-21T15:00:31Z</time>
      </trkpt>
      <trkpt lat="49.1532" lon="1.30744">
        <ele>121.8</ele>
        <time>2021-04-21T15:00:32Z</time>
      </trkpt>
      <trkpt lat="49.15312" lon="1.3072">
        <ele>122.4</ele>
        <time>2021-04-21T15:00:36Z</time>
      </trkpt>
      <trkpt lat="49.15309" lon="1.30707">
        <ele>122.2</ele>
        <time>2021-04-21T15:00:38Z</time>
      </trkpt>
      <trkpt lat="49.15308" lon="1.3069">
        <ele>122.4</ele>
        <time>2021-04-21T15:00:40Z</time>
      </trkpt>
      <trkpt lat="49.15308" lon="1.3068">
        <ele>122.4</ele>
        <time>2021-04-21T15:00:41Z</time>
      </trkpt>
      <trkpt lat="49.15307" lon="1.30671">
        <ele>122.4</ele>
        <time>2021-04-21T15:00:42Z</time>
      </trkpt>
      <trkpt lat="49.15301" lon="1.30644">
        <ele>122.4</ele>
        <time>2021-04-21T15:00:45Z</time>
      </trkpt>
      <trkpt lat="49.15298" lon="1.30636">
        <ele>122.2</ele>
        <time>2021-04-21T15:00:46Z</time>
      </trkpt>
      <trkpt lat="49.15294" lon="1.30619">
        <ele>121.4</ele>
        <time>2021-04-21T15:00:49Z</time>
      </trkpt>
      <trkpt lat="49.15292" lon="1.30614">
        <ele>120.6</ele>
        <time>2021-04-21T15:00:51Z</time>
      </trkpt>
      <trkpt lat="49.15291" lon="1.30599">
        <ele>120.8</ele>
        <time>2021-04-21T15:04:42Z</time>
      </trkpt>
      <trkpt lat="49.15293" lon="1.30598">
        <ele>120.8</ele>
        <time>2021-04-21T15:04:43Z</time>
      </trkpt>
      <trkpt lat="49.15302" lon="1.30599">
        <ele>120.8</ele>
        <time>2021-04-21T15:04:46Z</time>
      </trkpt>
      <trkpt lat="49.15305" lon="1.306">
        <ele>120.8</ele>
        <time>2021-04-21T15:04:47Z</time>
      </trkpt>
      <trkpt lat="49.15317" lon="1.306">
        <ele>120.4</ele>
        <time>2021-04-21T15:04:50Z</time>
      </trkpt>
      <trkpt lat="49.15322" lon="1.30603">
        <ele>120.2</ele>
        <time>2021-04-21T15:04:51Z</time>
      </trkpt>
      <trkpt lat="49.15334" lon="1.30614">
        <ele>119.4</ele>
        <time>2021-04-21T15:04:54Z</time>
      </trkpt>
      <trkpt lat="49.15345" lon="1.30614">
        <ele>117.8</ele>
        <time>2021-04-21T15:04:57Z</time>
      </trkpt>
      <trkpt lat="49.1535" lon="1.30615">
        <ele>117</ele>
        <time>2021-04-21T15:04:58Z</time>
      </trkpt>
      <trkpt lat="49.15354" lon="1.30614">
        <ele>116.4</ele>
        <time>2021-04-21T15:04:59Z</time>
      </trkpt>
      <trkpt lat="49.15361" lon="1.30613">
        <ele>115.2</ele>
        <time>2021-04-21T15:05:01Z</time>
      </trkpt>
      <trkpt lat="49.15364" lon="1.30613">
        <ele>114.6</ele>
        <time>2021-04-21T15:05:02Z</time>
      </trkpt>
      <trkpt lat="49.15368" lon="1.30613">
        <ele>114.2</ele>
        <time>2021-04-21T15:05:03Z</time>
      </trkpt>
      <trkpt lat="49.15373" lon="1.30613">
        <ele>112.4</ele>
        <time>2021-04-21T15:05:06Z</time>
      </trkpt>
      <trkpt lat="49.15374" lon="1.30612">
        <ele>111.8</ele>
        <time>2021-04-21T15:05:07Z</time>
      </trkpt>
      <trkpt lat="49.15382" lon="1.30612">
        <ele>108.2</ele>
        <time>2021-04-21T15:05:12Z</time>
      </trkpt>
      <trkpt lat="49.15384" lon="1.30612">
        <ele>107.2</ele>
        <time>2021-04-21T15:05:15Z</time>
      </trkpt>
      <trkpt lat="49.15389" lon="1.30607">
        <ele>105.8</ele>
        <time>2021-04-21T15:05:23Z</time>
      </trkpt>
      <trkpt lat="49.15389" lon="1.30605">
        <ele>105.6</ele>
        <time>2021-04-21T15:05:27Z</time>
      </trkpt>
      <trkpt lat="49.15389" lon="1.30603">
        <ele>105.6</ele>
        <time>2021-04-21T15:05:30Z</time>
      </trkpt>
      <trkpt lat="49.15387" lon="1.30597">
        <ele>105.6</ele>
        <time>2021-04-21T15:05:35Z</time>
      </trkpt>
      <trkpt lat="49.15384" lon="1.30581">
        <ele>105.4</ele>
        <time>2021-04-21T15:05:40Z</time>
      </trkpt>
      <trkpt lat="49.15379" lon="1.30569">
        <ele>105.4</ele>
        <time>2021-04-21T15:05:45Z</time>
      </trkpt>
      <trkpt lat="49.15379" lon="1.30566">
        <ele>105.4</ele>
        <time>2021-04-21T15:05:46Z</time>
      </trkpt>
      <trkpt lat="49.15385" lon="1.30565">
        <ele>105.2</ele>
        <time>2021-04-21T15:05:49Z</time>
      </trkpt>
      <trkpt lat="49.15388" lon="1.30565">
        <ele>105</ele>
        <time>2021-04-21T15:05:50Z</time>
      </trkpt>
      <trkpt lat="49.1539" lon="1.30564">
        <ele>104.8</ele>
        <time>2021-04-21T15:05:51Z</time>
      </trkpt>
      <trkpt lat="49.15396" lon="1.30562">
        <ele>104.4</ele>
        <time>2021-04-21T15:05:53Z</time>
      </trkpt>
      <trkpt lat="49.1541" lon="1.30566">
        <ele>103.6</ele>
        <time>2021-04-21T15:05:58Z</time>
      </trkpt>
      <trkpt lat="49.15411" lon="1.30568">
        <ele>103</ele>
        <time>2021-04-21T15:05:59Z</time>
      </trkpt>
      <trkpt lat="49.15412" lon="1.30572">
        <ele>102.8</ele>
        <time>2021-04-21T15:06:01Z</time>
      </trkpt>
      <trkpt lat="49.15413" lon="1.30573">
        <ele>102.6</ele>
        <time>2021-04-21T15:06:02Z</time>
      </trkpt>
      <trkpt lat="49.15415" lon="1.30574">
        <ele>102.6</ele>
        <time>2021-04-21T15:06:03Z</time>
      </trkpt>
      <trkpt lat="49.15418" lon="1.30574">
        <ele>102.6</ele>
        <time>2021-04-21T15:06:05Z</time>
      </trkpt>
      <trkpt lat="49.15429" lon="1.30573">
        <ele>102.8</ele>
        <time>2021-04-21T15:06:10Z</time>
      </trkpt>
      <trkpt lat="49.15443" lon="1.30581">
        <ele>103.4</ele>
        <time>2021-04-21T15:06:16Z</time>
      </trkpt>
      <trkpt lat="49.15463" lon="1.30593">
        <ele>104</ele>
        <time>2021-04-21T15:06:22Z</time>
      </trkpt>
      <trkpt lat="49.15466" lon="1.30595">
        <ele>104</ele>
        <time>2021-04-21T15:06:23Z</time>
      </trkpt>
      <trkpt lat="49.15483" lon="1.30607">
        <ele>104.4</ele>
        <time>2021-04-21T15:06:29Z</time>
      </trkpt>
      <trkpt lat="49.15502" lon="1.30618">
        <ele>104.6</ele>
        <time>2021-04-21T15:06:35Z</time>
      </trkpt>
      <trkpt lat="49.1552" lon="1.30628">
        <ele>105</ele>
        <time>2021-04-21T15:06:41Z</time>
      </trkpt>
      <trkpt lat="49.15522" lon="1.3063">
        <ele>105</ele>
        <time>2021-04-21T15:06:42Z</time>
      </trkpt>
      <trkpt lat="49.15536" lon="1.3064">
        <ele>105.4</ele>
        <time>2021-04-21T15:06:47Z</time>
      </trkpt>
      <trkpt lat="49.15539" lon="1.30641">
        <ele>105.6</ele>
        <time>2021-04-21T15:06:48Z</time>
      </trkpt>
      <trkpt lat="49.15548" lon="1.3064">
        <ele>106</ele>
        <time>2021-04-21T15:06:52Z</time>
      </trkpt>
      <trkpt lat="49.15552" lon="1.3064">
        <ele>106.6</ele>
        <time>2021-04-21T15:06:54Z</time>
      </trkpt>
      <trkpt lat="49.15557" lon="1.3064">
        <ele>107.2</ele>
        <time>2021-04-21T15:06:57Z</time>
      </trkpt>
      <trkpt lat="49.15564" lon="1.30642">
        <ele>107.8</ele>
        <time>2021-04-21T15:07:01Z</time>
      </trkpt>
      <trkpt lat="49.15567" lon="1.30643">
        <ele>108</ele>
        <time>2021-04-21T15:07:02Z</time>
      </trkpt>
      <trkpt lat="49.1557" lon="1.30643">
        <ele>108.2</ele>
        <time>2021-04-21T15:07:04Z</time>
      </trkpt>
      <trkpt lat="49.15575" lon="1.30643">
        <ele>108.8</ele>
        <time>2021-04-21T15:07:06Z</time>
      </trkpt>
      <trkpt lat="49.15577" lon="1.30643">
        <ele>109</ele>
        <time>2021-04-21T15:07:07Z</time>
      </trkpt>
      <trkpt lat="49.15581" lon="1.30644">
        <ele>109.2</ele>
        <time>2021-04-21T15:07:09Z</time>
      </trkpt>
      <trkpt lat="49.15595" lon="1.30647">
        <ele>110.4</ele>
        <time>2021-04-21T15:07:15Z</time>
      </trkpt>
      <trkpt lat="49.15609" lon="1.30648">
        <ele>111.6</ele>
        <time>2021-04-21T15:07:21Z</time>
      </trkpt>
      <trkpt lat="49.15624" lon="1.30657">
        <ele>112.6</ele>
        <time>2021-04-21T15:07:27Z</time>
      </trkpt>
      <trkpt lat="49.15641" lon="1.30665">
        <ele>113.8</ele>
        <time>2021-04-21T15:07:33Z</time>
      </trkpt>
      <trkpt lat="49.15659" lon="1.30675">
        <ele>115</ele>
        <time>2021-04-21T15:07:40Z</time>
      </trkpt>
      <trkpt lat="49.15661" lon="1.30675">
        <ele>115</ele>
        <time>2021-04-21T15:07:41Z</time>
      </trkpt>
      <trkpt lat="49.15676" lon="1.30672">
        <ele>115.2</ele>
        <time>2021-04-21T15:07:46Z</time>
      </trkpt>
      <trkpt lat="49.15691" lon="1.3067">
        <ele>115.8</ele>
        <time>2021-04-21T15:07:52Z</time>
      </trkpt>
      <trkpt lat="49.15701" lon="1.30673">
        <ele>116</ele>
        <time>2021-04-21T15:07:56Z</time>
      </trkpt>
      <trkpt lat="49.15704" lon="1.30674">
        <ele>116.2</ele>
        <time>2021-04-21T15:07:57Z</time>
      </trkpt>
      <trkpt lat="49.15723" lon="1.30679">
        <ele>116.8</ele>
        <time>2021-04-21T15:08:03Z</time>
      </trkpt>
      <trkpt lat="49.15729" lon="1.30679">
        <ele>117.2</ele>
        <time>2021-04-21T15:08:05Z</time>
      </trkpt>
      <trkpt lat="49.15748" lon="1.30679">
        <ele>118.2</ele>
        <time>2021-04-21T15:08:11Z</time>
      </trkpt>
      <trkpt lat="49.15752" lon="1.30679">
        <ele>118.4</ele>
        <time>2021-04-21T15:08:12Z</time>
      </trkpt>
      <trkpt lat="49.15769" lon="1.30684">
        <ele>119</ele>
        <time>2021-04-21T15:08:17Z</time>
      </trkpt>
      <trkpt lat="49.15778" lon="1.3069">
        <ele>119.4</ele>
        <time>2021-04-21T15:08:20Z</time>
      </trkpt>
      <trkpt lat="49.15794" lon="1.30701">
        <ele>120.4</ele>
        <time>2021-04-21T15:08:25Z</time>
      </trkpt>
      <trkpt lat="49.158" lon="1.30705">
        <ele>120.4</ele>
        <time>2021-04-21T15:08:27Z</time>
      </trkpt>
      <trkpt lat="49.15821" lon="1.30715">
        <ele>120.8</ele>
        <time>2021-04-21T15:08:33Z</time>
      </trkpt>
      <trkpt lat="49.15838" lon="1.30721">
        <ele>121.6</ele>
        <time>2021-04-21T15:08:38Z</time>
      </trkpt>
      <trkpt lat="49.1584" lon="1.30725">
        <ele>121.6</ele>
        <time>2021-04-21T15:08:39Z</time>
      </trkpt>
      <trkpt lat="49.15854" lon="1.30752">
        <ele>121.8</ele>
        <time>2021-04-21T15:08:45Z</time>
      </trkpt>
      <trkpt lat="49.15871" lon="1.30792">
        <ele>121.6</ele>
        <time>2021-04-21T15:08:52Z</time>
      </trkpt>
      <trkpt lat="49.1589" lon="1.30844">
        <ele>121.4</ele>
        <time>2021-04-21T15:09:00Z</time>
      </trkpt>
      <trkpt lat="49.15914" lon="1.30899">
        <ele>121</ele>
        <time>2021-04-21T15:09:08Z</time>
      </trkpt>
      <trkpt lat="49.15931" lon="1.30934">
        <ele>120.8</ele>
        <time>2021-04-21T15:09:13Z</time>
      </trkpt>
      <trkpt lat="49.15937" lon="1.30947">
        <ele>120.6</ele>
        <time>2021-04-21T15:09:15Z</time>
      </trkpt>
      <trkpt lat="49.15943" lon="1.30959">
        <ele>120.6</ele>
        <time>2021-04-21T15:09:17Z</time>
      </trkpt>
      <trkpt lat="49.15956" lon="1.30984">
        <ele>119.4</ele>
        <time>2021-04-21T15:09:21Z</time>
      </trkpt>
      <trkpt lat="49.15963" lon="1.30997">
        <ele>119.2</ele>
        <time>2021-04-21T15:09:23Z</time>
      </trkpt>
      <trkpt lat="49.15998" lon="1.31055">
        <ele>118.4</ele>
        <time>2021-04-21T15:09:33Z</time>
      </trkpt>
      <trkpt lat="49.16002" lon="1.31061">
        <ele>118</ele>
        <time>2021-04-21T15:09:34Z</time>
      </trkpt>
      <trkpt lat="49.16014" lon="1.31093">
        <ele>116.6</ele>
        <time>2021-04-21T15:09:38Z</time>
      </trkpt>
      <trkpt lat="49.16033" lon="1.31154">
        <ele>115.6</ele>
        <time>2021-04-21T15:09:45Z</time>
      </trkpt>
      <trkpt lat="49.16035" lon="1.31163">
        <ele>115.6</ele>
        <time>2021-04-21T15:09:46Z</time>
      </trkpt>
      <trkpt lat="49.16047" lon="1.31205">
        <ele>114.4</ele>
        <time>2021-04-21T15:09:51Z</time>
      </trkpt>
      <trkpt lat="49.1605" lon="1.31212">
        <ele>114.2</ele>
        <time>2021-04-21T15:09:52Z</time>
      </trkpt>
      <trkpt lat="49.16059" lon="1.31245">
        <ele>113.4</ele>
        <time>2021-04-21T15:09:56Z</time>
      </trkpt>
      <trkpt lat="49.16067" lon="1.31271">
        <ele>112.6</ele>
        <time>2021-04-21T15:09:59Z</time>
      </trkpt>
      <trkpt lat="49.16071" lon="1.31289">
        <ele>112.2</ele>
        <time>2021-04-21T15:10:01Z</time>
      </trkpt>
      <trkpt lat="49.16074" lon="1.31317">
        <ele>111.6</ele>
        <time>2021-04-21T15:10:04Z</time>
      </trkpt>
      <trkpt lat="49.16074" lon="1.31327">
        <ele>111.2</ele>
        <time>2021-04-21T15:10:05Z</time>
      </trkpt>
      <trkpt lat="49.16075" lon="1.31378">
        <ele>110</ele>
        <time>2021-04-21T15:10:10Z</time>
      </trkpt>
      <trkpt lat="49.16076" lon="1.31388">
        <ele>109.8</ele>
        <time>2021-04-21T15:10:11Z</time>
      </trkpt>
      <trkpt lat="49.16076" lon="1.31398">
        <ele>109.8</ele>
        <time>2021-04-21T15:10:12Z</time>
      </trkpt>
      <trkpt lat="49.16079" lon="1.31423">
        <ele>109.4</ele>
        <time>2021-04-21T15:10:15Z</time>
      </trkpt>
      <trkpt lat="49.16081" lon="1.31439">
        <ele>109</ele>
        <time>2021-04-21T15:10:17Z</time>
      </trkpt>
      <trkpt lat="49.16081" lon="1.31446">
        <ele>108.6</ele>
        <time>2021-04-21T15:10:18Z</time>
      </trkpt>
      <trkpt lat="49.16077" lon="1.31462">
        <ele>107.8</ele>
        <time>2021-04-21T15:10:20Z</time>
      </trkpt>
      <trkpt lat="49.16063" lon="1.31476">
        <ele>107.2</ele>
        <time>2021-04-21T15:10:23Z</time>
      </trkpt>
      <trkpt lat="49.16052" lon="1.31484">
        <ele>106.8</ele>
        <time>2021-04-21T15:10:25Z</time>
      </trkpt>
      <trkpt lat="49.16035" lon="1.31495">
        <ele>106.4</ele>
        <time>2021-04-21T15:10:28Z</time>
      </trkpt>
      <trkpt lat="49.1603" lon="1.31502">
        <ele>106.2</ele>
        <time>2021-04-21T15:10:29Z</time>
      </trkpt>
      <trkpt lat="49.16021" lon="1.31518">
        <ele>105.6</ele>
        <time>2021-04-21T15:10:31Z</time>
      </trkpt>
      <trkpt lat="49.16018" lon="1.31528">
        <ele>104.8</ele>
        <time>2021-04-21T15:10:32Z</time>
      </trkpt>
      <trkpt lat="49.16017" lon="1.3154">
        <ele>104.4</ele>
        <time>2021-04-21T15:10:33Z</time>
      </trkpt>
      <trkpt lat="49.16018" lon="1.31564">
        <ele>103.4</ele>
        <time>2021-04-21T15:10:35Z</time>
      </trkpt>
      <trkpt lat="49.16019" lon="1.3159">
        <ele>102.2</ele>
        <time>2021-04-21T15:10:37Z</time>
      </trkpt>
      <trkpt lat="49.16017" lon="1.31617">
        <ele>100.6</ele>
        <time>2021-04-21T15:10:39Z</time>
      </trkpt>
      <trkpt lat="49.16015" lon="1.3163">
        <ele>99.8</ele>
        <time>2021-04-21T15:10:40Z</time>
      </trkpt>
      <trkpt lat="49.16013" lon="1.31643">
        <ele>99</ele>
        <time>2021-04-21T15:10:41Z</time>
      </trkpt>
      <trkpt lat="49.16009" lon="1.31669">
        <ele>97.8</ele>
        <time>2021-04-21T15:10:43Z</time>
      </trkpt>
      <trkpt lat="49.16011" lon="1.31693">
        <ele>96.6</ele>
        <time>2021-04-21T15:10:45Z</time>
      </trkpt>
      <trkpt lat="49.1602" lon="1.31711">
        <ele>95.4</ele>
        <time>2021-04-21T15:10:47Z</time>
      </trkpt>
      <trkpt lat="49.16025" lon="1.31719">
        <ele>94.8</ele>
        <time>2021-04-21T15:10:48Z</time>
      </trkpt>
      <trkpt lat="49.1603" lon="1.31727">
        <ele>94</ele>
        <time>2021-04-21T15:10:49Z</time>
      </trkpt>
      <trkpt lat="49.1604" lon="1.31742">
        <ele>92</ele>
        <time>2021-04-21T15:10:51Z</time>
      </trkpt>
      <trkpt lat="49.16049" lon="1.31757">
        <ele>90.2</ele>
        <time>2021-04-21T15:10:53Z</time>
      </trkpt>
      <trkpt lat="49.16054" lon="1.31764">
        <ele>89.6</ele>
        <time>2021-04-21T15:10:54Z</time>
      </trkpt>
      <trkpt lat="49.16058" lon="1.31772">
        <ele>89</ele>
        <time>2021-04-21T15:10:55Z</time>
      </trkpt>
      <trkpt lat="49.16072" lon="1.31806">
        <ele>87.6</ele>
        <time>2021-04-21T15:10:59Z</time>
      </trkpt>
      <trkpt lat="49.16075" lon="1.31815">
        <ele>87.2</ele>
        <time>2021-04-21T15:11:00Z</time>
      </trkpt>
      <trkpt lat="49.16087" lon="1.31847">
        <ele>86.6</ele>
        <time>2021-04-21T15:11:04Z</time>
      </trkpt>
      <trkpt lat="49.16095" lon="1.31873">
        <ele>86.6</ele>
        <time>2021-04-21T15:11:07Z</time>
      </trkpt>
      <trkpt lat="49.16097" lon="1.31882">
        <ele>86.4</ele>
        <time>2021-04-21T15:11:08Z</time>
      </trkpt>
      <trkpt lat="49.16102" lon="1.31912">
        <ele>86.6</ele>
        <time>2021-04-21T15:11:11Z</time>
      </trkpt>
      <trkpt lat="49.16106" lon="1.31966">
        <ele>86.2</ele>
        <time>2021-04-21T15:11:16Z</time>
      </trkpt>
      <trkpt lat="49.16104" lon="1.31991">
        <ele>85.8</ele>
        <time>2021-04-21T15:11:18Z</time>
      </trkpt>
      <trkpt lat="49.16104" lon="1.32005">
        <ele>85.4</ele>
        <time>2021-04-21T15:11:19Z</time>
      </trkpt>
      <trkpt lat="49.16104" lon="1.32033">
        <ele>84.4</ele>
        <time>2021-04-21T15:11:21Z</time>
      </trkpt>
      <trkpt lat="49.16104" lon="1.32071">
        <ele>83</ele>
        <time>2021-04-21T15:11:24Z</time>
      </trkpt>
      <trkpt lat="49.16106" lon="1.32093">
        <ele>81.6</ele>
        <time>2021-04-21T15:11:26Z</time>
      </trkpt>
      <trkpt lat="49.16105" lon="1.32104">
        <ele>80.6</ele>
        <time>2021-04-21T15:11:27Z</time>
      </trkpt>
      <trkpt lat="49.16105" lon="1.32115">
        <ele>79.6</ele>
        <time>2021-04-21T15:11:28Z</time>
      </trkpt>
      <trkpt lat="49.16105" lon="1.32123">
        <ele>78.4</ele>
        <time>2021-04-21T15:11:29Z</time>
      </trkpt>
      <trkpt lat="49.16106" lon="1.3213">
        <ele>76.4</ele>
        <time>2021-04-21T15:11:30Z</time>
      </trkpt>
      <trkpt lat="49.16108" lon="1.32138">
        <ele>75.4</ele>
        <time>2021-04-21T15:11:31Z</time>
      </trkpt>
      <trkpt lat="49.16109" lon="1.32157">
        <ele>73.8</ele>
        <time>2021-04-21T15:11:33Z</time>
      </trkpt>
      <trkpt lat="49.1611" lon="1.32179">
        <ele>72.2</ele>
        <time>2021-04-21T15:11:35Z</time>
      </trkpt>
      <trkpt lat="49.16111" lon="1.32189">
        <ele>71.4</ele>
        <time>2021-04-21T15:11:36Z</time>
      </trkpt>
      <trkpt lat="49.16113" lon="1.32198">
        <ele>70.8</ele>
        <time>2021-04-21T15:11:37Z</time>
      </trkpt>
      <trkpt lat="49.16114" lon="1.32205">
        <ele>70.2</ele>
        <time>2021-04-21T15:11:38Z</time>
      </trkpt>
      <trkpt lat="49.16115" lon="1.32213">
        <ele>69.2</ele>
        <time>2021-04-21T15:11:40Z</time>
      </trkpt>
      <trkpt lat="49.16115" lon="1.32215">
        <ele>68.4</ele>
        <time>2021-04-21T15:11:41Z</time>
      </trkpt>
      <trkpt lat="49.16114" lon="1.32218">
        <ele>67.4</ele>
        <time>2021-04-21T15:11:42Z</time>
      </trkpt>
      <trkpt lat="49.16111" lon="1.32225">
        <ele>65.6</ele>
        <time>2021-04-21T15:11:44Z</time>
      </trkpt>
      <trkpt lat="49.1611" lon="1.3223">
        <ele>63.6</ele>
        <time>2021-04-21T15:11:46Z</time>
      </trkpt>
      <trkpt lat="49.16107" lon="1.32232">
        <ele>62.4</ele>
        <time>2021-04-21T15:11:48Z</time>
      </trkpt>
      <trkpt lat="49.16103" lon="1.3223">
        <ele>61.2</ele>
        <time>2021-04-21T15:11:50Z</time>
      </trkpt>
      <trkpt lat="49.161" lon="1.32228">
        <ele>60.8</ele>
        <time>2021-04-21T15:11:51Z</time>
      </trkpt>
      <trkpt lat="49.16097" lon="1.32226">
        <ele>60.4</ele>
        <time>2021-04-21T15:11:52Z</time>
      </trkpt>
      <trkpt lat="49.16094" lon="1.32224">
        <ele>59.8</ele>
        <time>2021-04-21T15:11:53Z</time>
      </trkpt>
      <trkpt lat="49.16082" lon="1.32214">
        <ele>58.6</ele>
        <time>2021-04-21T15:11:56Z</time>
      </trkpt>
      <trkpt lat="49.16078" lon="1.3221">
        <ele>58.2</ele>
        <time>2021-04-21T15:11:57Z</time>
      </trkpt>
      <trkpt lat="49.16075" lon="1.32204">
        <ele>57.2</ele>
        <time>2021-04-21T15:11:58Z</time>
      </trkpt>
      <trkpt lat="49.16072" lon="1.32191">
        <ele>56.6</ele>
        <time>2021-04-21T15:12:00Z</time>
      </trkpt>
      <trkpt lat="49.16067" lon="1.32177">
        <ele>56.4</ele>
        <time>2021-04-21T15:12:02Z</time>
      </trkpt>
      <trkpt lat="49.16057" lon="1.32161">
        <ele>56.2</ele>
        <time>2021-04-21T15:12:05Z</time>
      </trkpt>
      <trkpt lat="49.16052" lon="1.32157">
        <ele>56</ele>
        <time>2021-04-21T15:12:06Z</time>
      </trkpt>
      <trkpt lat="49.16039" lon="1.32142">
        <ele>56</ele>
        <time>2021-04-21T15:12:09Z</time>
      </trkpt>
      <trkpt lat="49.16034" lon="1.32137">
        <ele>56</ele>
        <time>2021-04-21T15:12:10Z</time>
      </trkpt>
      <trkpt lat="49.16019" lon="1.32126">
        <ele>55.8</ele>
        <time>2021-04-21T15:12:13Z</time>
      </trkpt>
      <trkpt lat="49.16007" lon="1.32141">
        <ele>55.8</ele>
        <time>2021-04-21T15:12:16Z</time>
      </trkpt>
      <trkpt lat="49.16005" lon="1.32151">
        <ele>55.4</ele>
        <time>2021-04-21T15:12:17Z</time>
      </trkpt>
      <trkpt lat="49.16003" lon="1.3216">
        <ele>55</ele>
        <time>2021-04-21T15:12:18Z</time>
      </trkpt>
      <trkpt lat="49.15999" lon="1.32175">
        <ele>54</ele>
        <time>2021-04-21T15:12:20Z</time>
      </trkpt>
      <trkpt lat="49.16001" lon="1.3219">
        <ele>52.4</ele>
        <time>2021-04-21T15:12:22Z</time>
      </trkpt>
      <trkpt lat="49.16003" lon="1.32197">
        <ele>51.4</ele>
        <time>2021-04-21T15:12:23Z</time>
      </trkpt>
      <trkpt lat="49.16005" lon="1.32205">
        <ele>50.2</ele>
        <time>2021-04-21T15:12:24Z</time>
      </trkpt>
      <trkpt lat="49.16007" lon="1.32213">
        <ele>49</ele>
        <time>2021-04-21T15:12:25Z</time>
      </trkpt>
      <trkpt lat="49.16009" lon="1.32221">
        <ele>47.8</ele>
        <time>2021-04-21T15:12:26Z</time>
      </trkpt>
      <trkpt lat="49.16011" lon="1.32228">
        <ele>45.8</ele>
        <time>2021-04-21T15:12:27Z</time>
      </trkpt>
      <trkpt lat="49.16018" lon="1.32251">
        <ele>44.8</ele>
        <time>2021-04-21T15:12:30Z</time>
      </trkpt>
      <trkpt lat="49.16022" lon="1.32266">
        <ele>44.4</ele>
        <time>2021-04-21T15:12:32Z</time>
      </trkpt>
      <trkpt lat="49.16023" lon="1.32283">
        <ele>44.2</ele>
        <time>2021-04-21T15:12:34Z</time>
      </trkpt>
      <trkpt lat="49.1602" lon="1.32301">
        <ele>43.6</ele>
        <time>2021-04-21T15:12:37Z</time>
      </trkpt>
      <trkpt lat="49.16013" lon="1.32304">
        <ele>43</ele>
        <time>2021-04-21T15:12:39Z</time>
      </trkpt>
      <trkpt lat="49.16008" lon="1.32307">
        <ele>42.4</ele>
        <time>2021-04-21T15:12:41Z</time>
      </trkpt>
      <trkpt lat="49.15997" lon="1.32312">
        <ele>41.6</ele>
        <time>2021-04-21T15:12:46Z</time>
      </trkpt>
      <trkpt lat="49.1599" lon="1.32315">
        <ele>41.4</ele>
        <time>2021-04-21T15:12:51Z</time>
      </trkpt>
      <trkpt lat="49.15989" lon="1.32317">
        <ele>41.4</ele>
        <time>2021-04-21T15:12:52Z</time>
      </trkpt>
      <trkpt lat="49.15988" lon="1.32326">
        <ele>40.6</ele>
        <time>2021-04-21T15:12:55Z</time>
      </trkpt>
      <trkpt lat="49.15988" lon="1.3233">
        <ele>40.2</ele>
        <time>2021-04-21T15:12:56Z</time>
      </trkpt>
      <trkpt lat="49.15989" lon="1.32334">
        <ele>40</ele>
        <time>2021-04-21T15:12:57Z</time>
      </trkpt>
      <trkpt lat="49.15992" lon="1.32345">
        <ele>39.8</ele>
        <time>2021-04-21T15:12:59Z</time>
      </trkpt>
      <trkpt lat="49.15993" lon="1.32368">
        <ele>39.4</ele>
        <time>2021-04-21T15:13:03Z</time>
      </trkpt>
      <trkpt lat="49.15986" lon="1.32379">
        <ele>39</ele>
        <time>2021-04-21T15:13:06Z</time>
      </trkpt>
      <trkpt lat="49.15983" lon="1.32381">
        <ele>39</ele>
        <time>2021-04-21T15:13:07Z</time>
      </trkpt>
      <trkpt lat="49.15972" lon="1.3239">
        <ele>39</ele>
        <time>2021-04-21T15:13:11Z</time>
      </trkpt>
      <trkpt lat="49.1597" lon="1.32397">
        <ele>39</ele>
        <time>2021-04-21T15:13:13Z</time>
      </trkpt>
      <trkpt lat="49.1597" lon="1.32401">
        <ele>39</ele>
        <time>2021-04-21T15:13:16Z</time>
      </trkpt>
      <trkpt lat="49.15969" lon="1.32402">
        <ele>40.6</ele>
        <time>2021-04-21T15:13:38Z</time>
      </trkpt>
      <trkpt lat="49.15969" lon="1.32421">
        <ele>40.6</ele>
        <time>2021-04-21T15:13:44Z</time>
      </trkpt>
      <trkpt lat="49.15972" lon="1.3244">
        <ele>40.4</ele>
        <time>2021-04-21T15:13:49Z</time>
      </trkpt>
      <trkpt lat="49.1598" lon="1.32463">
        <ele>40.4</ele>
        <time>2021-04-21T15:13:55Z</time>
      </trkpt>
      <trkpt lat="49.15991" lon="1.32488">
        <ele>40.4</ele>
        <time>2021-04-21T15:14:01Z</time>
      </trkpt>
      <trkpt lat="49.15999" lon="1.32504">
        <ele>40</ele>
        <time>2021-04-21T15:14:05Z</time>
      </trkpt>
      <trkpt lat="49.16002" lon="1.32509">
        <ele>40</ele>
        <time>2021-04-21T15:14:06Z</time>
      </trkpt>
      <trkpt lat="49.16009" lon="1.32527">
        <ele>39.6</ele>
        <time>2021-04-21T15:14:09Z</time>
      </trkpt>
      <trkpt lat="49.1601" lon="1.32534">
        <ele>39.4</ele>
        <time>2021-04-21T15:14:10Z</time>
      </trkpt>
      <trkpt lat="49.16018" lon="1.32565">
        <ele>38.4</ele>
        <time>2021-04-21T15:14:14Z</time>
      </trkpt>
      <trkpt lat="49.1602" lon="1.32573">
        <ele>38</ele>
        <time>2021-04-21T15:14:15Z</time>
      </trkpt>
      <trkpt lat="49.16024" lon="1.32599">
        <ele>37.2</ele>
        <time>2021-04-21T15:14:18Z</time>
      </trkpt>
      <trkpt lat="49.16028" lon="1.32617">
        <ele>36.8</ele>
        <time>2021-04-21T15:14:20Z</time>
      </trkpt>
      <trkpt lat="49.16031" lon="1.32625">
        <ele>36.6</ele>
        <time>2021-04-21T15:14:21Z</time>
      </trkpt>
      <trkpt lat="49.16036" lon="1.32643">
        <ele>36.2</ele>
        <time>2021-04-21T15:14:23Z</time>
      </trkpt>
      <trkpt lat="49.16036" lon="1.32652">
        <ele>36</ele>
        <time>2021-04-21T15:14:24Z</time>
      </trkpt>
      <trkpt lat="49.16027" lon="1.32678">
        <ele>35</ele>
        <time>2021-04-21T15:14:27Z</time>
      </trkpt>
      <trkpt lat="49.16024" lon="1.32686">
        <ele>34.8</ele>
        <time>2021-04-21T15:14:28Z</time>
      </trkpt>
      <trkpt lat="49.16017" lon="1.32711">
        <ele>33.8</ele>
        <time>2021-04-21T15:14:31Z</time>
      </trkpt>
      <trkpt lat="49.16009" lon="1.32736">
        <ele>32.6</ele>
        <time>2021-04-21T15:14:34Z</time>
      </trkpt>
      <trkpt lat="49.15998" lon="1.32769">
        <ele>31.6</ele>
        <time>2021-04-21T15:14:38Z</time>
      </trkpt>
      <trkpt lat="49.15985" lon="1.3282">
        <ele>30.6</ele>
        <time>2021-04-21T15:14:44Z</time>
      </trkpt>
      <trkpt lat="49.15984" lon="1.32828">
        <ele>30.4</ele>
        <time>2021-04-21T15:14:45Z</time>
      </trkpt>
      <trkpt lat="49.15984" lon="1.32842">
        <ele>30</ele>
        <time>2021-04-21T15:14:48Z</time>
      </trkpt>
      <trkpt lat="49.15984" lon="1.32842">
        <ele>29.6</ele>
        <time>2021-04-21T15:14:50Z</time>
      </trkpt>
      <trkpt lat="49.15984" lon="1.32846">
        <ele>29.6</ele>
        <time>2021-04-21T15:14:54Z</time>
      </trkpt>
      <trkpt lat="49.15984" lon="1.3285">
        <ele>29.6</ele>
        <time>2021-04-21T15:14:55Z</time>
      </trkpt>
      <trkpt lat="49.15983" lon="1.32868">
        <ele>29.4</ele>
        <time>2021-04-21T15:14:58Z</time>
      </trkpt>
      <trkpt lat="49.15982" lon="1.32883">
        <ele>29.2</ele>
        <time>2021-04-21T15:15:00Z</time>
      </trkpt>
      <trkpt lat="49.15982" lon="1.32934">
        <ele>29</ele>
        <time>2021-04-21T15:15:07Z</time>
      </trkpt>
      <trkpt lat="49.15984" lon="1.32941">
        <ele>28.8</ele>
        <time>2021-04-21T15:15:08Z</time>
      </trkpt>
      <trkpt lat="49.15992" lon="1.32947">
        <ele>28.6</ele>
        <time>2021-04-21T15:15:10Z</time>
      </trkpt>
      <trkpt lat="49.15997" lon="1.32947">
        <ele>28.6</ele>
        <time>2021-04-21T15:15:11Z</time>
      </trkpt>
      <trkpt lat="49.16012" lon="1.32948">
        <ele>28.6</ele>
        <time>2021-04-21T15:15:14Z</time>
      </trkpt>
      <trkpt lat="49.1602" lon="1.3295">
        <ele>28.6</ele>
        <time>2021-04-21T15:15:16Z</time>
      </trkpt>
      <trkpt lat="49.1603" lon="1.32951">
        <ele>28.6</ele>
        <time>2021-04-21T15:15:19Z</time>
      </trkpt>
      <trkpt lat="49.16032" lon="1.32949">
        <ele>28.8</ele>
        <time>2021-04-21T15:15:20Z</time>
      </trkpt>
      <trkpt lat="49.16039" lon="1.32934">
        <ele>29</ele>
        <time>2021-04-21T15:15:24Z</time>
      </trkpt>
      <trkpt lat="49.1604" lon="1.32929">
        <ele>29</ele>
        <time>2021-04-21T15:15:25Z</time>
      </trkpt>
      <trkpt lat="49.16054" lon="1.32887">
        <ele>30.4</ele>
        <time>2021-04-21T15:15:34Z</time>
      </trkpt>
      <trkpt lat="49.16065" lon="1.32865">
        <ele>31.6</ele>
        <time>2021-04-21T15:15:39Z</time>
      </trkpt>
      <trkpt lat="49.16073" lon="1.32848">
        <ele>32.4</ele>
        <time>2021-04-21T15:15:43Z</time>
      </trkpt>
      <trkpt lat="49.16077" lon="1.3284">
        <ele>32.6</ele>
        <time>2021-04-21T15:15:45Z</time>
      </trkpt>
      <trkpt lat="49.16084" lon="1.32833">
        <ele>33.2</ele>
        <time>2021-04-21T15:15:48Z</time>
      </trkpt>
      <trkpt lat="49.16086" lon="1.32835">
        <ele>33.2</ele>
        <time>2021-04-21T15:15:49Z</time>
      </trkpt>
      <trkpt lat="49.16085" lon="1.32843">
        <ele>33.6</ele>
        <time>2021-04-21T15:15:52Z</time>
      </trkpt>
      <trkpt lat="49.16084" lon="1.32846">
        <ele>33.8</ele>
        <time>2021-04-21T15:15:53Z</time>
      </trkpt>
      <trkpt lat="49.16083" lon="1.32849">
        <ele>34.2</ele>
        <time>2021-04-21T15:15:54Z</time>
      </trkpt>
      <trkpt lat="49.16082" lon="1.32861">
        <ele>35</ele>
        <time>2021-04-21T15:15:57Z</time>
      </trkpt>
      <trkpt lat="49.1608" lon="1.32869">
        <ele>36</ele>
        <time>2021-04-21T15:15:59Z</time>
      </trkpt>
      <trkpt lat="49.16079" lon="1.32872">
        <ele>36.2</ele>
        <time>2021-04-21T15:16:00Z</time>
      </trkpt>
      <trkpt lat="49.16075" lon="1.32881">
        <ele>36.8</ele>
        <time>2021-04-21T15:16:03Z</time>
      </trkpt>
      <trkpt lat="49.16073" lon="1.32893">
        <ele>37.2</ele>
        <time>2021-04-21T15:16:07Z</time>
      </trkpt>
      <trkpt lat="49.16073" lon="1.32899">
        <ele>37.6</ele>
        <time>2021-04-21T15:16:09Z</time>
      </trkpt>
      <trkpt lat="49.16073" lon="1.32902">
        <ele>37.8</ele>
        <time>2021-04-21T15:16:10Z</time>
      </trkpt>
      <trkpt lat="49.16074" lon="1.32907">
        <ele>38.2</ele>
        <time>2021-04-21T15:16:12Z</time>
      </trkpt>
      <trkpt lat="49.16074" lon="1.32911">
        <ele>38.4</ele>
        <time>2021-04-21T15:16:13Z</time>
      </trkpt>
      <trkpt lat="49.16073" lon="1.32917">
        <ele>39.2</ele>
        <time>2021-04-21T15:16:15Z</time>
      </trkpt>
      <trkpt lat="49.16072" lon="1.32924">
        <ele>39.6</ele>
        <time>2021-04-21T15:16:17Z</time>
      </trkpt>
      <trkpt lat="49.1607" lon="1.32939">
        <ele>40.8</ele>
        <time>2021-04-21T15:16:21Z</time>
      </trkpt>
      <trkpt lat="49.1607" lon="1.32966">
        <ele>41.8</ele>
        <time>2021-04-21T15:16:27Z</time>
      </trkpt>
      <trkpt lat="49.1607" lon="1.3297">
        <ele>42</ele>
        <time>2021-04-21T15:16:28Z</time>
      </trkpt>
      <trkpt lat="49.16072" lon="1.32981">
        <ele>42</ele>
        <time>2021-04-21T15:16:31Z</time>
      </trkpt>
      <trkpt lat="49.16074" lon="1.32984">
        <ele>42</ele>
        <time>2021-04-21T15:16:32Z</time>
      </trkpt>
      <trkpt lat="49.1608" lon="1.32979">
        <ele>42.2</ele>
        <time>2021-04-21T15:16:35Z</time>
      </trkpt>
      <trkpt lat="49.16081" lon="1.32975">
        <ele>42.2</ele>
        <time>2021-04-21T15:16:36Z</time>
      </trkpt>
      <trkpt lat="49.1609" lon="1.32946">
        <ele>42.4</ele>
        <time>2021-04-21T15:16:44Z</time>
      </trkpt>
      <trkpt lat="49.16101" lon="1.32929">
        <ele>43.2</ele>
        <time>2021-04-21T15:16:50Z</time>
      </trkpt>
      <trkpt lat="49.16103" lon="1.32926">
        <ele>43.4</ele>
        <time>2021-04-21T15:16:51Z</time>
      </trkpt>
      <trkpt lat="49.16109" lon="1.32917">
        <ele>44.4</ele>
        <time>2021-04-21T15:16:54Z</time>
      </trkpt>
      <trkpt lat="49.16116" lon="1.32905">
        <ele>45.4</ele>
        <time>2021-04-21T15:16:58Z</time>
      </trkpt>
      <trkpt lat="49.16127" lon="1.32897">
        <ele>45.8</ele>
        <time>2021-04-21T15:17:03Z</time>
      </trkpt>
      <trkpt lat="49.16134" lon="1.32902">
        <ele>46.4</ele>
        <time>2021-04-21T15:17:06Z</time>
      </trkpt>
      <trkpt lat="49.16141" lon="1.32906">
        <ele>47.4</ele>
        <time>2021-04-21T15:17:09Z</time>
      </trkpt>
      <trkpt lat="49.16149" lon="1.32909">
        <ele>48.6</ele>
        <time>2021-04-21T15:17:13Z</time>
      </trkpt>
      <trkpt lat="49.16151" lon="1.32909">
        <ele>49</ele>
        <time>2021-04-21T15:17:14Z</time>
      </trkpt>
      <trkpt lat="49.16156" lon="1.32909">
        <ele>50</ele>
        <time>2021-04-21T15:17:16Z</time>
      </trkpt>
      <trkpt lat="49.16162" lon="1.32909">
        <ele>51</ele>
        <time>2021-04-21T15:17:18Z</time>
      </trkpt>
      <trkpt lat="49.16168" lon="1.32909">
        <ele>52</ele>
        <time>2021-04-21T15:17:20Z</time>
      </trkpt>
      <trkpt lat="49.16174" lon="1.3291">
        <ele>52.4</ele>
        <time>2021-04-21T15:17:22Z</time>
      </trkpt>
      <trkpt lat="49.1618" lon="1.32914">
        <ele>52.4</ele>
        <time>2021-04-21T15:17:24Z</time>
      </trkpt>
      <trkpt lat="49.16185" lon="1.32905">
        <ele>52.4</ele>
        <time>2021-04-21T15:17:27Z</time>
      </trkpt>
      <trkpt lat="49.16186" lon="1.329">
        <ele>52.4</ele>
        <time>2021-04-21T15:17:28Z</time>
      </trkpt>
      <trkpt lat="49.1619" lon="1.32891">
        <ele>52.4</ele>
        <time>2021-04-21T15:17:30Z</time>
      </trkpt>
      <trkpt lat="49.16193" lon="1.32891">
        <ele>52.6</ele>
        <time>2021-04-21T15:17:31Z</time>
      </trkpt>
      <trkpt lat="49.16201" lon="1.329">
        <ele>52.6</ele>
        <time>2021-04-21T15:17:34Z</time>
      </trkpt>
      <trkpt lat="49.1621" lon="1.32904">
        <ele>52.6</ele>
        <time>2021-04-21T15:17:37Z</time>
      </trkpt>
      <trkpt lat="49.16222" lon="1.32895">
        <ele>52.4</ele>
        <time>2021-04-21T15:17:41Z</time>
      </trkpt>
      <trkpt lat="49.16225" lon="1.32893">
        <ele>52.4</ele>
        <time>2021-04-21T15:17:42Z</time>
      </trkpt>
      <trkpt lat="49.16246" lon="1.32887">
        <ele>52.4</ele>
        <time>2021-04-21T15:17:48Z</time>
      </trkpt>
      <trkpt lat="49.16261" lon="1.3288">
        <ele>52.6</ele>
        <time>2021-04-21T15:17:53Z</time>
      </trkpt>
      <trkpt lat="49.16289" lon="1.32876">
        <ele>52.8</ele>
        <time>2021-04-21T15:18:01Z</time>
      </trkpt>
      <trkpt lat="49.16304" lon="1.32883">
        <ele>53</ele>
        <time>2021-04-21T15:18:05Z</time>
      </trkpt>
      <trkpt lat="49.16308" lon="1.32885">
        <ele>53</ele>
        <time>2021-04-21T15:18:06Z</time>
      </trkpt>
      <trkpt lat="49.16329" lon="1.32893">
        <ele>53.2</ele>
        <time>2021-04-21T15:18:11Z</time>
      </trkpt>
      <trkpt lat="49.16352" lon="1.32897">
        <ele>53.2</ele>
        <time>2021-04-21T15:18:16Z</time>
      </trkpt>
      <trkpt lat="49.16366" lon="1.32902">
        <ele>53</ele>
        <time>2021-04-21T15:18:19Z</time>
      </trkpt>
      <trkpt lat="49.16369" lon="1.32902">
        <ele>53</ele>
        <time>2021-04-21T15:18:20Z</time>
      </trkpt>
      <trkpt lat="49.16375" lon="1.32896">
        <ele>53</ele>
        <time>2021-04-21T15:18:22Z</time>
      </trkpt>
      <trkpt lat="49.16389" lon="1.32892">
        <ele>53</ele>
        <time>2021-04-21T15:18:26Z</time>
      </trkpt>
      <trkpt lat="49.16409" lon="1.32892">
        <ele>53</ele>
        <time>2021-04-21T15:18:31Z</time>
      </trkpt>
      <trkpt lat="49.16427" lon="1.32887">
        <ele>53.2</ele>
        <time>2021-04-21T15:18:36Z</time>
      </trkpt>
      <trkpt lat="49.16446" lon="1.32878">
        <ele>53.2</ele>
        <time>2021-04-21T15:18:42Z</time>
      </trkpt>
      <trkpt lat="49.16445" lon="1.3287">
        <ele>53.2</ele>
        <time>2021-04-21T15:18:45Z</time>
      </trkpt>
      <trkpt lat="49.16441" lon="1.32868">
        <ele>53.2</ele>
        <time>2021-04-21T15:18:47Z</time>
      </trkpt>
      <trkpt lat="49.1644" lon="1.32867">
        <ele>53.4</ele>
        <time>2021-04-21T15:18:48Z</time>
      </trkpt>
      <trkpt lat="49.16436" lon="1.32864">
        <ele>53.6</ele>
        <time>2021-04-21T15:18:50Z</time>
      </trkpt>
      <trkpt lat="49.1643" lon="1.32862">
        <ele>54.6</ele>
        <time>2021-04-21T15:18:53Z</time>
      </trkpt>
      <trkpt lat="49.16425" lon="1.32859">
        <ele>55.6</ele>
        <time>2021-04-21T15:18:56Z</time>
      </trkpt>
      <trkpt lat="49.16423" lon="1.32858">
        <ele>55.8</ele>
        <time>2021-04-21T15:18:57Z</time>
      </trkpt>
      <trkpt lat="49.16416" lon="1.32854">
        <ele>56.8</ele>
        <time>2021-04-21T15:19:01Z</time>
      </trkpt>
      <trkpt lat="49.16414" lon="1.32853">
        <ele>57</ele>
        <time>2021-04-21T15:19:02Z</time>
      </trkpt>
      <trkpt lat="49.16404" lon="1.3285">
        <ele>58.4</ele>
        <time>2021-04-21T15:19:07Z</time>
      </trkpt>
      <trkpt lat="49.16394" lon="1.32847">
        <ele>59.4</ele>
        <time>2021-04-21T15:19:12Z</time>
      </trkpt>
      <trkpt lat="49.16392" lon="1.32846">
        <ele>59.6</ele>
        <time>2021-04-21T15:19:13Z</time>
      </trkpt>
      <trkpt lat="49.16385" lon="1.32841">
        <ele>60.4</ele>
        <time>2021-04-21T15:19:17Z</time>
      </trkpt>
      <trkpt lat="49.16382" lon="1.32834">
        <ele>61.2</ele>
        <time>2021-04-21T15:19:20Z</time>
      </trkpt>
      <trkpt lat="49.16381" lon="1.32829">
        <ele>61.6</ele>
        <time>2021-04-21T15:19:22Z</time>
      </trkpt>
      <trkpt lat="49.1638" lon="1.32824">
        <ele>61.8</ele>
        <time>2021-04-21T15:19:24Z</time>
      </trkpt>
      <trkpt lat="49.16381" lon="1.32822">
        <ele>62</ele>
        <time>2021-04-21T15:19:25Z</time>
      </trkpt>
      <trkpt lat="49.16383" lon="1.32819">
        <ele>62.6</ele>
        <time>2021-04-21T15:19:27Z</time>
      </trkpt>
      <trkpt lat="49.16387" lon="1.32816">
        <ele>63.6</ele>
        <time>2021-04-21T15:19:30Z</time>
      </trkpt>
      <trkpt lat="49.16388" lon="1.32815">
        <ele>63.8</ele>
        <time>2021-04-21T15:19:31Z</time>
      </trkpt>
      <trkpt lat="49.16394" lon="1.32811">
        <ele>65</ele>
        <time>2021-04-21T15:19:36Z</time>
      </trkpt>
      <trkpt lat="49.16401" lon="1.32809">
        <ele>66</ele>
        <time>2021-04-21T15:19:42Z</time>
      </trkpt>
      <trkpt lat="49.16401" lon="1.32809">
        <ele>66.2</ele>
        <time>2021-04-21T15:19:43Z</time>
      </trkpt>
      <trkpt lat="49.16405" lon="1.32806">
        <ele>67.2</ele>
        <time>2021-04-21T15:19:47Z</time>
      </trkpt>
      <trkpt lat="49.16408" lon="1.32804">
        <ele>67.6</ele>
        <time>2021-04-21T15:19:49Z</time>
      </trkpt>
      <trkpt lat="49.16412" lon="1.32799">
        <ele>68.2</ele>
        <time>2021-04-21T15:19:52Z</time>
      </trkpt>
      <trkpt lat="49.16414" lon="1.32797">
        <ele>68.6</ele>
        <time>2021-04-21T15:19:53Z</time>
      </trkpt>
      <trkpt lat="49.16416" lon="1.32793">
        <ele>69</ele>
        <time>2021-04-21T15:19:55Z</time>
      </trkpt>
      <trkpt lat="49.16419" lon="1.3279">
        <ele>69.6</ele>
        <time>2021-04-21T15:19:57Z</time>
      </trkpt>
      <trkpt lat="49.16421" lon="1.32789">
        <ele>69.8</ele>
        <time>2021-04-21T15:19:58Z</time>
      </trkpt>
      <trkpt lat="49.16427" lon="1.32784">
        <ele>70.8</ele>
        <time>2021-04-21T15:20:01Z</time>
      </trkpt>
      <trkpt lat="49.16433" lon="1.32777">
        <ele>72</ele>
        <time>2021-04-21T15:20:05Z</time>
      </trkpt>
      <trkpt lat="49.16438" lon="1.32769">
        <ele>72.4</ele>
        <time>2021-04-21T15:20:09Z</time>
      </trkpt>
      <trkpt lat="49.16442" lon="1.32762">
        <ele>73</ele>
        <time>2021-04-21T15:20:13Z</time>
      </trkpt>
      <trkpt lat="49.16446" lon="1.32756">
        <ele>73.4</ele>
        <time>2021-04-21T15:20:16Z</time>
      </trkpt>
      <trkpt lat="49.16449" lon="1.3275">
        <ele>74.2</ele>
        <time>2021-04-21T15:20:19Z</time>
      </trkpt>
      <trkpt lat="49.16453" lon="1.3274">
        <ele>75.2</ele>
        <time>2021-04-21T15:20:24Z</time>
      </trkpt>
      <trkpt lat="49.16454" lon="1.32738">
        <ele>75.4</ele>
        <time>2021-04-21T15:20:25Z</time>
      </trkpt>
      <trkpt lat="49.16457" lon="1.3273">
        <ele>76.4</ele>
        <time>2021-04-21T15:20:29Z</time>
      </trkpt>
      <trkpt lat="49.1646" lon="1.32724">
        <ele>77.6</ele>
        <time>2021-04-21T15:20:32Z</time>
      </trkpt>
      <trkpt lat="49.16462" lon="1.32721">
        <ele>78.6</ele>
        <time>2021-04-21T15:20:34Z</time>
      </trkpt>
      <trkpt lat="49.16464" lon="1.32715">
        <ele>79.6</ele>
        <time>2021-04-21T15:20:37Z</time>
      </trkpt>
      <trkpt lat="49.16465" lon="1.32714">
        <ele>80</ele>
        <time>2021-04-21T15:20:38Z</time>
      </trkpt>
      <trkpt lat="49.16468" lon="1.32713">
        <ele>80.6</ele>
        <time>2021-04-21T15:20:40Z</time>
      </trkpt>
      <trkpt lat="49.16471" lon="1.32712">
        <ele>81.2</ele>
        <time>2021-04-21T15:20:42Z</time>
      </trkpt>
      <trkpt lat="49.16476" lon="1.3271">
        <ele>82.4</ele>
        <time>2021-04-21T15:20:46Z</time>
      </trkpt>
      <trkpt lat="49.1648" lon="1.32708">
        <ele>82.8</ele>
        <time>2021-04-21T15:20:48Z</time>
      </trkpt>
      <trkpt lat="49.16484" lon="1.32705">
        <ele>83.2</ele>
        <time>2021-04-21T15:20:51Z</time>
      </trkpt>
      <trkpt lat="49.16486" lon="1.32701">
        <ele>83.4</ele>
        <time>2021-04-21T15:20:53Z</time>
      </trkpt>
      <trkpt lat="49.16487" lon="1.32699">
        <ele>83.8</ele>
        <time>2021-04-21T15:20:55Z</time>
      </trkpt>
      <trkpt lat="49.1649" lon="1.32696">
        <ele>84.2</ele>
        <time>2021-04-21T15:20:58Z</time>
      </trkpt>
      <trkpt lat="49.16493" lon="1.32691">
        <ele>84.8</ele>
        <time>2021-04-21T15:21:02Z</time>
      </trkpt>
      <trkpt lat="49.16494" lon="1.32688">
        <ele>85.2</ele>
        <time>2021-04-21T15:21:04Z</time>
      </trkpt>
      <trkpt lat="49.16497" lon="1.32681">
        <ele>86</ele>
        <time>2021-04-21T15:21:07Z</time>
      </trkpt>
      <trkpt lat="49.16497" lon="1.32678">
        <ele>86.4</ele>
        <time>2021-04-21T15:21:08Z</time>
      </trkpt>
      <trkpt lat="49.16499" lon="1.32674">
        <ele>86.8</ele>
        <time>2021-04-21T15:21:10Z</time>
      </trkpt>
      <trkpt lat="49.165" lon="1.32671">
        <ele>87.2</ele>
        <time>2021-04-21T15:21:11Z</time>
      </trkpt>
      <trkpt lat="49.16504" lon="1.32663">
        <ele>88.4</ele>
        <time>2021-04-21T15:21:15Z</time>
      </trkpt>
      <trkpt lat="49.16505" lon="1.32662">
        <ele>88.6</ele>
        <time>2021-04-21T15:21:16Z</time>
      </trkpt>
      <trkpt lat="49.16508" lon="1.32659">
        <ele>89</ele>
        <time>2021-04-21T15:21:18Z</time>
      </trkpt>
      <trkpt lat="49.1651" lon="1.32662">
        <ele>89.4</ele>
        <time>2021-04-21T15:21:21Z</time>
      </trkpt>
      <trkpt lat="49.16511" lon="1.32665">
        <ele>89.4</ele>
        <time>2021-04-21T15:21:22Z</time>
      </trkpt>
      <trkpt lat="49.16518" lon="1.3267">
        <ele>89.6</ele>
        <time>2021-04-21T15:21:25Z</time>
      </trkpt>
      <trkpt lat="49.16524" lon="1.32673">
        <ele>89.6</ele>
        <time>2021-04-21T15:21:27Z</time>
      </trkpt>
      <trkpt lat="49.1653" lon="1.32678">
        <ele>89.6</ele>
        <time>2021-04-21T15:21:29Z</time>
      </trkpt>
      <trkpt lat="49.16537" lon="1.32693">
        <ele>89.6</ele>
        <time>2021-04-21T15:21:33Z</time>
      </trkpt>
      <trkpt lat="49.16539" lon="1.32695">
        <ele>89.2</ele>
        <time>2021-04-21T15:21:35Z</time>
      </trkpt>
      <trkpt lat="49.16541" lon="1.32693">
        <ele>88.8</ele>
        <time>2021-04-21T15:21:37Z</time>
      </trkpt>
      <trkpt lat="49.16541" lon="1.32693">
        <ele>88.4</ele>
        <time>2021-04-21T15:21:38Z</time>
      </trkpt>
      <trkpt lat="49.16541" lon="1.32692">
        <ele>87.8</ele>
        <time>2021-04-21T15:21:40Z</time>
      </trkpt>
      <trkpt lat="49.16544" lon="1.32688">
        <ele>85</ele>
        <time>2021-04-21T15:22:38Z</time>
      </trkpt>
      <trkpt lat="49.16546" lon="1.32683">
        <ele>85</ele>
        <time>2021-04-21T15:22:41Z</time>
      </trkpt>
      <trkpt lat="49.16549" lon="1.32676">
        <ele>85</ele>
        <time>2021-04-21T15:22:46Z</time>
      </trkpt>
      <trkpt lat="49.1655" lon="1.32673">
        <ele>85.2</ele>
        <time>2021-04-21T15:22:48Z</time>
      </trkpt>
      <trkpt lat="49.16554" lon="1.32671">
        <ele>85.8</ele>
        <time>2021-04-21T15:22:51Z</time>
      </trkpt>
      <trkpt lat="49.16555" lon="1.32671">
        <ele>86</ele>
        <time>2021-04-21T15:22:52Z</time>
      </trkpt>
      <trkpt lat="49.16558" lon="1.32668">
        <ele>86.6</ele>
        <time>2021-04-21T15:22:54Z</time>
      </trkpt>
      <trkpt lat="49.16558" lon="1.32666">
        <ele>87.2</ele>
        <time>2021-04-21T15:22:55Z</time>
      </trkpt>
      <trkpt lat="49.16558" lon="1.32665">
        <ele>87.6</ele>
        <time>2021-04-21T15:22:56Z</time>
      </trkpt>
      <trkpt lat="49.16557" lon="1.32661">
        <ele>88.6</ele>
        <time>2021-04-21T15:22:59Z</time>
      </trkpt>
      <trkpt lat="49.16556" lon="1.3266">
        <ele>88.8</ele>
        <time>2021-04-21T15:23:00Z</time>
      </trkpt>
      <trkpt lat="49.16555" lon="1.32656">
        <ele>89.2</ele>
        <time>2021-04-21T15:23:02Z</time>
      </trkpt>
      <trkpt lat="49.16555" lon="1.32654">
        <ele>89.6</ele>
        <time>2021-04-21T15:23:03Z</time>
      </trkpt>
      <trkpt lat="49.16558" lon="1.32645">
        <ele>90.8</ele>
        <time>2021-04-21T15:23:08Z</time>
      </trkpt>
      <trkpt lat="49.16559" lon="1.32634">
        <ele>91.6</ele>
        <time>2021-04-21T15:23:12Z</time>
      </trkpt>
      <trkpt lat="49.16558" lon="1.32631">
        <ele>91.8</ele>
        <time>2021-04-21T15:23:13Z</time>
      </trkpt>
      <trkpt lat="49.16557" lon="1.3263">
        <ele>92</ele>
        <time>2021-04-21T15:23:14Z</time>
      </trkpt>
      <trkpt lat="49.16553" lon="1.32622">
        <ele>92.8</ele>
        <time>2021-04-21T15:23:18Z</time>
      </trkpt>
      <trkpt lat="49.16553" lon="1.32619">
        <ele>93</ele>
        <time>2021-04-21T15:23:19Z</time>
      </trkpt>
      <trkpt lat="49.16554" lon="1.32616">
        <ele>93.2</ele>
        <time>2021-04-21T15:23:21Z</time>
      </trkpt>
      <trkpt lat="49.16556" lon="1.32612">
        <ele>93.8</ele>
        <time>2021-04-21T15:23:23Z</time>
      </trkpt>
      <trkpt lat="49.16556" lon="1.32611">
        <ele>94</ele>
        <time>2021-04-21T15:23:24Z</time>
      </trkpt>
      <trkpt lat="49.16558" lon="1.32608">
        <ele>94.6</ele>
        <time>2021-04-21T15:23:26Z</time>
      </trkpt>
      <trkpt lat="49.16561" lon="1.32606">
        <ele>95.2</ele>
        <time>2021-04-21T15:23:28Z</time>
      </trkpt>
      <trkpt lat="49.16564" lon="1.32603">
        <ele>95.6</ele>
        <time>2021-04-21T15:23:30Z</time>
      </trkpt>
      <trkpt lat="49.16569" lon="1.32599">
        <ele>96</ele>
        <time>2021-04-21T15:23:33Z</time>
      </trkpt>
      <trkpt lat="49.16571" lon="1.32596">
        <ele>96.4</ele>
        <time>2021-04-21T15:23:35Z</time>
      </trkpt>
      <trkpt lat="49.16573" lon="1.32592">
        <ele>96.6</ele>
        <time>2021-04-21T15:23:37Z</time>
      </trkpt>
      <trkpt lat="49.16579" lon="1.32587">
        <ele>96.8</ele>
        <time>2021-04-21T15:23:41Z</time>
      </trkpt>
      <trkpt lat="49.16586" lon="1.32583">
        <ele>97.4</ele>
        <time>2021-04-21T15:23:45Z</time>
      </trkpt>
      <trkpt lat="49.16588" lon="1.32581">
        <ele>97.8</ele>
        <time>2021-04-21T15:23:47Z</time>
      </trkpt>
      <trkpt lat="49.16594" lon="1.32577">
        <ele>98.4</ele>
        <time>2021-04-21T15:23:51Z</time>
      </trkpt>
      <trkpt lat="49.16597" lon="1.32573">
        <ele>98.8</ele>
        <time>2021-04-21T15:23:53Z</time>
      </trkpt>
      <trkpt lat="49.16604" lon="1.32567">
        <ele>99.4</ele>
        <time>2021-04-21T15:23:58Z</time>
      </trkpt>
      <trkpt lat="49.16605" lon="1.32566">
        <ele>99.6</ele>
        <time>2021-04-21T15:23:59Z</time>
      </trkpt>
      <trkpt lat="49.16614" lon="1.32559">
        <ele>100.2</ele>
        <time>2021-04-21T15:24:04Z</time>
      </trkpt>
      <trkpt lat="49.16618" lon="1.32557">
        <ele>100.6</ele>
        <time>2021-04-21T15:24:06Z</time>
      </trkpt>
      <trkpt lat="49.1662" lon="1.32556">
        <ele>100.8</ele>
        <time>2021-04-21T15:24:07Z</time>
      </trkpt>
      <trkpt lat="49.16623" lon="1.32552">
        <ele>101</ele>
        <time>2021-04-21T15:24:09Z</time>
      </trkpt>
      <trkpt lat="49.16624" lon="1.3255">
        <ele>101.2</ele>
        <time>2021-04-21T15:24:10Z</time>
      </trkpt>
      <trkpt lat="49.16629" lon="1.32542">
        <ele>101.6</ele>
        <time>2021-04-21T15:24:15Z</time>
      </trkpt>
      <trkpt lat="49.1663" lon="1.32541">
        <ele>101.8</ele>
        <time>2021-04-21T15:24:16Z</time>
      </trkpt>
      <trkpt lat="49.16638" lon="1.3253">
        <ele>102.8</ele>
        <time>2021-04-21T15:24:21Z</time>
      </trkpt>
      <trkpt lat="49.1664" lon="1.32528">
        <ele>103</ele>
        <time>2021-04-21T15:24:22Z</time>
      </trkpt>
      <trkpt lat="49.16646" lon="1.32526">
        <ele>103.4</ele>
        <time>2021-04-21T15:24:25Z</time>
      </trkpt>
      <trkpt lat="49.16651" lon="1.3252">
        <ele>103.6</ele>
        <time>2021-04-21T15:24:28Z</time>
      </trkpt>
      <trkpt lat="49.16652" lon="1.32518">
        <ele>103.6</ele>
        <time>2021-04-21T15:24:29Z</time>
      </trkpt>
      <trkpt lat="49.16655" lon="1.32514">
        <ele>103.6</ele>
        <time>2021-04-21T15:24:31Z</time>
      </trkpt>
      <trkpt lat="49.16658" lon="1.3251">
        <ele>103.6</ele>
        <time>2021-04-21T15:24:33Z</time>
      </trkpt>
      <trkpt lat="49.16659" lon="1.32507">
        <ele>103.8</ele>
        <time>2021-04-21T15:24:34Z</time>
      </trkpt>
      <trkpt lat="49.16664" lon="1.32498">
        <ele>104.4</ele>
        <time>2021-04-21T15:24:37Z</time>
      </trkpt>
      <trkpt lat="49.16667" lon="1.32494">
        <ele>104.8</ele>
        <time>2021-04-21T15:24:39Z</time>
      </trkpt>
      <trkpt lat="49.16673" lon="1.32485">
        <ele>105.4</ele>
        <time>2021-04-21T15:24:43Z</time>
      </trkpt>
      <trkpt lat="49.16676" lon="1.32481">
        <ele>105.8</ele>
        <time>2021-04-21T15:24:45Z</time>
      </trkpt>
      <trkpt lat="49.16683" lon="1.32471">
        <ele>107</ele>
        <time>2021-04-21T15:24:49Z</time>
      </trkpt>
      <trkpt lat="49.16688" lon="1.32465">
        <ele>107.4</ele>
        <time>2021-04-21T15:24:52Z</time>
      </trkpt>
      <trkpt lat="49.16693" lon="1.32458">
        <ele>108</ele>
        <time>2021-04-21T15:24:55Z</time>
      </trkpt>
      <trkpt lat="49.16698" lon="1.3245">
        <ele>108.4</ele>
        <time>2021-04-21T15:24:58Z</time>
      </trkpt>
      <trkpt lat="49.16704" lon="1.32439">
        <ele>109</ele>
        <time>2021-04-21T15:25:02Z</time>
      </trkpt>
      <trkpt lat="49.16706" lon="1.32436">
        <ele>109.2</ele>
        <time>2021-04-21T15:25:03Z</time>
      </trkpt>
      <trkpt lat="49.16707" lon="1.32432">
        <ele>109.4</ele>
        <time>2021-04-21T15:25:04Z</time>
      </trkpt>
      <trkpt lat="49.16706" lon="1.32422">
        <ele>110</ele>
        <time>2021-04-21T15:25:08Z</time>
      </trkpt>
      <trkpt lat="49.16706" lon="1.32421">
        <ele>110.2</ele>
        <time>2021-04-21T15:25:09Z</time>
      </trkpt>
      <trkpt lat="49.16706" lon="1.32418">
        <ele>110.4</ele>
        <time>2021-04-21T15:25:10Z</time>
      </trkpt>
      <trkpt lat="49.16706" lon="1.32412">
        <ele>110.6</ele>
        <time>2021-04-21T15:25:12Z</time>
      </trkpt>
      <trkpt lat="49.16708" lon="1.3241">
        <ele>110.8</ele>
        <time>2021-04-21T15:25:13Z</time>
      </trkpt>
      <trkpt lat="49.16711" lon="1.32406">
        <ele>111.2</ele>
        <time>2021-04-21T15:25:15Z</time>
      </trkpt>
      <trkpt lat="49.16719" lon="1.32398">
        <ele>112.2</ele>
        <time>2021-04-21T15:25:19Z</time>
      </trkpt>
      <trkpt lat="49.16728" lon="1.32386">
        <ele>112.6</ele>
        <time>2021-04-21T15:25:24Z</time>
      </trkpt>
      <trkpt lat="49.16729" lon="1.32384">
        <ele>112.6</ele>
        <time>2021-04-21T15:25:25Z</time>
      </trkpt>
      <trkpt lat="49.16739" lon="1.32382">
        <ele>112.8</ele>
        <time>2021-04-21T15:25:30Z</time>
      </trkpt>
      <trkpt lat="49.16747" lon="1.32371">
        <ele>113</ele>
        <time>2021-04-21T15:25:35Z</time>
      </trkpt>
      <trkpt lat="49.16757" lon="1.32355">
        <ele>113</ele>
        <time>2021-04-21T15:25:41Z</time>
      </trkpt>
      <trkpt lat="49.16759" lon="1.32353">
        <ele>113.2</ele>
        <time>2021-04-21T15:25:42Z</time>
      </trkpt>
      <trkpt lat="49.16765" lon="1.32345">
        <ele>113.2</ele>
        <time>2021-04-21T15:25:45Z</time>
      </trkpt>
      <trkpt lat="49.16768" lon="1.3234">
        <ele>113.2</ele>
        <time>2021-04-21T15:25:47Z</time>
      </trkpt>
      <trkpt lat="49.16771" lon="1.32336">
        <ele>113.2</ele>
        <time>2021-04-21T15:25:49Z</time>
      </trkpt>
      <trkpt lat="49.16772" lon="1.32334">
        <ele>113.2</ele>
        <time>2021-04-21T15:25:50Z</time>
      </trkpt>
      <trkpt lat="49.16777" lon="1.32321">
        <ele>113.6</ele>
        <time>2021-04-21T15:25:54Z</time>
      </trkpt>
      <trkpt lat="49.16777" lon="1.32319">
        <ele>113.8</ele>
        <time>2021-04-21T15:25:55Z</time>
      </trkpt>
      <trkpt lat="49.16777" lon="1.3231">
        <ele>114.2</ele>
        <time>2021-04-21T15:25:58Z</time>
      </trkpt>
      <trkpt lat="49.16775" lon="1.32301">
        <ele>114.8</ele>
        <time>2021-04-21T15:26:01Z</time>
      </trkpt>
      <trkpt lat="49.16772" lon="1.32295">
        <ele>115.4</ele>
        <time>2021-04-21T15:26:03Z</time>
      </trkpt>
      <trkpt lat="49.1677" lon="1.32293">
        <ele>115.4</ele>
        <time>2021-04-21T15:26:04Z</time>
      </trkpt>
      <trkpt lat="49.16768" lon="1.32292">
        <ele>116</ele>
        <time>2021-04-21T15:26:06Z</time>
      </trkpt>
      <trkpt lat="49.16767" lon="1.32289">
        <ele>116.2</ele>
        <time>2021-04-21T15:26:09Z</time>
      </trkpt>
      <trkpt lat="49.16765" lon="1.3229">
        <ele>116.2</ele>
        <time>2021-04-21T15:26:56Z</time>
      </trkpt>
      <trkpt lat="49.16765" lon="1.32292">
        <ele>116.2</ele>
        <time>2021-04-21T15:26:57Z</time>
      </trkpt>
      <trkpt lat="49.16771" lon="1.32299">
        <ele>116</ele>
        <time>2021-04-21T15:27:02Z</time>
      </trkpt>
      <trkpt lat="49.16764" lon="1.32308">
        <ele>116</ele>
        <time>2021-04-21T15:27:05Z</time>
      </trkpt>
      <trkpt lat="49.16757" lon="1.32316">
        <ele>115.6</ele>
        <time>2021-04-21T15:27:09Z</time>
      </trkpt>
      <trkpt lat="49.16754" lon="1.3232">
        <ele>115.6</ele>
        <time>2021-04-21T15:27:10Z</time>
      </trkpt>
      <trkpt lat="49.16745" lon="1.32335">
        <ele>114.2</ele>
        <time>2021-04-21T15:27:13Z</time>
      </trkpt>
      <trkpt lat="49.16742" lon="1.32343">
        <ele>113.8</ele>
        <time>2021-04-21T15:27:15Z</time>
      </trkpt>
      <trkpt lat="49.1674" lon="1.32345">
        <ele>113.4</ele>
        <time>2021-04-21T15:27:16Z</time>
      </trkpt>
      <trkpt lat="49.16735" lon="1.32344">
        <ele>113.2</ele>
        <time>2021-04-21T15:27:18Z</time>
      </trkpt>
      <trkpt lat="49.16732" lon="1.32344">
        <ele>113</ele>
        <time>2021-04-21T15:27:19Z</time>
      </trkpt>
      <trkpt lat="49.16719" lon="1.32346">
        <ele>113</ele>
        <time>2021-04-21T15:27:24Z</time>
      </trkpt>
      <trkpt lat="49.16705" lon="1.32349">
        <ele>113</ele>
        <time>2021-04-21T15:27:29Z</time>
      </trkpt>
      <trkpt lat="49.16702" lon="1.3235">
        <ele>113</ele>
        <time>2021-04-21T15:27:30Z</time>
      </trkpt>
      <trkpt lat="49.16692" lon="1.32357">
        <ele>113</ele>
        <time>2021-04-21T15:27:33Z</time>
      </trkpt>
      <trkpt lat="49.16689" lon="1.32361">
        <ele>113</ele>
        <time>2021-04-21T15:27:34Z</time>
      </trkpt>
      <trkpt lat="49.16682" lon="1.32369">
        <ele>113</ele>
        <time>2021-04-21T15:27:36Z</time>
      </trkpt>
      <trkpt lat="49.16677" lon="1.32384">
        <ele>112.2</ele>
        <time>2021-04-21T15:27:40Z</time>
      </trkpt>
      <trkpt lat="49.16678" lon="1.32386">
        <ele>112</ele>
        <time>2021-04-21T15:27:41Z</time>
      </trkpt>
      <trkpt lat="49.16678" lon="1.32387">
        <ele>111.6</ele>
        <time>2021-04-21T15:27:42Z</time>
      </trkpt>
      <trkpt lat="49.16678" lon="1.32388">
        <ele>111</ele>
        <time>2021-04-21T15:27:44Z</time>
      </trkpt>
      <trkpt lat="49.1668" lon="1.32391">
        <ele>110</ele>
        <time>2021-04-21T15:27:55Z</time>
      </trkpt>
      <trkpt lat="49.1669" lon="1.32396">
        <ele>110</ele>
        <time>2021-04-21T15:28:00Z</time>
      </trkpt>
      <trkpt lat="49.16688" lon="1.32405">
        <ele>110</ele>
        <time>2021-04-21T15:28:03Z</time>
      </trkpt>
      <trkpt lat="49.16686" lon="1.32408">
        <ele>110</ele>
        <time>2021-04-21T15:28:04Z</time>
      </trkpt>
      <trkpt lat="49.16683" lon="1.32411">
        <ele>110</ele>
        <time>2021-04-21T15:28:05Z</time>
      </trkpt>
      <trkpt lat="49.16679" lon="1.32413">
        <ele>110</ele>
        <time>2021-04-21T15:28:06Z</time>
      </trkpt>
      <trkpt lat="49.16665" lon="1.32423">
        <ele>110</ele>
        <time>2021-04-21T15:28:09Z</time>
      </trkpt>
      <trkpt lat="49.16661" lon="1.32428">
        <ele>110</ele>
        <time>2021-04-21T15:28:10Z</time>
      </trkpt>
      <trkpt lat="49.16652" lon="1.32436">
        <ele>110</ele>
        <time>2021-04-21T15:28:12Z</time>
      </trkpt>
      <trkpt lat="49.16643" lon="1.32446">
        <ele>109.8</ele>
        <time>2021-04-21T15:28:14Z</time>
      </trkpt>
      <trkpt lat="49.16628" lon="1.32464">
        <ele>108.6</ele>
        <time>2021-04-21T15:28:17Z</time>
      </trkpt>
      <trkpt lat="49.16619" lon="1.32476">
        <ele>108</ele>
        <time>2021-04-21T15:28:20Z</time>
      </trkpt>
      <trkpt lat="49.16607" lon="1.32487">
        <ele>107.4</ele>
        <time>2021-04-21T15:28:23Z</time>
      </trkpt>
      <trkpt lat="49.16603" lon="1.32491">
        <ele>107</ele>
        <time>2021-04-21T15:28:24Z</time>
      </trkpt>
      <trkpt lat="49.16593" lon="1.32498">
        <ele>106.2</ele>
        <time>2021-04-21T15:28:26Z</time>
      </trkpt>
      <trkpt lat="49.16583" lon="1.32506">
        <ele>105.8</ele>
        <time>2021-04-21T15:28:28Z</time>
      </trkpt>
      <trkpt lat="49.16572" lon="1.32514">
        <ele>105.2</ele>
        <time>2021-04-21T15:28:30Z</time>
      </trkpt>
      <trkpt lat="49.16567" lon="1.32516">
        <ele>104.6</ele>
        <time>2021-04-21T15:28:31Z</time>
      </trkpt>
      <trkpt lat="49.16563" lon="1.3252">
        <ele>104.2</ele>
        <time>2021-04-21T15:28:32Z</time>
      </trkpt>
      <trkpt lat="49.1656" lon="1.32522">
        <ele>103.8</ele>
        <time>2021-04-21T15:28:33Z</time>
      </trkpt>
      <trkpt lat="49.16555" lon="1.32526">
        <ele>103</ele>
        <time>2021-04-21T15:28:35Z</time>
      </trkpt>
      <trkpt lat="49.16552" lon="1.32529">
        <ele>102.4</ele>
        <time>2021-04-21T15:28:36Z</time>
      </trkpt>
      <trkpt lat="49.16547" lon="1.32536">
        <ele>101.2</ele>
        <time>2021-04-21T15:28:37Z</time>
      </trkpt>
      <trkpt lat="49.16542" lon="1.32544">
        <ele>100.8</ele>
        <time>2021-04-21T15:28:38Z</time>
      </trkpt>
      <trkpt lat="49.16534" lon="1.32562">
        <ele>100</ele>
        <time>2021-04-21T15:28:40Z</time>
      </trkpt>
      <trkpt lat="49.1653" lon="1.32569">
        <ele>99.8</ele>
        <time>2021-04-21T15:28:41Z</time>
      </trkpt>
      <trkpt lat="49.16526" lon="1.32574">
        <ele>99.8</ele>
        <time>2021-04-21T15:28:42Z</time>
      </trkpt>
      <trkpt lat="49.16521" lon="1.32583">
        <ele>99</ele>
        <time>2021-04-21T15:28:44Z</time>
      </trkpt>
      <trkpt lat="49.1652" lon="1.32584">
        <ele>97.8</ele>
        <time>2021-04-21T15:28:45Z</time>
      </trkpt>
      <trkpt lat="49.16519" lon="1.32585">
        <ele>96.6</ele>
        <time>2021-04-21T15:28:46Z</time>
      </trkpt>
      <trkpt lat="49.16518" lon="1.32585">
        <ele>95.4</ele>
        <time>2021-04-21T15:28:47Z</time>
      </trkpt>
      <trkpt lat="49.16515" lon="1.32589">
        <ele>93.6</ele>
        <time>2021-04-21T15:28:52Z</time>
      </trkpt>
      <trkpt lat="49.16515" lon="1.3259">
        <ele>93.4</ele>
        <time>2021-04-21T15:28:54Z</time>
      </trkpt>
      <trkpt lat="49.16516" lon="1.32593">
        <ele>93.2</ele>
        <time>2021-04-21T15:28:58Z</time>
      </trkpt>
      <trkpt lat="49.16519" lon="1.32594">
        <ele>93.2</ele>
        <time>2021-04-21T15:29:03Z</time>
      </trkpt>
      <trkpt lat="49.1652" lon="1.32594">
        <ele>93.2</ele>
        <time>2021-04-21T15:29:04Z</time>
      </trkpt>
      <trkpt lat="49.16524" lon="1.32596">
        <ele>93.4</ele>
        <time>2021-04-21T15:29:08Z</time>
      </trkpt>
      <trkpt lat="49.16526" lon="1.32596">
        <ele>93.4</ele>
        <time>2021-04-21T15:29:09Z</time>
      </trkpt>
      <trkpt lat="49.16531" lon="1.32591">
        <ele>93.8</ele>
        <time>2021-04-21T15:29:12Z</time>
      </trkpt>
      <trkpt lat="49.16536" lon="1.32586">
        <ele>94.2</ele>
        <time>2021-04-21T15:29:15Z</time>
      </trkpt>
      <trkpt lat="49.16541" lon="1.32581">
        <ele>94.6</ele>
        <time>2021-04-21T15:29:18Z</time>
      </trkpt>
      <trkpt lat="49.16543" lon="1.32577">
        <ele>95</ele>
        <time>2021-04-21T15:29:20Z</time>
      </trkpt>
      <trkpt lat="49.16545" lon="1.32572">
        <ele>95.4</ele>
        <time>2021-04-21T15:29:22Z</time>
      </trkpt>
      <trkpt lat="49.16547" lon="1.32569">
        <ele>95.6</ele>
        <time>2021-04-21T15:29:24Z</time>
      </trkpt>
      <trkpt lat="49.16548" lon="1.32566">
        <ele>95.8</ele>
        <time>2021-04-21T15:29:25Z</time>
      </trkpt>
      <trkpt lat="49.16553" lon="1.32551">
        <ele>96.8</ele>
        <time>2021-04-21T15:29:30Z</time>
      </trkpt>
      <trkpt lat="49.1656" lon="1.32541">
        <ele>97.6</ele>
        <time>2021-04-21T15:29:35Z</time>
      </trkpt>
      <trkpt lat="49.16562" lon="1.32538">
        <ele>97.8</ele>
        <time>2021-04-21T15:29:36Z</time>
      </trkpt>
      <trkpt lat="49.16564" lon="1.32536">
        <ele>97.8</ele>
        <time>2021-04-21T15:29:37Z</time>
      </trkpt>
      <trkpt lat="49.16572" lon="1.32529">
        <ele>98.8</ele>
        <time>2021-04-21T15:29:41Z</time>
      </trkpt>
      <trkpt lat="49.16575" lon="1.32525">
        <ele>99.8</ele>
        <time>2021-04-21T15:29:44Z</time>
      </trkpt>
      <trkpt lat="49.16576" lon="1.32523">
        <ele>102</ele>
        <time>2021-04-21T15:30:03Z</time>
      </trkpt>
      <trkpt lat="49.16578" lon="1.32521">
        <ele>102</ele>
        <time>2021-04-21T15:30:04Z</time>
      </trkpt>
      <trkpt lat="49.16582" lon="1.32514">
        <ele>102</ele>
        <time>2021-04-21T15:30:07Z</time>
      </trkpt>
      <trkpt lat="49.1659" lon="1.32502">
        <ele>102</ele>
        <time>2021-04-21T15:30:12Z</time>
      </trkpt>
      <trkpt lat="49.16597" lon="1.32492">
        <ele>102</ele>
        <time>2021-04-21T15:30:17Z</time>
      </trkpt>
      <trkpt lat="49.166" lon="1.32489">
        <ele>102</ele>
        <time>2021-04-21T15:30:19Z</time>
      </trkpt>
      <trkpt lat="49.16607" lon="1.32481">
        <ele>102.2</ele>
        <time>2021-04-21T15:30:23Z</time>
      </trkpt>
      <trkpt lat="49.16612" lon="1.3248">
        <ele>103</ele>
        <time>2021-04-21T15:30:26Z</time>
      </trkpt>
      <trkpt lat="49.16615" lon="1.3248">
        <ele>103.2</ele>
        <time>2021-04-21T15:30:27Z</time>
      </trkpt>
      <trkpt lat="49.16621" lon="1.32472">
        <ele>104.4</ele>
        <time>2021-04-21T15:30:30Z</time>
      </trkpt>
      <trkpt lat="49.16624" lon="1.32468">
        <ele>104.8</ele>
        <time>2021-04-21T15:30:31Z</time>
      </trkpt>
      <trkpt lat="49.16631" lon="1.32462">
        <ele>105.4</ele>
        <time>2021-04-21T15:30:34Z</time>
      </trkpt>
      <trkpt lat="49.16633" lon="1.3246">
        <ele>105.4</ele>
        <time>2021-04-21T15:30:35Z</time>
      </trkpt>
      <trkpt lat="49.16645" lon="1.3245">
        <ele>106</ele>
        <time>2021-04-21T15:30:41Z</time>
      </trkpt>
      <trkpt lat="49.1665" lon="1.32446">
        <ele>106.6</ele>
        <time>2021-04-21T15:30:43Z</time>
      </trkpt>
      <trkpt lat="49.16654" lon="1.32443">
        <ele>107</ele>
        <time>2021-04-21T15:30:44Z</time>
      </trkpt>
      <trkpt lat="49.16661" lon="1.32438">
        <ele>107.6</ele>
        <time>2021-04-21T15:30:47Z</time>
      </trkpt>
      <trkpt lat="49.16666" lon="1.32436">
        <ele>108</ele>
        <time>2021-04-21T15:30:49Z</time>
      </trkpt>
      <trkpt lat="49.16668" lon="1.32435">
        <ele>108.2</ele>
        <time>2021-04-21T15:30:50Z</time>
      </trkpt>
      <trkpt lat="49.16674" lon="1.32429">
        <ele>108.2</ele>
        <time>2021-04-21T15:30:53Z</time>
      </trkpt>
      <trkpt lat="49.1668" lon="1.32417">
        <ele>108.6</ele>
        <time>2021-04-21T15:30:58Z</time>
      </trkpt>
      <trkpt lat="49.16689" lon="1.32412">
        <ele>109.8</ele>
        <time>2021-04-21T15:31:02Z</time>
      </trkpt>
      <trkpt lat="49.16691" lon="1.32411">
        <ele>110</ele>
        <time>2021-04-21T15:31:03Z</time>
      </trkpt>
      <trkpt lat="49.16694" lon="1.3241">
        <ele>110.4</ele>
        <time>2021-04-21T15:31:04Z</time>
      </trkpt>
      <trkpt lat="49.16698" lon="1.32408">
        <ele>110.8</ele>
        <time>2021-04-21T15:31:06Z</time>
      </trkpt>
      <trkpt lat="49.167" lon="1.32407">
        <ele>111</ele>
        <time>2021-04-21T15:31:07Z</time>
      </trkpt>
      <trkpt lat="49.16702" lon="1.32404">
        <ele>111.2</ele>
        <time>2021-04-21T15:31:09Z</time>
      </trkpt>
      <trkpt lat="49.16703" lon="1.32403">
        <ele>111.4</ele>
        <time>2021-04-21T15:31:10Z</time>
      </trkpt>
      <trkpt lat="49.16703" lon="1.324">
        <ele>112</ele>
        <time>2021-04-21T15:32:29Z</time>
      </trkpt>
      <trkpt lat="49.167" lon="1.32402">
        <ele>112</ele>
        <time>2021-04-21T15:32:31Z</time>
      </trkpt>
      <trkpt lat="49.16689" lon="1.32412">
        <ele>111.8</ele>
        <time>2021-04-21T15:32:36Z</time>
      </trkpt>
      <trkpt lat="49.16686" lon="1.32417">
        <ele>111.8</ele>
        <time>2021-04-21T15:32:37Z</time>
      </trkpt>
      <trkpt lat="49.16677" lon="1.32424">
        <ele>111.8</ele>
        <time>2021-04-21T15:32:39Z</time>
      </trkpt>
      <trkpt lat="49.16666" lon="1.32431">
        <ele>111.4</ele>
        <time>2021-04-21T15:32:41Z</time>
      </trkpt>
      <trkpt lat="49.16658" lon="1.32439">
        <ele>111.2</ele>
        <time>2021-04-21T15:32:43Z</time>
      </trkpt>
      <trkpt lat="49.16647" lon="1.32447">
        <ele>110.6</ele>
        <time>2021-04-21T15:32:46Z</time>
      </trkpt>
      <trkpt lat="49.16644" lon="1.32448">
        <ele>110.4</ele>
        <time>2021-04-21T15:32:47Z</time>
      </trkpt>
      <trkpt lat="49.16641" lon="1.3245">
        <ele>110.2</ele>
        <time>2021-04-21T15:32:48Z</time>
      </trkpt>
      <trkpt lat="49.16637" lon="1.32457">
        <ele>109.4</ele>
        <time>2021-04-21T15:32:50Z</time>
      </trkpt>
      <trkpt lat="49.16626" lon="1.3247">
        <ele>108.4</ele>
        <time>2021-04-21T15:32:53Z</time>
      </trkpt>
      <trkpt lat="49.16623" lon="1.32474">
        <ele>108.4</ele>
        <time>2021-04-21T15:32:54Z</time>
      </trkpt>
      <trkpt lat="49.16616" lon="1.32482">
        <ele>108</ele>
        <time>2021-04-21T15:32:56Z</time>
      </trkpt>
      <trkpt lat="49.16607" lon="1.32487">
        <ele>107.6</ele>
        <time>2021-04-21T15:32:58Z</time>
      </trkpt>
      <trkpt lat="49.16602" lon="1.32492">
        <ele>107.2</ele>
        <time>2021-04-21T15:32:59Z</time>
      </trkpt>
      <trkpt lat="49.16598" lon="1.32497">
        <ele>106.8</ele>
        <time>2021-04-21T15:33:00Z</time>
      </trkpt>
      <trkpt lat="49.16588" lon="1.32505">
        <ele>106.2</ele>
        <time>2021-04-21T15:33:02Z</time>
      </trkpt>
      <trkpt lat="49.16568" lon="1.32519">
        <ele>105.2</ele>
        <time>2021-04-21T15:33:06Z</time>
      </trkpt>
      <trkpt lat="49.1656" lon="1.32525">
        <ele>104.4</ele>
        <time>2021-04-21T15:33:08Z</time>
      </trkpt>
      <trkpt lat="49.16555" lon="1.32529">
        <ele>104</ele>
        <time>2021-04-21T15:33:09Z</time>
      </trkpt>
      <trkpt lat="49.16544" lon="1.32542">
        <ele>102.8</ele>
        <time>2021-04-21T15:33:11Z</time>
      </trkpt>
      <trkpt lat="49.16529" lon="1.32569">
        <ele>101.6</ele>
        <time>2021-04-21T15:33:14Z</time>
      </trkpt>
      <trkpt lat="49.16521" lon="1.32581">
        <ele>100.4</ele>
        <time>2021-04-21T15:33:16Z</time>
      </trkpt>
      <trkpt lat="49.16516" lon="1.32586">
        <ele>99.4</ele>
        <time>2021-04-21T15:33:18Z</time>
      </trkpt>
      <trkpt lat="49.16514" lon="1.32586">
        <ele>98.4</ele>
        <time>2021-04-21T15:33:19Z</time>
      </trkpt>
      <trkpt lat="49.16512" lon="1.32585">
        <ele>97.2</ele>
        <time>2021-04-21T15:33:20Z</time>
      </trkpt>
      <trkpt lat="49.16509" lon="1.32585">
        <ele>95.8</ele>
        <time>2021-04-21T15:33:21Z</time>
      </trkpt>
      <trkpt lat="49.16507" lon="1.32582">
        <ele>94.6</ele>
        <time>2021-04-21T15:33:22Z</time>
      </trkpt>
      <trkpt lat="49.16507" lon="1.32578">
        <ele>93.6</ele>
        <time>2021-04-21T15:33:23Z</time>
      </trkpt>
      <trkpt lat="49.1651" lon="1.32557">
        <ele>93.2</ele>
        <time>2021-04-21T15:33:26Z</time>
      </trkpt>
      <trkpt lat="49.16516" lon="1.32545">
        <ele>92.8</ele>
        <time>2021-04-21T15:33:28Z</time>
      </trkpt>
      <trkpt lat="49.1652" lon="1.32535">
        <ele>92.6</ele>
        <time>2021-04-21T15:33:30Z</time>
      </trkpt>
      <trkpt lat="49.16522" lon="1.3253">
        <ele>92.4</ele>
        <time>2021-04-21T15:33:31Z</time>
      </trkpt>
      <trkpt lat="49.16527" lon="1.32517">
        <ele>90.8</ele>
        <time>2021-04-21T15:33:34Z</time>
      </trkpt>
      <trkpt lat="49.16532" lon="1.32505">
        <ele>89.8</ele>
        <time>2021-04-21T15:33:37Z</time>
      </trkpt>
      <trkpt lat="49.16542" lon="1.32481">
        <ele>89.8</ele>
        <time>2021-04-21T15:33:44Z</time>
      </trkpt>
      <trkpt lat="49.16546" lon="1.32469">
        <ele>90.2</ele>
        <time>2021-04-21T15:33:48Z</time>
      </trkpt>
      <trkpt lat="49.16559" lon="1.3245">
        <ele>92</ele>
        <time>2021-04-21T15:33:55Z</time>
      </trkpt>
      <trkpt lat="49.16569" lon="1.32436">
        <ele>92.8</ele>
        <time>2021-04-21T15:34:00Z</time>
      </trkpt>
      <trkpt lat="49.16576" lon="1.32427">
        <ele>93.4</ele>
        <time>2021-04-21T15:34:04Z</time>
      </trkpt>
      <trkpt lat="49.1658" lon="1.32422">
        <ele>94</ele>
        <time>2021-04-21T15:34:06Z</time>
      </trkpt>
      <trkpt lat="49.16587" lon="1.32412">
        <ele>95.2</ele>
        <time>2021-04-21T15:34:10Z</time>
      </trkpt>
      <trkpt lat="49.16591" lon="1.32408">
        <ele>95.6</ele>
        <time>2021-04-21T15:34:12Z</time>
      </trkpt>
      <trkpt lat="49.16598" lon="1.32401">
        <ele>96.2</ele>
        <time>2021-04-21T15:34:15Z</time>
      </trkpt>
      <trkpt lat="49.16607" lon="1.32392">
        <ele>97.6</ele>
        <time>2021-04-21T15:34:20Z</time>
      </trkpt>
      <trkpt lat="49.1661" lon="1.3239">
        <ele>97.8</ele>
        <time>2021-04-21T15:34:21Z</time>
      </trkpt>
      <trkpt lat="49.16621" lon="1.32379">
        <ele>98.6</ele>
        <time>2021-04-21T15:34:26Z</time>
      </trkpt>
      <trkpt lat="49.1663" lon="1.3237">
        <ele>99.4</ele>
        <time>2021-04-21T15:34:30Z</time>
      </trkpt>
      <trkpt lat="49.16634" lon="1.32366">
        <ele>99.8</ele>
        <time>2021-04-21T15:34:32Z</time>
      </trkpt>
      <trkpt lat="49.16645" lon="1.32355">
        <ele>100.6</ele>
        <time>2021-04-21T15:34:37Z</time>
      </trkpt>
      <trkpt lat="49.16648" lon="1.32354">
        <ele>100.8</ele>
        <time>2021-04-21T15:34:38Z</time>
      </trkpt>
      <trkpt lat="49.1666" lon="1.32341">
        <ele>102</ele>
        <time>2021-04-21T15:34:44Z</time>
      </trkpt>
      <trkpt lat="49.16671" lon="1.32331">
        <ele>103.6</ele>
        <time>2021-04-21T15:34:49Z</time>
      </trkpt>
      <trkpt lat="49.16679" lon="1.32324">
        <ele>104.4</ele>
        <time>2021-04-21T15:34:53Z</time>
      </trkpt>
      <trkpt lat="49.16681" lon="1.32322">
        <ele>104.6</ele>
        <time>2021-04-21T15:34:54Z</time>
      </trkpt>
      <trkpt lat="49.16692" lon="1.32312">
        <ele>105.8</ele>
        <time>2021-04-21T15:34:59Z</time>
      </trkpt>
      <trkpt lat="49.16694" lon="1.3231">
        <ele>106</ele>
        <time>2021-04-21T15:35:00Z</time>
      </trkpt>
      <trkpt lat="49.16703" lon="1.32303">
        <ele>106.8</ele>
        <time>2021-04-21T15:35:04Z</time>
      </trkpt>
      <trkpt lat="49.1671" lon="1.32298">
        <ele>107.8</ele>
        <time>2021-04-21T15:35:07Z</time>
      </trkpt>
      <trkpt lat="49.16712" lon="1.32297">
        <ele>108.2</ele>
        <time>2021-04-21T15:35:08Z</time>
      </trkpt>
      <trkpt lat="49.16719" lon="1.32292">
        <ele>109.4</ele>
        <time>2021-04-21T15:35:11Z</time>
      </trkpt>
      <trkpt lat="49.16726" lon="1.32287">
        <ele>110.4</ele>
        <time>2021-04-21T15:35:14Z</time>
      </trkpt>
      <trkpt lat="49.16729" lon="1.32285">
        <ele>110.8</ele>
        <time>2021-04-21T15:35:15Z</time>
      </trkpt>
      <trkpt lat="49.16737" lon="1.3228">
        <ele>111.6</ele>
        <time>2021-04-21T15:35:18Z</time>
      </trkpt>
      <trkpt lat="49.16752" lon="1.32268">
        <ele>112.4</ele>
        <time>2021-04-21T15:35:24Z</time>
      </trkpt>
      <trkpt lat="49.16754" lon="1.32266">
        <ele>112.6</ele>
        <time>2021-04-21T15:35:25Z</time>
      </trkpt>
      <trkpt lat="49.16765" lon="1.32255">
        <ele>113.2</ele>
        <time>2021-04-21T15:35:30Z</time>
      </trkpt>
      <trkpt lat="49.16775" lon="1.32243">
        <ele>113.6</ele>
        <time>2021-04-21T15:35:35Z</time>
      </trkpt>
      <trkpt lat="49.16776" lon="1.32241">
        <ele>113.8</ele>
        <time>2021-04-21T15:35:36Z</time>
      </trkpt>
      <trkpt lat="49.16777" lon="1.32239">
        <ele>114.2</ele>
        <time>2021-04-21T15:35:39Z</time>
      </trkpt>
      <trkpt lat="49.16777" lon="1.32237">
        <ele>115</ele>
        <time>2021-04-21T15:35:44Z</time>
      </trkpt>
      <trkpt lat="49.16781" lon="1.32218">
        <ele>115.6</ele>
        <time>2021-04-21T15:35:49Z</time>
      </trkpt>
      <trkpt lat="49.16787" lon="1.32182">
        <ele>115.8</ele>
        <time>2021-04-21T15:35:57Z</time>
      </trkpt>
      <trkpt lat="49.16793" lon="1.32156">
        <ele>116</ele>
        <time>2021-04-21T15:36:03Z</time>
      </trkpt>
      <trkpt lat="49.16794" lon="1.32151">
        <ele>116.2</ele>
        <time>2021-04-21T15:36:04Z</time>
      </trkpt>
      <trkpt lat="49.168" lon="1.32118">
        <ele>117</ele>
        <time>2021-04-21T15:36:11Z</time>
      </trkpt>
      <trkpt lat="49.168" lon="1.32113">
        <ele>117.2</ele>
        <time>2021-04-21T15:36:12Z</time>
      </trkpt>
      <trkpt lat="49.16806" lon="1.32089">
        <ele>118</ele>
        <time>2021-04-21T15:36:17Z</time>
      </trkpt>
      <trkpt lat="49.16807" lon="1.32084">
        <ele>118.2</ele>
        <time>2021-04-21T15:36:18Z</time>
      </trkpt>
      <trkpt lat="49.16814" lon="1.32051">
        <ele>119</ele>
        <time>2021-04-21T15:36:25Z</time>
      </trkpt>
      <trkpt lat="49.16815" lon="1.32047">
        <ele>119.2</ele>
        <time>2021-04-21T15:36:26Z</time>
      </trkpt>
      <trkpt lat="49.1682" lon="1.32023">
        <ele>120.2</ele>
        <time>2021-04-21T15:36:31Z</time>
      </trkpt>
      <trkpt lat="49.16821" lon="1.32018">
        <ele>120.4</ele>
        <time>2021-04-21T15:36:32Z</time>
      </trkpt>
      <trkpt lat="49.1683" lon="1.31983">
        <ele>121</ele>
        <time>2021-04-21T15:36:39Z</time>
      </trkpt>
      <trkpt lat="49.16838" lon="1.31964">
        <ele>121.4</ele>
        <time>2021-04-21T15:36:43Z</time>
      </trkpt>
      <trkpt lat="49.16842" lon="1.31954">
        <ele>121.6</ele>
        <time>2021-04-21T15:36:45Z</time>
      </trkpt>
      <trkpt lat="49.16857" lon="1.31924">
        <ele>122</ele>
        <time>2021-04-21T15:36:52Z</time>
      </trkpt>
      <trkpt lat="49.16871" lon="1.319">
        <ele>122</ele>
        <time>2021-04-21T15:36:58Z</time>
      </trkpt>
      <trkpt lat="49.16885" lon="1.31875">
        <ele>122.6</ele>
        <time>2021-04-21T15:37:04Z</time>
      </trkpt>
      <trkpt lat="49.16891" lon="1.31852">
        <ele>122.8</ele>
        <time>2021-04-21T15:37:08Z</time>
      </trkpt>
      <trkpt lat="49.16902" lon="1.31829">
        <ele>123.2</ele>
        <time>2021-04-21T15:37:13Z</time>
      </trkpt>
      <trkpt lat="49.16919" lon="1.31795">
        <ele>123.6</ele>
        <time>2021-04-21T15:37:20Z</time>
      </trkpt>
      <trkpt lat="49.16921" lon="1.31789">
        <ele>123.6</ele>
        <time>2021-04-21T15:37:21Z</time>
      </trkpt>
      <trkpt lat="49.16928" lon="1.31774">
        <ele>123.8</ele>
        <time>2021-04-21T15:37:24Z</time>
      </trkpt>
      <trkpt lat="49.16934" lon="1.31763">
        <ele>124</ele>
        <time>2021-04-21T15:37:26Z</time>
      </trkpt>
      <trkpt lat="49.16944" lon="1.31747">
        <ele>124</ele>
        <time>2021-04-21T15:37:29Z</time>
      </trkpt>
      <trkpt lat="49.1695" lon="1.31737">
        <ele>124</ele>
        <time>2021-04-21T15:37:31Z</time>
      </trkpt>
      <trkpt lat="49.16953" lon="1.31731">
        <ele>124.2</ele>
        <time>2021-04-21T15:37:32Z</time>
      </trkpt>
      <trkpt lat="49.16959" lon="1.31719">
        <ele>124.2</ele>
        <time>2021-04-21T15:37:34Z</time>
      </trkpt>
      <trkpt lat="49.16963" lon="1.31705">
        <ele>124</ele>
        <time>2021-04-21T15:37:36Z</time>
      </trkpt>
      <trkpt lat="49.16967" lon="1.31689">
        <ele>123.8</ele>
        <time>2021-04-21T15:37:38Z</time>
      </trkpt>
      <trkpt lat="49.16968" lon="1.31681">
        <ele>123.6</ele>
        <time>2021-04-21T15:37:39Z</time>
      </trkpt>
      <trkpt lat="49.1697" lon="1.3165">
        <ele>123.4</ele>
        <time>2021-04-21T15:37:43Z</time>
      </trkpt>
      <trkpt lat="49.16972" lon="1.3162">
        <ele>123.2</ele>
        <time>2021-04-21T15:37:47Z</time>
      </trkpt>
      <trkpt lat="49.16974" lon="1.31606">
        <ele>123.2</ele>
        <time>2021-04-21T15:37:49Z</time>
      </trkpt>
      <trkpt lat="49.16976" lon="1.31593">
        <ele>123.2</ele>
        <time>2021-04-21T15:37:51Z</time>
      </trkpt>
      <trkpt lat="49.16975" lon="1.3157">
        <ele>123.2</ele>
        <time>2021-04-21T15:37:54Z</time>
      </trkpt>
      <trkpt lat="49.16975" lon="1.31555">
        <ele>123.2</ele>
        <time>2021-04-21T15:37:56Z</time>
      </trkpt>
      <trkpt lat="49.16976" lon="1.31537">
        <ele>123.2</ele>
        <time>2021-04-21T15:37:58Z</time>
      </trkpt>
      <trkpt lat="49.16977" lon="1.31529">
        <ele>123.2</ele>
        <time>2021-04-21T15:37:59Z</time>
      </trkpt>
      <trkpt lat="49.16981" lon="1.31487">
        <ele>123</ele>
        <time>2021-04-21T15:38:04Z</time>
      </trkpt>
      <trkpt lat="49.16983" lon="1.31472">
        <ele>123</ele>
        <time>2021-04-21T15:38:06Z</time>
      </trkpt>
      <trkpt lat="49.16982" lon="1.31456">
        <ele>123</ele>
        <time>2021-04-21T15:38:08Z</time>
      </trkpt>
      <trkpt lat="49.16981" lon="1.31448">
        <ele>122.8</ele>
        <time>2021-04-21T15:38:09Z</time>
      </trkpt>
      <trkpt lat="49.1698" lon="1.3144">
        <ele>122.8</ele>
        <time>2021-04-21T15:38:10Z</time>
      </trkpt>
      <trkpt lat="49.1698" lon="1.31393">
        <ele>122.8</ele>
        <time>2021-04-21T15:38:16Z</time>
      </trkpt>
      <trkpt lat="49.16981" lon="1.31345">
        <ele>122.6</ele>
        <time>2021-04-21T15:38:22Z</time>
      </trkpt>
      <trkpt lat="49.1698" lon="1.31281">
        <ele>122.6</ele>
        <time>2021-04-21T15:38:29Z</time>
      </trkpt>
      <trkpt lat="49.16974" lon="1.31226">
        <ele>122.4</ele>
        <time>2021-04-21T15:38:35Z</time>
      </trkpt>
      <trkpt lat="49.16969" lon="1.31207">
        <ele>122.4</ele>
        <time>2021-04-21T15:38:37Z</time>
      </trkpt>
      <trkpt lat="49.16959" lon="1.31167">
        <ele>121.8</ele>
        <time>2021-04-21T15:38:41Z</time>
      </trkpt>
      <trkpt lat="49.16945" lon="1.31106">
        <ele>121.6</ele>
        <time>2021-04-21T15:38:47Z</time>
      </trkpt>
      <trkpt lat="49.16943" lon="1.31095">
        <ele>121.4</ele>
        <time>2021-04-21T15:38:48Z</time>
      </trkpt>
      <trkpt lat="49.16938" lon="1.31074">
        <ele>121.4</ele>
        <time>2021-04-21T15:38:50Z</time>
      </trkpt>
      <trkpt lat="49.1693" lon="1.31044">
        <ele>121.2</ele>
        <time>2021-04-21T15:38:53Z</time>
      </trkpt>
      <trkpt lat="49.16917" lon="1.30985">
        <ele>120.8</ele>
        <time>2021-04-21T15:38:59Z</time>
      </trkpt>
      <trkpt lat="49.16908" lon="1.30939">
        <ele>120.4</ele>
        <time>2021-04-21T15:39:04Z</time>
      </trkpt>
      <trkpt lat="49.16907" lon="1.30929">
        <ele>120.4</ele>
        <time>2021-04-21T15:39:05Z</time>
      </trkpt>
      <trkpt lat="49.16902" lon="1.30884">
        <ele>120.2</ele>
        <time>2021-04-21T15:39:10Z</time>
      </trkpt>
      <trkpt lat="49.16899" lon="1.30855">
        <ele>120.2</ele>
        <time>2021-04-21T15:39:14Z</time>
      </trkpt>
      <trkpt lat="49.16897" lon="1.30842">
        <ele>120.2</ele>
        <time>2021-04-21T15:39:16Z</time>
      </trkpt>
      <trkpt lat="49.16894" lon="1.30819">
        <ele>120.2</ele>
        <time>2021-04-21T15:39:19Z</time>
      </trkpt>
      <trkpt lat="49.1689" lon="1.308">
        <ele>120.6</ele>
        <time>2021-04-21T15:39:23Z</time>
      </trkpt>
      <trkpt lat="49.16889" lon="1.30786">
        <ele>120.8</ele>
        <time>2021-04-21T15:39:28Z</time>
      </trkpt>
      <trkpt lat="49.16887" lon="1.30763">
        <ele>120.8</ele>
        <time>2021-04-21T15:39:33Z</time>
      </trkpt>
      <trkpt lat="49.16885" lon="1.30728">
        <ele>121</ele>
        <time>2021-04-21T15:39:39Z</time>
      </trkpt>
      <trkpt lat="49.16885" lon="1.30722">
        <ele>121</ele>
        <time>2021-04-21T15:39:40Z</time>
      </trkpt>
      <trkpt lat="49.16881" lon="1.30695">
        <ele>121</ele>
        <time>2021-04-21T15:39:44Z</time>
      </trkpt>
      <trkpt lat="49.16878" lon="1.30666">
        <ele>121</ele>
        <time>2021-04-21T15:39:48Z</time>
      </trkpt>
      <trkpt lat="49.16876" lon="1.30651">
        <ele>121</ele>
        <time>2021-04-21T15:39:50Z</time>
      </trkpt>
      <trkpt lat="49.16875" lon="1.30637">
        <ele>121</ele>
        <time>2021-04-21T15:39:52Z</time>
      </trkpt>
      <trkpt lat="49.16874" lon="1.30614">
        <ele>121</ele>
        <time>2021-04-21T15:39:55Z</time>
      </trkpt>
      <trkpt lat="49.16873" lon="1.306">
        <ele>121</ele>
        <time>2021-04-21T15:39:57Z</time>
      </trkpt>
      <trkpt lat="49.16866" lon="1.30565">
        <ele>121.2</ele>
        <time>2021-04-21T15:40:02Z</time>
      </trkpt>
      <trkpt lat="49.1686" lon="1.30528">
        <ele>121.4</ele>
        <time>2021-04-21T15:40:07Z</time>
      </trkpt>
      <trkpt lat="49.16858" lon="1.30513">
        <ele>121.4</ele>
        <time>2021-04-21T15:40:09Z</time>
      </trkpt>
      <trkpt lat="49.16855" lon="1.30499">
        <ele>121.4</ele>
        <time>2021-04-21T15:40:11Z</time>
      </trkpt>
      <trkpt lat="49.1685" lon="1.30469">
        <ele>121.6</ele>
        <time>2021-04-21T15:40:15Z</time>
      </trkpt>
      <trkpt lat="49.1684" lon="1.30405">
        <ele>121.8</ele>
        <time>2021-04-21T15:40:24Z</time>
      </trkpt>
      <trkpt lat="49.16833" lon="1.30369">
        <ele>122.4</ele>
        <time>2021-04-21T15:40:29Z</time>
      </trkpt>
      <trkpt lat="49.16829" lon="1.30346">
        <ele>122.8</ele>
        <time>2021-04-21T15:40:32Z</time>
      </trkpt>
      <trkpt lat="49.16817" lon="1.30284">
        <ele>123.4</ele>
        <time>2021-04-21T15:40:40Z</time>
      </trkpt>
      <trkpt lat="49.16816" lon="1.30276">
        <ele>123.6</ele>
        <time>2021-04-21T15:40:41Z</time>
      </trkpt>
      <trkpt lat="49.16815" lon="1.30269">
        <ele>123.6</ele>
        <time>2021-04-21T15:40:42Z</time>
      </trkpt>
      <trkpt lat="49.16809" lon="1.30231">
        <ele>123.8</ele>
        <time>2021-04-21T15:40:47Z</time>
      </trkpt>
      <trkpt lat="49.16806" lon="1.30206">
        <ele>123.8</ele>
        <time>2021-04-21T15:40:51Z</time>
      </trkpt>
      <trkpt lat="49.16813" lon="1.30187">
        <ele>124.4</ele>
        <time>2021-04-21T15:40:56Z</time>
      </trkpt>
      <trkpt lat="49.16816" lon="1.30176">
        <ele>124.6</ele>
        <time>2021-04-21T15:40:59Z</time>
      </trkpt>
      <trkpt lat="49.16816" lon="1.30173">
        <ele>124.8</ele>
        <time>2021-04-21T15:41:01Z</time>
      </trkpt>
      <trkpt lat="49.16816" lon="1.30173">
        <ele>124.8</ele>
        <time>2021-04-21T15:41:02Z</time>
      </trkpt>
      <trkpt lat="49.16816" lon="1.30171">
        <ele>125.2</ele>
        <time>2021-04-21T15:41:41Z</time>
      </trkpt>
      <trkpt lat="49.1682" lon="1.30165">
        <ele>125.6</ele>
        <time>2021-04-21T15:41:44Z</time>
      </trkpt>
      <trkpt lat="49.16831" lon="1.30154">
        <ele>125.4</ele>
        <time>2021-04-21T15:41:48Z</time>
      </trkpt>
      <trkpt lat="49.16834" lon="1.30151">
        <ele>125.4</ele>
        <time>2021-04-21T15:41:49Z</time>
      </trkpt>
      <trkpt lat="49.16862" lon="1.30131">
        <ele>125.6</ele>
        <time>2021-04-21T15:41:57Z</time>
      </trkpt>
      <trkpt lat="49.16887" lon="1.30113">
        <ele>125.6</ele>
        <time>2021-04-21T15:42:04Z</time>
      </trkpt>
      <trkpt lat="49.16919" lon="1.30089">
        <ele>125.8</ele>
        <time>2021-04-21T15:42:12Z</time>
      </trkpt>
      <trkpt lat="49.16944" lon="1.30072">
        <ele>126</ele>
        <time>2021-04-21T15:42:18Z</time>
      </trkpt>
      <trkpt lat="49.16974" lon="1.30051">
        <ele>126.2</ele>
        <time>2021-04-21T15:42:25Z</time>
      </trkpt>
      <trkpt lat="49.17007" lon="1.30028">
        <ele>126.6</ele>
        <time>2021-04-21T15:42:33Z</time>
      </trkpt>
      <trkpt lat="49.17011" lon="1.30025">
        <ele>126.8</ele>
        <time>2021-04-21T15:42:34Z</time>
      </trkpt>
      <trkpt lat="49.17037" lon="1.30007">
        <ele>126.8</ele>
        <time>2021-04-21T15:42:40Z</time>
      </trkpt>
      <trkpt lat="49.17041" lon="1.30004">
        <ele>126.8</ele>
        <time>2021-04-21T15:42:41Z</time>
      </trkpt>
      <trkpt lat="49.1708" lon="1.29975">
        <ele>127</ele>
        <time>2021-04-21T15:42:50Z</time>
      </trkpt>
      <trkpt lat="49.17116" lon="1.29948">
        <ele>127.8</ele>
        <time>2021-04-21T15:42:58Z</time>
      </trkpt>
      <trkpt lat="49.1713" lon="1.29939">
        <ele>127.8</ele>
        <time>2021-04-21T15:43:01Z</time>
      </trkpt>
      <trkpt lat="49.17156" lon="1.29919">
        <ele>128</ele>
        <time>2021-04-21T15:43:07Z</time>
      </trkpt>
      <trkpt lat="49.17176" lon="1.29905">
        <ele>127.8</ele>
        <time>2021-04-21T15:43:12Z</time>
      </trkpt>
      <trkpt lat="49.1718" lon="1.29902">
        <ele>127.8</ele>
        <time>2021-04-21T15:43:13Z</time>
      </trkpt>
      <trkpt lat="49.17189" lon="1.29892">
        <ele>127.6</ele>
        <time>2021-04-21T15:43:16Z</time>
      </trkpt>
      <trkpt lat="49.1719" lon="1.29886">
        <ele>127.6</ele>
        <time>2021-04-21T15:43:17Z</time>
      </trkpt>
      <trkpt lat="49.17188" lon="1.29874">
        <ele>127.4</ele>
        <time>2021-04-21T15:43:19Z</time>
      </trkpt>
      <trkpt lat="49.17187" lon="1.29847">
        <ele>127.4</ele>
        <time>2021-04-21T15:43:23Z</time>
      </trkpt>
      <trkpt lat="49.17182" lon="1.29792">
        <ele>127.2</ele>
        <time>2021-04-21T15:43:31Z</time>
      </trkpt>
      <trkpt lat="49.17182" lon="1.29785">
        <ele>127.2</ele>
        <time>2021-04-21T15:43:32Z</time>
      </trkpt>
      <trkpt lat="49.17181" lon="1.29762">
        <ele>127.2</ele>
        <time>2021-04-21T15:43:35Z</time>
      </trkpt>
      <trkpt lat="49.17176" lon="1.29742">
        <ele>127.2</ele>
        <time>2021-04-21T15:43:38Z</time>
      </trkpt>
      <trkpt lat="49.17174" lon="1.29735">
        <ele>127.2</ele>
        <time>2021-04-21T15:43:39Z</time>
      </trkpt>
      <trkpt lat="49.17173" lon="1.29714">
        <ele>127.4</ele>
        <time>2021-04-21T15:43:42Z</time>
      </trkpt>
      <trkpt lat="49.17174" lon="1.297">
        <ele>127.4</ele>
        <time>2021-04-21T15:43:44Z</time>
      </trkpt>
      <trkpt lat="49.1718" lon="1.29662">
        <ele>127.6</ele>
        <time>2021-04-21T15:43:49Z</time>
      </trkpt>
      <trkpt lat="49.17188" lon="1.29609">
        <ele>127.8</ele>
        <time>2021-04-21T15:43:56Z</time>
      </trkpt>
      <trkpt lat="49.17198" lon="1.29545">
        <ele>127.6</ele>
        <time>2021-04-21T15:44:04Z</time>
      </trkpt>
      <trkpt lat="49.17209" lon="1.29476">
        <ele>127.4</ele>
        <time>2021-04-21T15:44:12Z</time>
      </trkpt>
      <trkpt lat="49.1722" lon="1.29414">
        <ele>127.2</ele>
        <time>2021-04-21T15:44:19Z</time>
      </trkpt>
      <trkpt lat="49.17224" lon="1.29386">
        <ele>126.8</ele>
        <time>2021-04-21T15:44:22Z</time>
      </trkpt>
      <trkpt lat="49.17234" lon="1.29329">
        <ele>126.4</ele>
        <time>2021-04-21T15:44:28Z</time>
      </trkpt>
      <trkpt lat="49.17243" lon="1.29278">
        <ele>125.6</ele>
        <time>2021-04-21T15:44:33Z</time>
      </trkpt>
      <trkpt lat="49.17245" lon="1.29262">
        <ele>125</ele>
        <time>2021-04-21T15:44:35Z</time>
      </trkpt>
      <trkpt lat="49.1725" lon="1.29254">
        <ele>124.6</ele>
        <time>2021-04-21T15:44:37Z</time>
      </trkpt>
      <trkpt lat="49.17254" lon="1.29253">
        <ele>124.4</ele>
        <time>2021-04-21T15:44:38Z</time>
      </trkpt>
      <trkpt lat="49.17259" lon="1.29254">
        <ele>124</ele>
        <time>2021-04-21T15:44:39Z</time>
      </trkpt>
      <trkpt lat="49.17269" lon="1.29255">
        <ele>123.2</ele>
        <time>2021-04-21T15:44:41Z</time>
      </trkpt>
      <trkpt lat="49.17282" lon="1.29256">
        <ele>122.6</ele>
        <time>2021-04-21T15:44:43Z</time>
      </trkpt>
      <trkpt lat="49.1731" lon="1.29257">
        <ele>122.2</ele>
        <time>2021-04-21T15:44:47Z</time>
      </trkpt>
      <trkpt lat="49.17325" lon="1.29259">
        <ele>121.4</ele>
        <time>2021-04-21T15:44:49Z</time>
      </trkpt>
      <trkpt lat="49.17332" lon="1.29259">
        <ele>120.8</ele>
        <time>2021-04-21T15:44:50Z</time>
      </trkpt>
      <trkpt lat="49.17347" lon="1.29261">
        <ele>119.6</ele>
        <time>2021-04-21T15:44:52Z</time>
      </trkpt>
      <trkpt lat="49.17361" lon="1.29263">
        <ele>118.6</ele>
        <time>2021-04-21T15:44:54Z</time>
      </trkpt>
      <trkpt lat="49.17376" lon="1.29265">
        <ele>117.6</ele>
        <time>2021-04-21T15:44:56Z</time>
      </trkpt>
      <trkpt lat="49.17384" lon="1.29266">
        <ele>117</ele>
        <time>2021-04-21T15:44:57Z</time>
      </trkpt>
      <trkpt lat="49.17398" lon="1.29269">
        <ele>116.4</ele>
        <time>2021-04-21T15:44:59Z</time>
      </trkpt>
      <trkpt lat="49.17412" lon="1.29275">
        <ele>115.6</ele>
        <time>2021-04-21T15:45:01Z</time>
      </trkpt>
      <trkpt lat="49.17419" lon="1.2928">
        <ele>115.2</ele>
        <time>2021-04-21T15:45:02Z</time>
      </trkpt>
      <trkpt lat="49.17438" lon="1.29294">
        <ele>114.2</ele>
        <time>2021-04-21T15:45:05Z</time>
      </trkpt>
      <trkpt lat="49.17461" lon="1.29313">
        <ele>113.2</ele>
        <time>2021-04-21T15:45:09Z</time>
      </trkpt>
      <trkpt lat="49.17468" lon="1.29317">
        <ele>112.8</ele>
        <time>2021-04-21T15:45:10Z</time>
      </trkpt>
      <trkpt lat="49.17485" lon="1.29332">
        <ele>112</ele>
        <time>2021-04-21T15:45:13Z</time>
      </trkpt>
      <trkpt lat="49.17497" lon="1.29341">
        <ele>111.8</ele>
        <time>2021-04-21T15:45:15Z</time>
      </trkpt>
      <trkpt lat="49.17525" lon="1.2935">
        <ele>111</ele>
        <time>2021-04-21T15:45:19Z</time>
      </trkpt>
      <trkpt lat="49.17554" lon="1.29359">
        <ele>109.6</ele>
        <time>2021-04-21T15:45:23Z</time>
      </trkpt>
      <trkpt lat="49.1757" lon="1.29366">
        <ele>108.8</ele>
        <time>2021-04-21T15:45:25Z</time>
      </trkpt>
      <trkpt lat="49.17578" lon="1.2937">
        <ele>108.4</ele>
        <time>2021-04-21T15:45:26Z</time>
      </trkpt>
      <trkpt lat="49.17612" lon="1.29387">
        <ele>107.2</ele>
        <time>2021-04-21T15:45:30Z</time>
      </trkpt>
      <trkpt lat="49.17637" lon="1.29402">
        <ele>106</ele>
        <time>2021-04-21T15:45:33Z</time>
      </trkpt>
      <trkpt lat="49.17653" lon="1.29412">
        <ele>105</ele>
        <time>2021-04-21T15:45:35Z</time>
      </trkpt>
      <trkpt lat="49.17669" lon="1.29422">
        <ele>103.4</ele>
        <time>2021-04-21T15:45:37Z</time>
      </trkpt>
      <trkpt lat="49.17684" lon="1.29434">
        <ele>102</ele>
        <time>2021-04-21T15:45:39Z</time>
      </trkpt>
      <trkpt lat="49.17699" lon="1.29447">
        <ele>100.8</ele>
        <time>2021-04-21T15:45:41Z</time>
      </trkpt>
      <trkpt lat="49.17714" lon="1.29463">
        <ele>99.6</ele>
        <time>2021-04-21T15:45:43Z</time>
      </trkpt>
      <trkpt lat="49.17728" lon="1.2948">
        <ele>98.2</ele>
        <time>2021-04-21T15:45:45Z</time>
      </trkpt>
      <trkpt lat="49.17735" lon="1.29489">
        <ele>97.8</ele>
        <time>2021-04-21T15:45:46Z</time>
      </trkpt>
      <trkpt lat="49.17742" lon="1.29497">
        <ele>96.8</ele>
        <time>2021-04-21T15:45:47Z</time>
      </trkpt>
      <trkpt lat="49.17757" lon="1.29512">
        <ele>95.6</ele>
        <time>2021-04-21T15:45:49Z</time>
      </trkpt>
      <trkpt lat="49.17774" lon="1.2952">
        <ele>94.4</ele>
        <time>2021-04-21T15:45:51Z</time>
      </trkpt>
      <trkpt lat="49.17791" lon="1.29518">
        <ele>93.2</ele>
        <time>2021-04-21T15:45:53Z</time>
      </trkpt>
      <trkpt lat="49.17799" lon="1.29516">
        <ele>92.6</ele>
        <time>2021-04-21T15:45:54Z</time>
      </trkpt>
      <trkpt lat="49.17808" lon="1.29514">
        <ele>92</ele>
        <time>2021-04-21T15:45:55Z</time>
      </trkpt>
      <trkpt lat="49.17825" lon="1.29507">
        <ele>91</ele>
        <time>2021-04-21T15:45:57Z</time>
      </trkpt>
      <trkpt lat="49.17844" lon="1.29502">
        <ele>89.8</ele>
        <time>2021-04-21T15:45:59Z</time>
      </trkpt>
      <trkpt lat="49.17855" lon="1.29501">
        <ele>89.4</ele>
        <time>2021-04-21T15:46:00Z</time>
      </trkpt>
      <trkpt lat="49.17866" lon="1.29501">
        <ele>88.8</ele>
        <time>2021-04-21T15:46:01Z</time>
      </trkpt>
      <trkpt lat="49.17888" lon="1.29502">
        <ele>87</ele>
        <time>2021-04-21T15:46:03Z</time>
      </trkpt>
      <trkpt lat="49.17898" lon="1.29503">
        <ele>85.8</ele>
        <time>2021-04-21T15:46:04Z</time>
      </trkpt>
      <trkpt lat="49.1791" lon="1.29504">
        <ele>84.4</ele>
        <time>2021-04-21T15:46:05Z</time>
      </trkpt>
      <trkpt lat="49.17921" lon="1.29505">
        <ele>83</ele>
        <time>2021-04-21T15:46:06Z</time>
      </trkpt>
      <trkpt lat="49.17931" lon="1.29505">
        <ele>81.8</ele>
        <time>2021-04-21T15:46:07Z</time>
      </trkpt>
      <trkpt lat="49.17939" lon="1.29505">
        <ele>80.6</ele>
        <time>2021-04-21T15:46:08Z</time>
      </trkpt>
      <trkpt lat="49.17945" lon="1.29504">
        <ele>79.4</ele>
        <time>2021-04-21T15:46:09Z</time>
      </trkpt>
      <trkpt lat="49.17949" lon="1.29503">
        <ele>78.2</ele>
        <time>2021-04-21T15:46:10Z</time>
      </trkpt>
      <trkpt lat="49.17951" lon="1.29501">
        <ele>77</ele>
        <time>2021-04-21T15:46:11Z</time>
      </trkpt>
      <trkpt lat="49.17953" lon="1.29501">
        <ele>76.6</ele>
        <time>2021-04-21T15:46:12Z</time>
      </trkpt>
      <trkpt lat="49.17958" lon="1.29501">
        <ele>76</ele>
        <time>2021-04-21T15:46:15Z</time>
      </trkpt>
      <trkpt lat="49.17962" lon="1.295">
        <ele>76</ele>
        <time>2021-04-21T15:46:18Z</time>
      </trkpt>
      <trkpt lat="49.17966" lon="1.295">
        <ele>77.2</ele>
        <time>2021-04-21T15:46:21Z</time>
      </trkpt>
      <trkpt lat="49.17969" lon="1.295">
        <ele>78.4</ele>
        <time>2021-04-21T15:46:23Z</time>
      </trkpt>
      <trkpt lat="49.17972" lon="1.295">
        <ele>80</ele>
        <time>2021-04-21T15:46:26Z</time>
      </trkpt>
      <trkpt lat="49.17977" lon="1.295">
        <ele>81</ele>
        <time>2021-04-21T15:46:29Z</time>
      </trkpt>
      <trkpt lat="49.17982" lon="1.295">
        <ele>82.2</ele>
        <time>2021-04-21T15:46:33Z</time>
      </trkpt>
      <trkpt lat="49.17988" lon="1.29499">
        <ele>83.4</ele>
        <time>2021-04-21T15:46:38Z</time>
      </trkpt>
      <trkpt lat="49.1799" lon="1.29498">
        <ele>84</ele>
        <time>2021-04-21T15:46:40Z</time>
      </trkpt>
      <trkpt lat="49.17993" lon="1.29498">
        <ele>84.8</ele>
        <time>2021-04-21T15:46:42Z</time>
      </trkpt>
      <trkpt lat="49.17997" lon="1.29498">
        <ele>85.8</ele>
        <time>2021-04-21T15:46:45Z</time>
      </trkpt>
      <trkpt lat="49.18001" lon="1.29498">
        <ele>86.6</ele>
        <time>2021-04-21T15:46:48Z</time>
      </trkpt>
      <trkpt lat="49.18003" lon="1.29498">
        <ele>87</ele>
        <time>2021-04-21T15:46:50Z</time>
      </trkpt>
      <trkpt lat="49.18009" lon="1.29498">
        <ele>88.2</ele>
        <time>2021-04-21T15:46:55Z</time>
      </trkpt>
      <trkpt lat="49.18016" lon="1.29499">
        <ele>89.4</ele>
        <time>2021-04-21T15:47:00Z</time>
      </trkpt>
      <trkpt lat="49.18019" lon="1.295">
        <ele>89.8</ele>
        <time>2021-04-21T15:47:02Z</time>
      </trkpt>
      <trkpt lat="49.18025" lon="1.29501">
        <ele>90.6</ele>
        <time>2021-04-21T15:47:06Z</time>
      </trkpt>
      <trkpt lat="49.18031" lon="1.29503">
        <ele>91.6</ele>
        <time>2021-04-21T15:47:10Z</time>
      </trkpt>
      <trkpt lat="49.18033" lon="1.29504">
        <ele>91.8</ele>
        <time>2021-04-21T15:47:11Z</time>
      </trkpt>
      <trkpt lat="49.18038" lon="1.29505">
        <ele>93</ele>
        <time>2021-04-21T15:47:14Z</time>
      </trkpt>
      <trkpt lat="49.18046" lon="1.29506">
        <ele>94.2</ele>
        <time>2021-04-21T15:47:19Z</time>
      </trkpt>
      <trkpt lat="49.18048" lon="1.29506">
        <ele>94.4</ele>
        <time>2021-04-21T15:47:20Z</time>
      </trkpt>
      <trkpt lat="49.18056" lon="1.29507">
        <ele>95.2</ele>
        <time>2021-04-21T15:47:25Z</time>
      </trkpt>
      <trkpt lat="49.18057" lon="1.29507">
        <ele>95.4</ele>
        <time>2021-04-21T15:47:26Z</time>
      </trkpt>
      <trkpt lat="49.18059" lon="1.29508">
        <ele>95.6</ele>
        <time>2021-04-21T15:47:27Z</time>
      </trkpt>
      <trkpt lat="49.18067" lon="1.29509">
        <ele>96.4</ele>
        <time>2021-04-21T15:47:32Z</time>
      </trkpt>
      <trkpt lat="49.18069" lon="1.2951">
        <ele>96.8</ele>
        <time>2021-04-21T15:47:34Z</time>
      </trkpt>
      <trkpt lat="49.18075" lon="1.29513">
        <ele>97.4</ele>
        <time>2021-04-21T15:47:39Z</time>
      </trkpt>
      <trkpt lat="49.18077" lon="1.29513">
        <ele>97.8</ele>
        <time>2021-04-21T15:47:41Z</time>
      </trkpt>
      <trkpt lat="49.18082" lon="1.29515">
        <ele>98.4</ele>
        <time>2021-04-21T15:47:45Z</time>
      </trkpt>
      <trkpt lat="49.18085" lon="1.29519">
        <ele>99</ele>
        <time>2021-04-21T15:47:48Z</time>
      </trkpt>
      <trkpt lat="49.1809" lon="1.29522">
        <ele>99.6</ele>
        <time>2021-04-21T15:47:51Z</time>
      </trkpt>
      <trkpt lat="49.18094" lon="1.29525">
        <ele>100.2</ele>
        <time>2021-04-21T15:47:54Z</time>
      </trkpt>
      <trkpt lat="49.181" lon="1.29527">
        <ele>100.6</ele>
        <time>2021-04-21T15:47:57Z</time>
      </trkpt>
      <trkpt lat="49.18105" lon="1.2953">
        <ele>101</ele>
        <time>2021-04-21T15:48:00Z</time>
      </trkpt>
      <trkpt lat="49.18112" lon="1.29532">
        <ele>101.8</ele>
        <time>2021-04-21T15:48:05Z</time>
      </trkpt>
      <trkpt lat="49.18121" lon="1.29533">
        <ele>102.8</ele>
        <time>2021-04-21T15:48:10Z</time>
      </trkpt>
      <trkpt lat="49.18123" lon="1.29533">
        <ele>102.8</ele>
        <time>2021-04-21T15:48:11Z</time>
      </trkpt>
      <trkpt lat="49.18132" lon="1.29535">
        <ele>103.8</ele>
        <time>2021-04-21T15:48:16Z</time>
      </trkpt>
      <trkpt lat="49.18134" lon="1.29536">
        <ele>104</ele>
        <time>2021-04-21T15:48:17Z</time>
      </trkpt>
      <trkpt lat="49.18142" lon="1.2954">
        <ele>104.8</ele>
        <time>2021-04-21T15:48:22Z</time>
      </trkpt>
      <trkpt lat="49.18148" lon="1.29542">
        <ele>105</ele>
        <time>2021-04-21T15:48:25Z</time>
      </trkpt>
      <trkpt lat="49.18149" lon="1.29543">
        <ele>105.2</ele>
        <time>2021-04-21T15:48:26Z</time>
      </trkpt>
      <trkpt lat="49.18152" lon="1.29547">
        <ele>105.4</ele>
        <time>2021-04-21T15:48:28Z</time>
      </trkpt>
      <trkpt lat="49.18163" lon="1.29563">
        <ele>106.2</ele>
        <time>2021-04-21T15:48:35Z</time>
      </trkpt>
      <trkpt lat="49.18176" lon="1.29577">
        <ele>106.4</ele>
        <time>2021-04-21T15:48:41Z</time>
      </trkpt>
      <trkpt lat="49.18194" lon="1.29592">
        <ele>106</ele>
        <time>2021-04-21T15:48:48Z</time>
      </trkpt>
      <trkpt lat="49.18215" lon="1.29607">
        <ele>106</ele>
        <time>2021-04-21T15:48:55Z</time>
      </trkpt>
      <trkpt lat="49.1824" lon="1.2962">
        <ele>106.6</ele>
        <time>2021-04-21T15:49:03Z</time>
      </trkpt>
      <trkpt lat="49.18259" lon="1.2963">
        <ele>106.8</ele>
        <time>2021-04-21T15:49:09Z</time>
      </trkpt>
      <trkpt lat="49.18278" lon="1.29636">
        <ele>107.4</ele>
        <time>2021-04-21T15:49:15Z</time>
      </trkpt>
      <trkpt lat="49.18281" lon="1.29635">
        <ele>107.4</ele>
        <time>2021-04-21T15:49:16Z</time>
      </trkpt>
      <trkpt lat="49.18294" lon="1.29623">
        <ele>107.8</ele>
        <time>2021-04-21T15:49:21Z</time>
      </trkpt>
      <trkpt lat="49.18299" lon="1.29615">
        <ele>108.6</ele>
        <time>2021-04-21T15:49:24Z</time>
      </trkpt>
      <trkpt lat="49.18305" lon="1.29608">
        <ele>109.6</ele>
        <time>2021-04-21T15:49:27Z</time>
      </trkpt>
      <trkpt lat="49.18315" lon="1.29596">
        <ele>110.8</ele>
        <time>2021-04-21T15:49:32Z</time>
      </trkpt>
      <trkpt lat="49.18326" lon="1.29582">
        <ele>112</ele>
        <time>2021-04-21T15:49:38Z</time>
      </trkpt>
      <trkpt lat="49.1833" lon="1.29577">
        <ele>113</ele>
        <time>2021-04-21T15:49:41Z</time>
      </trkpt>
      <trkpt lat="49.1833" lon="1.29577">
        <ele>113.2</ele>
        <time>2021-04-21T15:49:42Z</time>
      </trkpt>
      <trkpt lat="49.1833" lon="1.29577">
        <ele>113.4</ele>
        <time>2021-04-21T15:49:43Z</time>
      </trkpt>
      <trkpt lat="49.18331" lon="1.29576">
        <ele>115.4</ele>
        <time>2021-04-21T15:49:55Z</time>
      </trkpt>
      <trkpt lat="49.18331" lon="1.29574">
        <ele>115.4</ele>
        <time>2021-04-21T15:49:56Z</time>
      </trkpt>
      <trkpt lat="49.18332" lon="1.29572">
        <ele>115.4</ele>
        <time>2021-04-21T15:49:57Z</time>
      </trkpt>
      <trkpt lat="49.18336" lon="1.29566">
        <ele>115.4</ele>
        <time>2021-04-21T15:50:00Z</time>
      </trkpt>
      <trkpt lat="49.18341" lon="1.29558">
        <ele>115.4</ele>
        <time>2021-04-21T15:50:03Z</time>
      </trkpt>
      <trkpt lat="49.18356" lon="1.29535">
        <ele>115.8</ele>
        <time>2021-04-21T15:50:11Z</time>
      </trkpt>
      <trkpt lat="49.18365" lon="1.29521">
        <ele>116.4</ele>
        <time>2021-04-21T15:50:16Z</time>
      </trkpt>
      <trkpt lat="49.18372" lon="1.29514">
        <ele>116.8</ele>
        <time>2021-04-21T15:50:19Z</time>
      </trkpt>
      <trkpt lat="49.18379" lon="1.2951">
        <ele>117.4</ele>
        <time>2021-04-21T15:50:22Z</time>
      </trkpt>
      <trkpt lat="49.18382" lon="1.2951">
        <ele>117.6</ele>
        <time>2021-04-21T15:50:23Z</time>
      </trkpt>
      <trkpt lat="49.18384" lon="1.29511">
        <ele>118</ele>
        <time>2021-04-21T15:50:24Z</time>
      </trkpt>
      <trkpt lat="49.18396" lon="1.29515">
        <ele>118.8</ele>
        <time>2021-04-21T15:50:28Z</time>
      </trkpt>
      <trkpt lat="49.18399" lon="1.29516">
        <ele>119</ele>
        <time>2021-04-21T15:50:29Z</time>
      </trkpt>
      <trkpt lat="49.18402" lon="1.29517">
        <ele>119</ele>
        <time>2021-04-21T15:50:30Z</time>
      </trkpt>
      <trkpt lat="49.18426" lon="1.29525">
        <ele>119.8</ele>
        <time>2021-04-21T15:50:38Z</time>
      </trkpt>
      <trkpt lat="49.18452" lon="1.29532">
        <ele>119.6</ele>
        <time>2021-04-21T15:50:45Z</time>
      </trkpt>
      <trkpt lat="49.1848" lon="1.29541">
        <ele>119.2</ele>
        <time>2021-04-21T15:50:52Z</time>
      </trkpt>
      <trkpt lat="49.18518" lon="1.29552">
        <ele>118</ele>
        <time>2021-04-21T15:50:59Z</time>
      </trkpt>
      <trkpt lat="49.18524" lon="1.29554">
        <ele>117.4</ele>
        <time>2021-04-21T15:51:00Z</time>
      </trkpt>
      <trkpt lat="49.18552" lon="1.29563">
        <ele>116.4</ele>
        <time>2021-04-21T15:51:04Z</time>
      </trkpt>
      <trkpt lat="49.1858" lon="1.29574">
        <ele>114.8</ele>
        <time>2021-04-21T15:51:08Z</time>
      </trkpt>
      <trkpt lat="49.18588" lon="1.29576">
        <ele>114.4</ele>
        <time>2021-04-21T15:51:09Z</time>
      </trkpt>
      <trkpt lat="49.18596" lon="1.29578">
        <ele>113.8</ele>
        <time>2021-04-21T15:51:10Z</time>
      </trkpt>
      <trkpt lat="49.18612" lon="1.29583">
        <ele>112.4</ele>
        <time>2021-04-21T15:51:12Z</time>
      </trkpt>
      <trkpt lat="49.18628" lon="1.29588">
        <ele>111</ele>
        <time>2021-04-21T15:51:14Z</time>
      </trkpt>
      <trkpt lat="49.18645" lon="1.29593">
        <ele>109.8</ele>
        <time>2021-04-21T15:51:16Z</time>
      </trkpt>
      <trkpt lat="49.18654" lon="1.29597">
        <ele>109.2</ele>
        <time>2021-04-21T15:51:17Z</time>
      </trkpt>
      <trkpt lat="49.18662" lon="1.29601">
        <ele>108.6</ele>
        <time>2021-04-21T15:51:18Z</time>
      </trkpt>
      <trkpt lat="49.18679" lon="1.29609">
        <ele>107.6</ele>
        <time>2021-04-21T15:51:20Z</time>
      </trkpt>
      <trkpt lat="49.18706" lon="1.29618">
        <ele>106</ele>
        <time>2021-04-21T15:51:23Z</time>
      </trkpt>
      <trkpt lat="49.18725" lon="1.29624">
        <ele>104.2</ele>
        <time>2021-04-21T15:51:25Z</time>
      </trkpt>
      <trkpt lat="49.18745" lon="1.29631">
        <ele>102.6</ele>
        <time>2021-04-21T15:51:27Z</time>
      </trkpt>
      <trkpt lat="49.18755" lon="1.29634">
        <ele>100.8</ele>
        <time>2021-04-21T15:51:28Z</time>
      </trkpt>
      <trkpt lat="49.18775" lon="1.29642">
        <ele>99.4</ele>
        <time>2021-04-21T15:51:30Z</time>
      </trkpt>
      <trkpt lat="49.18794" lon="1.29648">
        <ele>97.4</ele>
        <time>2021-04-21T15:51:32Z</time>
      </trkpt>
      <trkpt lat="49.18813" lon="1.29655">
        <ele>95.4</ele>
        <time>2021-04-21T15:51:34Z</time>
      </trkpt>
      <trkpt lat="49.18822" lon="1.29659">
        <ele>94.4</ele>
        <time>2021-04-21T15:51:35Z</time>
      </trkpt>
      <trkpt lat="49.18832" lon="1.29662">
        <ele>93.4</ele>
        <time>2021-04-21T15:51:36Z</time>
      </trkpt>
      <trkpt lat="49.18851" lon="1.29669">
        <ele>91.8</ele>
        <time>2021-04-21T15:51:38Z</time>
      </trkpt>
      <trkpt lat="49.1887" lon="1.29676">
        <ele>90.4</ele>
        <time>2021-04-21T15:51:40Z</time>
      </trkpt>
      <trkpt lat="49.18891" lon="1.29683">
        <ele>89.2</ele>
        <time>2021-04-21T15:51:42Z</time>
      </trkpt>
      <trkpt lat="49.18911" lon="1.2969">
        <ele>88</ele>
        <time>2021-04-21T15:51:44Z</time>
      </trkpt>
      <trkpt lat="49.18942" lon="1.29701">
        <ele>86.6</ele>
        <time>2021-04-21T15:51:47Z</time>
      </trkpt>
      <trkpt lat="49.18961" lon="1.29708">
        <ele>85.2</ele>
        <time>2021-04-21T15:51:49Z</time>
      </trkpt>
      <trkpt lat="49.18981" lon="1.29715">
        <ele>84</ele>
        <time>2021-04-21T15:51:51Z</time>
      </trkpt>
      <trkpt lat="49.18991" lon="1.29718">
        <ele>83.4</ele>
        <time>2021-04-21T15:51:52Z</time>
      </trkpt>
      <trkpt lat="49.19001" lon="1.29721">
        <ele>82.6</ele>
        <time>2021-04-21T15:51:53Z</time>
      </trkpt>
      <trkpt lat="49.19021" lon="1.29728">
        <ele>81.2</ele>
        <time>2021-04-21T15:51:55Z</time>
      </trkpt>
      <trkpt lat="49.19041" lon="1.29735">
        <ele>79.4</ele>
        <time>2021-04-21T15:51:57Z</time>
      </trkpt>
      <trkpt lat="49.19051" lon="1.29738">
        <ele>78.8</ele>
        <time>2021-04-21T15:51:58Z</time>
      </trkpt>
      <trkpt lat="49.19062" lon="1.29742">
        <ele>78.2</ele>
        <time>2021-04-21T15:51:59Z</time>
      </trkpt>
      <trkpt lat="49.19094" lon="1.29755">
        <ele>76.6</ele>
        <time>2021-04-21T15:52:02Z</time>
      </trkpt>
      <trkpt lat="49.19115" lon="1.29763">
        <ele>75.2</ele>
        <time>2021-04-21T15:52:04Z</time>
      </trkpt>
      <trkpt lat="49.19135" lon="1.29768">
        <ele>73.6</ele>
        <time>2021-04-21T15:52:06Z</time>
      </trkpt>
      <trkpt lat="49.19145" lon="1.29771">
        <ele>72.8</ele>
        <time>2021-04-21T15:52:07Z</time>
      </trkpt>
      <trkpt lat="49.19152" lon="1.29778">
        <ele>72.2</ele>
        <time>2021-04-21T15:52:08Z</time>
      </trkpt>
      <trkpt lat="49.19158" lon="1.29785">
        <ele>71.6</ele>
        <time>2021-04-21T15:52:09Z</time>
      </trkpt>
      <trkpt lat="49.19164" lon="1.29792">
        <ele>70.4</ele>
        <time>2021-04-21T15:52:10Z</time>
      </trkpt>
      <trkpt lat="49.19169" lon="1.29797">
        <ele>69</ele>
        <time>2021-04-21T15:52:11Z</time>
      </trkpt>
      <trkpt lat="49.19172" lon="1.298">
        <ele>68</ele>
        <time>2021-04-21T15:52:12Z</time>
      </trkpt>
      <trkpt lat="49.19175" lon="1.29802">
        <ele>66.6</ele>
        <time>2021-04-21T15:52:14Z</time>
      </trkpt>
      <trkpt lat="49.1918" lon="1.29804">
        <ele>66.4</ele>
        <time>2021-04-21T15:52:17Z</time>
      </trkpt>
      <trkpt lat="49.19191" lon="1.29809">
        <ele>68.4</ele>
        <time>2021-04-21T15:52:25Z</time>
      </trkpt>
      <trkpt lat="49.19193" lon="1.2981">
        <ele>69</ele>
        <time>2021-04-21T15:52:26Z</time>
      </trkpt>
      <trkpt lat="49.19194" lon="1.2981">
        <ele>69.4</ele>
        <time>2021-04-21T15:52:27Z</time>
      </trkpt>
      <trkpt lat="49.19197" lon="1.29811">
        <ele>70.6</ele>
        <time>2021-04-21T15:52:29Z</time>
      </trkpt>
      <trkpt lat="49.19201" lon="1.29812">
        <ele>71.8</ele>
        <time>2021-04-21T15:52:32Z</time>
      </trkpt>
      <trkpt lat="49.19205" lon="1.29813">
        <ele>72.6</ele>
        <time>2021-04-21T15:52:35Z</time>
      </trkpt>
      <trkpt lat="49.19207" lon="1.29813">
        <ele>73</ele>
        <time>2021-04-21T15:52:36Z</time>
      </trkpt>
      <trkpt lat="49.19212" lon="1.29814">
        <ele>74.2</ele>
        <time>2021-04-21T15:52:40Z</time>
      </trkpt>
      <trkpt lat="49.19215" lon="1.29815">
        <ele>74.8</ele>
        <time>2021-04-21T15:52:42Z</time>
      </trkpt>
      <trkpt lat="49.19216" lon="1.29816">
        <ele>75.2</ele>
        <time>2021-04-21T15:52:43Z</time>
      </trkpt>
      <trkpt lat="49.19222" lon="1.29818">
        <ele>76.2</ele>
        <time>2021-04-21T15:52:47Z</time>
      </trkpt>
      <trkpt lat="49.19227" lon="1.2982">
        <ele>77.4</ele>
        <time>2021-04-21T15:52:51Z</time>
      </trkpt>
      <trkpt lat="49.1923" lon="1.29821">
        <ele>78.6</ele>
        <time>2021-04-21T15:52:53Z</time>
      </trkpt>
      <trkpt lat="49.19232" lon="1.29821">
        <ele>78.8</ele>
        <time>2021-04-21T15:52:54Z</time>
      </trkpt>
      <trkpt lat="49.19234" lon="1.29822">
        <ele>79.6</ele>
        <time>2021-04-21T15:52:56Z</time>
      </trkpt>
      <trkpt lat="49.19241" lon="1.29823">
        <ele>80.8</ele>
        <time>2021-04-21T15:53:00Z</time>
      </trkpt>
      <trkpt lat="49.19243" lon="1.29823">
        <ele>81.4</ele>
        <time>2021-04-21T15:53:02Z</time>
      </trkpt>
      <trkpt lat="49.19248" lon="1.29821">
        <ele>81.8</ele>
        <time>2021-04-21T15:53:05Z</time>
      </trkpt>
      <trkpt lat="49.19255" lon="1.29818">
        <ele>83</ele>
        <time>2021-04-21T15:53:10Z</time>
      </trkpt>
      <trkpt lat="49.19263" lon="1.29815">
        <ele>84.2</ele>
        <time>2021-04-21T15:53:15Z</time>
      </trkpt>
      <trkpt lat="49.1927" lon="1.29814">
        <ele>85</ele>
        <time>2021-04-21T15:53:20Z</time>
      </trkpt>
      <trkpt lat="49.19272" lon="1.29814">
        <ele>85.2</ele>
        <time>2021-04-21T15:53:21Z</time>
      </trkpt>
      <trkpt lat="49.19278" lon="1.29814">
        <ele>86.2</ele>
        <time>2021-04-21T15:53:25Z</time>
      </trkpt>
      <trkpt lat="49.19281" lon="1.29815">
        <ele>86.8</ele>
        <time>2021-04-21T15:53:27Z</time>
      </trkpt>
      <trkpt lat="49.19285" lon="1.29815">
        <ele>87.4</ele>
        <time>2021-04-21T15:53:30Z</time>
      </trkpt>
      <trkpt lat="49.19293" lon="1.29814">
        <ele>88.6</ele>
        <time>2021-04-21T15:53:35Z</time>
      </trkpt>
      <trkpt lat="49.19297" lon="1.29813">
        <ele>89.4</ele>
        <time>2021-04-21T15:53:38Z</time>
      </trkpt>
      <trkpt lat="49.193" lon="1.29812">
        <ele>89.8</ele>
        <time>2021-04-21T15:53:40Z</time>
      </trkpt>
      <trkpt lat="49.19308" lon="1.29811">
        <ele>90.8</ele>
        <time>2021-04-21T15:53:45Z</time>
      </trkpt>
      <trkpt lat="49.19314" lon="1.29812">
        <ele>92</ele>
        <time>2021-04-21T15:53:49Z</time>
      </trkpt>
      <trkpt lat="49.1932" lon="1.29811">
        <ele>93</ele>
        <time>2021-04-21T15:53:53Z</time>
      </trkpt>
      <trkpt lat="49.19322" lon="1.29811">
        <ele>93.2</ele>
        <time>2021-04-21T15:53:54Z</time>
      </trkpt>
      <trkpt lat="49.19329" lon="1.29812">
        <ele>94.4</ele>
        <time>2021-04-21T15:53:59Z</time>
      </trkpt>
      <trkpt lat="49.19334" lon="1.29812">
        <ele>95.2</ele>
        <time>2021-04-21T15:54:02Z</time>
      </trkpt>
      <trkpt lat="49.19337" lon="1.29813">
        <ele>95.6</ele>
        <time>2021-04-21T15:54:04Z</time>
      </trkpt>
      <trkpt lat="49.19344" lon="1.29817">
        <ele>96.6</ele>
        <time>2021-04-21T15:54:09Z</time>
      </trkpt>
      <trkpt lat="49.19346" lon="1.29818">
        <ele>97</ele>
        <time>2021-04-21T15:54:11Z</time>
      </trkpt>
      <trkpt lat="49.19354" lon="1.29824">
        <ele>97.8</ele>
        <time>2021-04-21T15:54:16Z</time>
      </trkpt>
      <trkpt lat="49.19358" lon="1.29827">
        <ele>98.6</ele>
        <time>2021-04-21T15:54:19Z</time>
      </trkpt>
      <trkpt lat="49.1936" lon="1.29829">
        <ele>98.8</ele>
        <time>2021-04-21T15:54:20Z</time>
      </trkpt>
      <trkpt lat="49.19372" lon="1.29835">
        <ele>99.8</ele>
        <time>2021-04-21T15:54:28Z</time>
      </trkpt>
      <trkpt lat="49.19373" lon="1.29836">
        <ele>100</ele>
        <time>2021-04-21T15:54:29Z</time>
      </trkpt>
      <trkpt lat="49.19382" lon="1.29838">
        <ele>101</ele>
        <time>2021-04-21T15:54:35Z</time>
      </trkpt>
      <trkpt lat="49.1939" lon="1.29839">
        <ele>102.2</ele>
        <time>2021-04-21T15:54:40Z</time>
      </trkpt>
      <trkpt lat="49.19397" lon="1.29841">
        <ele>103.4</ele>
        <time>2021-04-21T15:54:45Z</time>
      </trkpt>
      <trkpt lat="49.19401" lon="1.29842">
        <ele>103.8</ele>
        <time>2021-04-21T15:54:47Z</time>
      </trkpt>
      <trkpt lat="49.19407" lon="1.29845">
        <ele>104.4</ele>
        <time>2021-04-21T15:54:51Z</time>
      </trkpt>
      <trkpt lat="49.19419" lon="1.29847">
        <ele>105.4</ele>
        <time>2021-04-21T15:54:58Z</time>
      </trkpt>
      <trkpt lat="49.19426" lon="1.29847">
        <ele>106.4</ele>
        <time>2021-04-21T15:55:02Z</time>
      </trkpt>
      <trkpt lat="49.19433" lon="1.2985">
        <ele>107.4</ele>
        <time>2021-04-21T15:55:06Z</time>
      </trkpt>
      <trkpt lat="49.19434" lon="1.2985">
        <ele>107.6</ele>
        <time>2021-04-21T15:55:07Z</time>
      </trkpt>
      <trkpt lat="49.19443" lon="1.29853">
        <ele>108.6</ele>
        <time>2021-04-21T15:55:12Z</time>
      </trkpt>
      <trkpt lat="49.19445" lon="1.29856">
        <ele>109</ele>
        <time>2021-04-21T15:55:14Z</time>
      </trkpt>
      <trkpt lat="49.1945" lon="1.29859">
        <ele>109.8</ele>
        <time>2021-04-21T15:55:17Z</time>
      </trkpt>
      <trkpt lat="49.19456" lon="1.29859">
        <ele>110.2</ele>
        <time>2021-04-21T15:55:20Z</time>
      </trkpt>
      <trkpt lat="49.1946" lon="1.2986">
        <ele>110.6</ele>
        <time>2021-04-21T15:55:23Z</time>
      </trkpt>
      <trkpt lat="49.19464" lon="1.29861">
        <ele>110.6</ele>
        <time>2021-04-21T15:55:25Z</time>
      </trkpt>
      <trkpt lat="49.19469" lon="1.29863">
        <ele>111</ele>
        <time>2021-04-21T15:55:27Z</time>
      </trkpt>
      <trkpt lat="49.19479" lon="1.29867">
        <ele>111.4</ele>
        <time>2021-04-21T15:55:32Z</time>
      </trkpt>
      <trkpt lat="49.19482" lon="1.29868">
        <ele>111.6</ele>
        <time>2021-04-21T15:55:36Z</time>
      </trkpt>
      <trkpt lat="49.19486" lon="1.29869">
        <ele>110.4</ele>
        <time>2021-04-21T15:57:07Z</time>
      </trkpt>
      <trkpt lat="49.19489" lon="1.2987">
        <ele>110.4</ele>
        <time>2021-04-21T15:57:09Z</time>
      </trkpt>
      <trkpt lat="49.19494" lon="1.29872">
        <ele>110.4</ele>
        <time>2021-04-21T15:57:11Z</time>
      </trkpt>
      <trkpt lat="49.19512" lon="1.29877">
        <ele>110.4</ele>
        <time>2021-04-21T15:57:15Z</time>
      </trkpt>
      <trkpt lat="49.19518" lon="1.29877">
        <ele>110.2</ele>
        <time>2021-04-21T15:57:16Z</time>
      </trkpt>
      <trkpt lat="49.19524" lon="1.29877">
        <ele>110.2</ele>
        <time>2021-04-21T15:57:17Z</time>
      </trkpt>
      <trkpt lat="49.19544" lon="1.29873">
        <ele>109.2</ele>
        <time>2021-04-21T15:57:20Z</time>
      </trkpt>
      <trkpt lat="49.19559" lon="1.29869">
        <ele>107.8</ele>
        <time>2021-04-21T15:57:22Z</time>
      </trkpt>
      <trkpt lat="49.19577" lon="1.29862">
        <ele>106.2</ele>
        <time>2021-04-21T15:57:24Z</time>
      </trkpt>
      <trkpt lat="49.19586" lon="1.29859">
        <ele>105.6</ele>
        <time>2021-04-21T15:57:25Z</time>
      </trkpt>
      <trkpt lat="49.19595" lon="1.29856">
        <ele>104.8</ele>
        <time>2021-04-21T15:57:26Z</time>
      </trkpt>
      <trkpt lat="49.19611" lon="1.29848">
        <ele>103.8</ele>
        <time>2021-04-21T15:57:28Z</time>
      </trkpt>
      <trkpt lat="49.19621" lon="1.2984">
        <ele>102</ele>
        <time>2021-04-21T15:57:30Z</time>
      </trkpt>
      <trkpt lat="49.19624" lon="1.29836">
        <ele>101</ele>
        <time>2021-04-21T15:57:31Z</time>
      </trkpt>
      <trkpt lat="49.19626" lon="1.29833">
        <ele>100.2</ele>
        <time>2021-04-21T15:57:32Z</time>
      </trkpt>
      <trkpt lat="49.1963" lon="1.29826">
        <ele>98.2</ele>
        <time>2021-04-21T15:57:34Z</time>
      </trkpt>
      <trkpt lat="49.19634" lon="1.29822">
        <ele>96.4</ele>
        <time>2021-04-21T15:57:36Z</time>
      </trkpt>
      <trkpt lat="49.19641" lon="1.29807">
        <ele>95.4</ele>
        <time>2021-04-21T15:57:40Z</time>
      </trkpt>
      <trkpt lat="49.1965" lon="1.29784">
        <ele>95.4</ele>
        <time>2021-04-21T15:57:46Z</time>
      </trkpt>
      <trkpt lat="49.19651" lon="1.29784">
        <ele>95.4</ele>
        <time>2021-04-21T15:57:47Z</time>
      </trkpt>
      <trkpt lat="49.19655" lon="1.29785">
        <ele>95.6</ele>
        <time>2021-04-21T15:57:49Z</time>
      </trkpt>
      <trkpt lat="49.1966" lon="1.29788">
        <ele>95.8</ele>
        <time>2021-04-21T15:57:51Z</time>
      </trkpt>
      <trkpt lat="49.19668" lon="1.29794">
        <ele>95.8</ele>
        <time>2021-04-21T15:57:54Z</time>
      </trkpt>
      <trkpt lat="49.19687" lon="1.29808">
        <ele>95.8</ele>
        <time>2021-04-21T15:57:59Z</time>
      </trkpt>
      <trkpt lat="49.197" lon="1.29808">
        <ele>95.2</ele>
        <time>2021-04-21T15:58:03Z</time>
      </trkpt>
      <trkpt lat="49.19704" lon="1.29807">
        <ele>94.8</ele>
        <time>2021-04-21T15:58:04Z</time>
      </trkpt>
      <trkpt lat="49.19713" lon="1.29805">
        <ele>94</ele>
        <time>2021-04-21T15:58:07Z</time>
      </trkpt>
      <trkpt lat="49.19734" lon="1.298">
        <ele>93.6</ele>
        <time>2021-04-21T15:58:14Z</time>
      </trkpt>
      <trkpt lat="49.19754" lon="1.29794">
        <ele>93.8</ele>
        <time>2021-04-21T15:58:22Z</time>
      </trkpt>
      <trkpt lat="49.19764" lon="1.29791">
        <ele>94.6</ele>
        <time>2021-04-21T15:58:27Z</time>
      </trkpt>
      <trkpt lat="49.1977" lon="1.29789">
        <ele>95</ele>
        <time>2021-04-21T15:58:30Z</time>
      </trkpt>
      <trkpt lat="49.19781" lon="1.29787">
        <ele>96</ele>
        <time>2021-04-21T15:58:36Z</time>
      </trkpt>
      <trkpt lat="49.19783" lon="1.29786">
        <ele>96</ele>
        <time>2021-04-21T15:58:37Z</time>
      </trkpt>
      <trkpt lat="49.19792" lon="1.29783">
        <ele>97.2</ele>
        <time>2021-04-21T15:58:42Z</time>
      </trkpt>
      <trkpt lat="49.19803" lon="1.2978">
        <ele>98.2</ele>
        <time>2021-04-21T15:58:49Z</time>
      </trkpt>
      <trkpt lat="49.19805" lon="1.29779">
        <ele>98.2</ele>
        <time>2021-04-21T15:58:50Z</time>
      </trkpt>
      <trkpt lat="49.19815" lon="1.29777">
        <ele>99.4</ele>
        <time>2021-04-21T15:58:56Z</time>
      </trkpt>
      <trkpt lat="49.19821" lon="1.29776">
        <ele>100.6</ele>
        <time>2021-04-21T15:59:00Z</time>
      </trkpt>
      <trkpt lat="49.19827" lon="1.29775">
        <ele>101.6</ele>
        <time>2021-04-21T15:59:04Z</time>
      </trkpt>
      <trkpt lat="49.19833" lon="1.29774">
        <ele>102.4</ele>
        <time>2021-04-21T15:59:08Z</time>
      </trkpt>
      <trkpt lat="49.19835" lon="1.29774">
        <ele>102.6</ele>
        <time>2021-04-21T15:59:09Z</time>
      </trkpt>
      <trkpt lat="49.19844" lon="1.29773">
        <ele>103.6</ele>
        <time>2021-04-21T15:59:15Z</time>
      </trkpt>
      <trkpt lat="49.19852" lon="1.29771">
        <ele>104.8</ele>
        <time>2021-04-21T15:59:20Z</time>
      </trkpt>
      <trkpt lat="49.19855" lon="1.29771">
        <ele>105.2</ele>
        <time>2021-04-21T15:59:22Z</time>
      </trkpt>
      <trkpt lat="49.1986" lon="1.2977">
        <ele>105.8</ele>
        <time>2021-04-21T15:59:25Z</time>
      </trkpt>
      <trkpt lat="49.19866" lon="1.29767">
        <ele>107</ele>
        <time>2021-04-21T15:59:29Z</time>
      </trkpt>
      <trkpt lat="49.19868" lon="1.29767">
        <ele>107.2</ele>
        <time>2021-04-21T15:59:30Z</time>
      </trkpt>
      <trkpt lat="49.19874" lon="1.29763">
        <ele>108</ele>
        <time>2021-04-21T15:59:35Z</time>
      </trkpt>
      <trkpt lat="49.19877" lon="1.2976">
        <ele>108.2</ele>
        <time>2021-04-21T15:59:37Z</time>
      </trkpt>
      <trkpt lat="49.19883" lon="1.29751">
        <ele>109.2</ele>
        <time>2021-04-21T15:59:41Z</time>
      </trkpt>
      <trkpt lat="49.19887" lon="1.29741">
        <ele>110</ele>
        <time>2021-04-21T15:59:45Z</time>
      </trkpt>
      <trkpt lat="49.19888" lon="1.29738">
        <ele>110.2</ele>
        <time>2021-04-21T15:59:46Z</time>
      </trkpt>
      <trkpt lat="49.19894" lon="1.29718">
        <ele>110.8</ele>
        <time>2021-04-21T15:59:53Z</time>
      </trkpt>
      <trkpt lat="49.19905" lon="1.29687">
        <ele>111</ele>
        <time>2021-04-21T16:00:03Z</time>
      </trkpt>
      <trkpt lat="49.19913" lon="1.29667">
        <ele>111.4</ele>
        <time>2021-04-21T16:00:09Z</time>
      </trkpt>
      <trkpt lat="49.19914" lon="1.29664">
        <ele>111.6</ele>
        <time>2021-04-21T16:00:10Z</time>
      </trkpt>
      <trkpt lat="49.19922" lon="1.29639">
        <ele>112.2</ele>
        <time>2021-04-21T16:00:16Z</time>
      </trkpt>
      <trkpt lat="49.19934" lon="1.29605">
        <ele>112.4</ele>
        <time>2021-04-21T16:00:24Z</time>
      </trkpt>
      <trkpt lat="49.19944" lon="1.29584">
        <ele>112.8</ele>
        <time>2021-04-21T16:00:30Z</time>
      </trkpt>
      <trkpt lat="49.19949" lon="1.29576">
        <ele>113.2</ele>
        <time>2021-04-21T16:00:33Z</time>
      </trkpt>
      <trkpt lat="49.19949" lon="1.29568">
        <ele>113.4</ele>
        <time>2021-04-21T16:00:35Z</time>
      </trkpt>
      <trkpt lat="49.19949" lon="1.29565">
        <ele>113.4</ele>
        <time>2021-04-21T16:00:37Z</time>
      </trkpt>
      <trkpt lat="49.19948" lon="1.29565">
        <ele>113.6</ele>
        <time>2021-04-21T16:00:38Z</time>
      </trkpt>
      <trkpt lat="49.19947" lon="1.29561">
        <ele>114</ele>
        <time>2021-04-21T16:00:41Z</time>
      </trkpt>
      <trkpt lat="49.19945" lon="1.29556">
        <ele>114.6</ele>
        <time>2021-04-21T16:00:43Z</time>
      </trkpt>
      <trkpt lat="49.19936" lon="1.29533">
        <ele>115.2</ele>
        <time>2021-04-21T16:00:49Z</time>
      </trkpt>
      <trkpt lat="49.19933" lon="1.29524">
        <ele>115.4</ele>
        <time>2021-04-21T16:00:53Z</time>
      </trkpt>
      <trkpt lat="49.19933" lon="1.29523">
        <ele>115.4</ele>
        <time>2021-04-21T16:00:54Z</time>
      </trkpt>
      <trkpt lat="49.19935" lon="1.29522">
        <ele>115.4</ele>
        <time>2021-04-21T16:00:56Z</time>
      </trkpt>
      <trkpt lat="49.19937" lon="1.29522">
        <ele>115.4</ele>
        <time>2021-04-21T16:01:00Z</time>
      </trkpt>
      <trkpt lat="49.1994" lon="1.29519">
        <ele>115.8</ele>
        <time>2021-04-21T16:01:07Z</time>
      </trkpt>
      <trkpt lat="49.1994" lon="1.29519">
        <ele>115.8</ele>
        <time>2021-04-21T16:01:09Z</time>
      </trkpt>
      <trkpt lat="49.19942" lon="1.29517">
        <ele>116.2</ele>
        <time>2021-04-21T16:01:31Z</time>
      </trkpt>
      <trkpt lat="49.19943" lon="1.29516">
        <ele>116.2</ele>
        <time>2021-04-21T16:01:32Z</time>
      </trkpt>
      <trkpt lat="49.19956" lon="1.29503">
        <ele>116.4</ele>
        <time>2021-04-21T16:01:39Z</time>
      </trkpt>
      <trkpt lat="49.19968" lon="1.29492">
        <ele>116.8</ele>
        <time>2021-04-21T16:01:45Z</time>
      </trkpt>
      <trkpt lat="49.1997" lon="1.2949">
        <ele>117</ele>
        <time>2021-04-21T16:01:46Z</time>
      </trkpt>
      <trkpt lat="49.19986" lon="1.29473">
        <ele>117.8</ele>
        <time>2021-04-21T16:01:53Z</time>
      </trkpt>
      <trkpt lat="49.19988" lon="1.2947">
        <ele>118</ele>
        <time>2021-04-21T16:01:54Z</time>
      </trkpt>
      <trkpt lat="49.19998" lon="1.29459">
        <ele>119.2</ele>
        <time>2021-04-21T16:01:58Z</time>
      </trkpt>
      <trkpt lat="49.20008" lon="1.29449">
        <ele>119.4</ele>
        <time>2021-04-21T16:02:03Z</time>
      </trkpt>
      <trkpt lat="49.20013" lon="1.29443">
        <ele>119.4</ele>
        <time>2021-04-21T16:02:06Z</time>
      </trkpt>
      <trkpt lat="49.20013" lon="1.29438">
        <ele>119.4</ele>
        <time>2021-04-21T16:02:08Z</time>
      </trkpt>
      <trkpt lat="49.20012" lon="1.29424">
        <ele>119.2</ele>
        <time>2021-04-21T16:02:14Z</time>
      </trkpt>
      <trkpt lat="49.20013" lon="1.29398">
        <ele>119</ele>
        <time>2021-04-21T16:02:21Z</time>
      </trkpt>
      <trkpt lat="49.20013" lon="1.29377">
        <ele>119</ele>
        <time>2021-04-21T16:02:27Z</time>
      </trkpt>
      <trkpt lat="49.20013" lon="1.29373">
        <ele>119</ele>
        <time>2021-04-21T16:02:28Z</time>
      </trkpt>
      <trkpt lat="49.2001" lon="1.29357">
        <ele>119.2</ele>
        <time>2021-04-21T16:02:32Z</time>
      </trkpt>
      <trkpt lat="49.20001" lon="1.29334">
        <ele>119.2</ele>
        <time>2021-04-21T16:02:37Z</time>
      </trkpt>
      <trkpt lat="49.19999" lon="1.29329">
        <ele>119.2</ele>
        <time>2021-04-21T16:02:39Z</time>
      </trkpt>
      <trkpt lat="49.19997" lon="1.29323">
        <ele>119.4</ele>
        <time>2021-04-21T16:02:41Z</time>
      </trkpt>
      <trkpt lat="49.19994" lon="1.29312">
        <ele>119.2</ele>
        <time>2021-04-21T16:02:44Z</time>
      </trkpt>
      <trkpt lat="49.19992" lon="1.29305">
        <ele>119.2</ele>
        <time>2021-04-21T16:02:46Z</time>
      </trkpt>
      <trkpt lat="49.19987" lon="1.29287">
        <ele>119.2</ele>
        <time>2021-04-21T16:02:51Z</time>
      </trkpt>
      <trkpt lat="49.19987" lon="1.29282">
        <ele>119.2</ele>
        <time>2021-04-21T16:02:52Z</time>
      </trkpt>
      <trkpt lat="49.19981" lon="1.29268">
        <ele>120.2</ele>
        <time>2021-04-21T16:02:56Z</time>
      </trkpt>
      <trkpt lat="49.1998" lon="1.29265">
        <ele>120.6</ele>
        <time>2021-04-21T16:02:57Z</time>
      </trkpt>
      <trkpt lat="49.19974" lon="1.29248">
        <ele>121.6</ele>
        <time>2021-04-21T16:03:01Z</time>
      </trkpt>
      <trkpt lat="49.1997" lon="1.29238">
        <ele>121.6</ele>
        <time>2021-04-21T16:03:03Z</time>
      </trkpt>
      <trkpt lat="49.19963" lon="1.2922">
        <ele>121.8</ele>
        <time>2021-04-21T16:03:07Z</time>
      </trkpt>
      <trkpt lat="49.19962" lon="1.29216">
        <ele>121.8</ele>
        <time>2021-04-21T16:03:08Z</time>
      </trkpt>
      <trkpt lat="49.19954" lon="1.29201">
        <ele>121.6</ele>
        <time>2021-04-21T16:03:12Z</time>
      </trkpt>
      <trkpt lat="49.19941" lon="1.29173">
        <ele>121.4</ele>
        <time>2021-04-21T16:03:18Z</time>
      </trkpt>
      <trkpt lat="49.19931" lon="1.29144">
        <ele>121.2</ele>
        <time>2021-04-21T16:03:24Z</time>
      </trkpt>
      <trkpt lat="49.19925" lon="1.29108">
        <ele>121</ele>
        <time>2021-04-21T16:03:30Z</time>
      </trkpt>
      <trkpt lat="49.1992" lon="1.29072">
        <ele>121</ele>
        <time>2021-04-21T16:03:36Z</time>
      </trkpt>
      <trkpt lat="49.19922" lon="1.29042">
        <ele>121.4</ele>
        <time>2021-04-21T16:03:42Z</time>
      </trkpt>
      <trkpt lat="49.19927" lon="1.29018">
        <ele>121.6</ele>
        <time>2021-04-21T16:03:47Z</time>
      </trkpt>
      <trkpt lat="49.19929" lon="1.28992">
        <ele>122.4</ele>
        <time>2021-04-21T16:03:52Z</time>
      </trkpt>
      <trkpt lat="49.19931" lon="1.28984">
        <ele>122.4</ele>
        <time>2021-04-21T16:03:54Z</time>
      </trkpt>
      <trkpt lat="49.19934" lon="1.28978">
        <ele>122.6</ele>
        <time>2021-04-21T16:03:56Z</time>
      </trkpt>
      <trkpt lat="49.1994" lon="1.28961">
        <ele>122.8</ele>
        <time>2021-04-21T16:04:00Z</time>
      </trkpt>
      <trkpt lat="49.19941" lon="1.28955">
        <ele>122.8</ele>
        <time>2021-04-21T16:04:01Z</time>
      </trkpt>
      <trkpt lat="49.19938" lon="1.28928">
        <ele>122.8</ele>
        <time>2021-04-21T16:04:05Z</time>
      </trkpt>
      <trkpt lat="49.19934" lon="1.28888">
        <ele>123</ele>
        <time>2021-04-21T16:04:11Z</time>
      </trkpt>
      <trkpt lat="49.19934" lon="1.28859">
        <ele>123</ele>
        <time>2021-04-21T16:04:16Z</time>
      </trkpt>
      <trkpt lat="49.19935" lon="1.28851">
        <ele>123</ele>
        <time>2021-04-21T16:04:17Z</time>
      </trkpt>
      <trkpt lat="49.19934" lon="1.28832">
        <ele>123</ele>
        <time>2021-04-21T16:04:19Z</time>
      </trkpt>
      <trkpt lat="49.19931" lon="1.28814">
        <ele>122.8</ele>
        <time>2021-04-21T16:04:21Z</time>
      </trkpt>
      <trkpt lat="49.19924" lon="1.28793">
        <ele>122.8</ele>
        <time>2021-04-21T16:04:24Z</time>
      </trkpt>
      <trkpt lat="49.19913" lon="1.2876">
        <ele>122.6</ele>
        <time>2021-04-21T16:04:30Z</time>
      </trkpt>
      <trkpt lat="49.19909" lon="1.28733">
        <ele>122.6</ele>
        <time>2021-04-21T16:04:35Z</time>
      </trkpt>
      <trkpt lat="49.19912" lon="1.28715">
        <ele>123</ele>
        <time>2021-04-21T16:04:38Z</time>
      </trkpt>
      <trkpt lat="49.19915" lon="1.28708">
        <ele>123.2</ele>
        <time>2021-04-21T16:04:39Z</time>
      </trkpt>
      <trkpt lat="49.19919" lon="1.28692">
        <ele>123.2</ele>
        <time>2021-04-21T16:04:41Z</time>
      </trkpt>
      <trkpt lat="49.19924" lon="1.28666">
        <ele>123.2</ele>
        <time>2021-04-21T16:04:44Z</time>
      </trkpt>
      <trkpt lat="49.19925" lon="1.28648">
        <ele>123.2</ele>
        <time>2021-04-21T16:04:46Z</time>
      </trkpt>
      <trkpt lat="49.19926" lon="1.28633">
        <ele>122.6</ele>
        <time>2021-04-21T16:04:48Z</time>
      </trkpt>
      <trkpt lat="49.19924" lon="1.28618">
        <ele>120.6</ele>
        <time>2021-04-21T16:04:50Z</time>
      </trkpt>
      <trkpt lat="49.19922" lon="1.28603">
        <ele>119.8</ele>
        <time>2021-04-21T16:04:52Z</time>
      </trkpt>
      <trkpt lat="49.1992" lon="1.28596">
        <ele>119.4</ele>
        <time>2021-04-21T16:04:53Z</time>
      </trkpt>
      <trkpt lat="49.19915" lon="1.28573">
        <ele>119.2</ele>
        <time>2021-04-21T16:04:56Z</time>
      </trkpt>
      <trkpt lat="49.19911" lon="1.28551">
        <ele>119</ele>
        <time>2021-04-21T16:04:59Z</time>
      </trkpt>
      <trkpt lat="49.19905" lon="1.28519">
        <ele>118.8</ele>
        <time>2021-04-21T16:05:04Z</time>
      </trkpt>
      <trkpt lat="49.19897" lon="1.28481">
        <ele>118.6</ele>
        <time>2021-04-21T16:05:09Z</time>
      </trkpt>
      <trkpt lat="49.19892" lon="1.28446">
        <ele>118.6</ele>
        <time>2021-04-21T16:05:14Z</time>
      </trkpt>
      <trkpt lat="49.1989" lon="1.28408">
        <ele>118.6</ele>
        <time>2021-04-21T16:05:20Z</time>
      </trkpt>
      <trkpt lat="49.19885" lon="1.28383">
        <ele>119.4</ele>
        <time>2021-04-21T16:05:24Z</time>
      </trkpt>
      <trkpt lat="49.19881" lon="1.2836">
        <ele>119.6</ele>
        <time>2021-04-21T16:05:27Z</time>
      </trkpt>
      <trkpt lat="49.19879" lon="1.28343">
        <ele>119.8</ele>
        <time>2021-04-21T16:05:29Z</time>
      </trkpt>
      <trkpt lat="49.19869" lon="1.28304">
        <ele>120.2</ele>
        <time>2021-04-21T16:05:34Z</time>
      </trkpt>
      <trkpt lat="49.19866" lon="1.28293">
        <ele>120.2</ele>
        <time>2021-04-21T16:05:37Z</time>
      </trkpt>
      <trkpt lat="49.19864" lon="1.28281">
        <ele>122.4</ele>
        <time>2021-04-21T16:06:15Z</time>
      </trkpt>
      <trkpt lat="49.19866" lon="1.28261">
        <ele>122.2</ele>
        <time>2021-04-21T16:06:20Z</time>
      </trkpt>
      <trkpt lat="49.19866" lon="1.28231">
        <ele>122.2</ele>
        <time>2021-04-21T16:06:23Z</time>
      </trkpt>
      <trkpt lat="49.19864" lon="1.28179">
        <ele>121.4</ele>
        <time>2021-04-21T16:06:27Z</time>
      </trkpt>
      <trkpt lat="49.19863" lon="1.28166">
        <ele>121</ele>
        <time>2021-04-21T16:06:28Z</time>
      </trkpt>
      <trkpt lat="49.19861" lon="1.28143">
        <ele>119.4</ele>
        <time>2021-04-21T16:06:30Z</time>
      </trkpt>
      <trkpt lat="49.19861" lon="1.28132">
        <ele>118.4</ele>
        <time>2021-04-21T16:06:31Z</time>
      </trkpt>
      <trkpt lat="49.19862" lon="1.28111">
        <ele>116</ele>
        <time>2021-04-21T16:06:33Z</time>
      </trkpt>
      <trkpt lat="49.19862" lon="1.281">
        <ele>114.2</ele>
        <time>2021-04-21T16:06:34Z</time>
      </trkpt>
      <trkpt lat="49.19862" lon="1.28089">
        <ele>112.2</ele>
        <time>2021-04-21T16:06:35Z</time>
      </trkpt>
      <trkpt lat="49.19862" lon="1.28078">
        <ele>110.2</ele>
        <time>2021-04-21T16:06:36Z</time>
      </trkpt>
      <trkpt lat="49.19865" lon="1.28069">
        <ele>108.6</ele>
        <time>2021-04-21T16:06:37Z</time>
      </trkpt>
      <trkpt lat="49.19867" lon="1.2806">
        <ele>107</ele>
        <time>2021-04-21T16:06:38Z</time>
      </trkpt>
      <trkpt lat="49.1987" lon="1.2805">
        <ele>105.6</ele>
        <time>2021-04-21T16:06:39Z</time>
      </trkpt>
      <trkpt lat="49.19874" lon="1.28038">
        <ele>104.4</ele>
        <time>2021-04-21T16:06:40Z</time>
      </trkpt>
      <trkpt lat="49.19879" lon="1.28027">
        <ele>103</ele>
        <time>2021-04-21T16:06:41Z</time>
      </trkpt>
      <trkpt lat="49.19883" lon="1.28016">
        <ele>101.8</ele>
        <time>2021-04-21T16:06:42Z</time>
      </trkpt>
      <trkpt lat="49.19888" lon="1.28005">
        <ele>100.6</ele>
        <time>2021-04-21T16:06:43Z</time>
      </trkpt>
      <trkpt lat="49.19893" lon="1.27994">
        <ele>99.4</ele>
        <time>2021-04-21T16:06:44Z</time>
      </trkpt>
      <trkpt lat="49.19898" lon="1.27985">
        <ele>96.6</ele>
        <time>2021-04-21T16:06:45Z</time>
      </trkpt>
      <trkpt lat="49.19901" lon="1.27976">
        <ele>95.2</ele>
        <time>2021-04-21T16:06:46Z</time>
      </trkpt>
      <trkpt lat="49.19907" lon="1.27965">
        <ele>94</ele>
        <time>2021-04-21T16:06:47Z</time>
      </trkpt>
      <trkpt lat="49.19915" lon="1.27955">
        <ele>92.6</ele>
        <time>2021-04-21T16:06:48Z</time>
      </trkpt>
      <trkpt lat="49.19923" lon="1.27943">
        <ele>90.8</ele>
        <time>2021-04-21T16:06:49Z</time>
      </trkpt>
      <trkpt lat="49.19932" lon="1.27932">
        <ele>89</ele>
        <time>2021-04-21T16:06:50Z</time>
      </trkpt>
      <trkpt lat="49.19942" lon="1.27919">
        <ele>87.4</ele>
        <time>2021-04-21T16:06:51Z</time>
      </trkpt>
      <trkpt lat="49.19951" lon="1.27908">
        <ele>86</ele>
        <time>2021-04-21T16:06:52Z</time>
      </trkpt>
      <trkpt lat="49.19961" lon="1.27898">
        <ele>84.8</ele>
        <time>2021-04-21T16:06:53Z</time>
      </trkpt>
      <trkpt lat="49.19969" lon="1.27889">
        <ele>83.4</ele>
        <time>2021-04-21T16:06:54Z</time>
      </trkpt>
      <trkpt lat="49.19975" lon="1.2788">
        <ele>81.8</ele>
        <time>2021-04-21T16:06:55Z</time>
      </trkpt>
      <trkpt lat="49.19981" lon="1.2787">
        <ele>79.8</ele>
        <time>2021-04-21T16:06:56Z</time>
      </trkpt>
      <trkpt lat="49.19986" lon="1.27861">
        <ele>77.4</ele>
        <time>2021-04-21T16:06:57Z</time>
      </trkpt>
      <trkpt lat="49.19989" lon="1.27849">
        <ele>75.2</ele>
        <time>2021-04-21T16:06:58Z</time>
      </trkpt>
      <trkpt lat="49.19992" lon="1.27837">
        <ele>72.8</ele>
        <time>2021-04-21T16:06:59Z</time>
      </trkpt>
      <trkpt lat="49.19994" lon="1.27826">
        <ele>70.4</ele>
        <time>2021-04-21T16:07:00Z</time>
      </trkpt>
      <trkpt lat="49.19995" lon="1.27815">
        <ele>68.6</ele>
        <time>2021-04-21T16:07:01Z</time>
      </trkpt>
      <trkpt lat="49.19995" lon="1.27805">
        <ele>67.4</ele>
        <time>2021-04-21T16:07:02Z</time>
      </trkpt>
      <trkpt lat="49.19996" lon="1.27796">
        <ele>66.2</ele>
        <time>2021-04-21T16:07:03Z</time>
      </trkpt>
      <trkpt lat="49.19997" lon="1.27789">
        <ele>65.2</ele>
        <time>2021-04-21T16:07:04Z</time>
      </trkpt>
      <trkpt lat="49.19998" lon="1.27782">
        <ele>64.2</ele>
        <time>2021-04-21T16:07:05Z</time>
      </trkpt>
      <trkpt lat="49.19999" lon="1.27776">
        <ele>63.4</ele>
        <time>2021-04-21T16:07:06Z</time>
      </trkpt>
      <trkpt lat="49.20002" lon="1.27766">
        <ele>61</ele>
        <time>2021-04-21T16:07:08Z</time>
      </trkpt>
      <trkpt lat="49.20004" lon="1.2776">
        <ele>59.8</ele>
        <time>2021-04-21T16:07:09Z</time>
      </trkpt>
      <trkpt lat="49.20006" lon="1.27753">
        <ele>58.4</ele>
        <time>2021-04-21T16:07:10Z</time>
      </trkpt>
      <trkpt lat="49.20007" lon="1.27745">
        <ele>57</ele>
        <time>2021-04-21T16:07:11Z</time>
      </trkpt>
      <trkpt lat="49.20008" lon="1.27737">
        <ele>55.6</ele>
        <time>2021-04-21T16:07:12Z</time>
      </trkpt>
      <trkpt lat="49.20011" lon="1.27727">
        <ele>53</ele>
        <time>2021-04-21T16:07:13Z</time>
      </trkpt>
      <trkpt lat="49.20015" lon="1.27717">
        <ele>51.8</ele>
        <time>2021-04-21T16:07:14Z</time>
      </trkpt>
      <trkpt lat="49.20018" lon="1.27707">
        <ele>50.4</ele>
        <time>2021-04-21T16:07:15Z</time>
      </trkpt>
      <trkpt lat="49.20022" lon="1.277">
        <ele>49.2</ele>
        <time>2021-04-21T16:07:16Z</time>
      </trkpt>
      <trkpt lat="49.20027" lon="1.27693">
        <ele>47.8</ele>
        <time>2021-04-21T16:07:17Z</time>
      </trkpt>
      <trkpt lat="49.20031" lon="1.27688">
        <ele>46.6</ele>
        <time>2021-04-21T16:07:18Z</time>
      </trkpt>
      <trkpt lat="49.20033" lon="1.27684">
        <ele>45</ele>
        <time>2021-04-21T16:07:19Z</time>
      </trkpt>
      <trkpt lat="49.20035" lon="1.27682">
        <ele>43.6</ele>
        <time>2021-04-21T16:07:20Z</time>
      </trkpt>
      <trkpt lat="49.20036" lon="1.2768">
        <ele>41.6</ele>
        <time>2021-04-21T16:07:21Z</time>
      </trkpt>
      <trkpt lat="49.20037" lon="1.27678">
        <ele>39.6</ele>
        <time>2021-04-21T16:07:22Z</time>
      </trkpt>
      <trkpt lat="49.20038" lon="1.27676">
        <ele>37.8</ele>
        <time>2021-04-21T16:07:23Z</time>
      </trkpt>
      <trkpt lat="49.20042" lon="1.27672">
        <ele>36.2</ele>
        <time>2021-04-21T16:07:24Z</time>
      </trkpt>
      <trkpt lat="49.20045" lon="1.27667">
        <ele>34.8</ele>
        <time>2021-04-21T16:07:25Z</time>
      </trkpt>
      <trkpt lat="49.20049" lon="1.27661">
        <ele>33.6</ele>
        <time>2021-04-21T16:07:26Z</time>
      </trkpt>
      <trkpt lat="49.20052" lon="1.27655">
        <ele>32.4</ele>
        <time>2021-04-21T16:07:27Z</time>
      </trkpt>
      <trkpt lat="49.20056" lon="1.27646">
        <ele>30.8</ele>
        <time>2021-04-21T16:07:29Z</time>
      </trkpt>
      <trkpt lat="49.20058" lon="1.27644">
        <ele>30.4</ele>
        <time>2021-04-21T16:07:30Z</time>
      </trkpt>
      <trkpt lat="49.20058" lon="1.27643">
        <ele>29.4</ele>
        <time>2021-04-21T16:07:32Z</time>
      </trkpt>
      <trkpt lat="49.2006" lon="1.27641">
        <ele>23.4</ele>
        <time>2021-04-21T16:10:05Z</time>
      </trkpt>
      <trkpt lat="49.20061" lon="1.27643">
        <ele>23.4</ele>
        <time>2021-04-21T16:10:06Z</time>
      </trkpt>
      <trkpt lat="49.20062" lon="1.27659">
        <ele>23.4</ele>
        <time>2021-04-21T16:10:10Z</time>
      </trkpt>
      <trkpt lat="49.20063" lon="1.27671">
        <ele>23.4</ele>
        <time>2021-04-21T16:10:12Z</time>
      </trkpt>
      <trkpt lat="49.20066" lon="1.27686">
        <ele>23.2</ele>
        <time>2021-04-21T16:10:14Z</time>
      </trkpt>
      <trkpt lat="49.20069" lon="1.27719">
        <ele>22.6</ele>
        <time>2021-04-21T16:10:18Z</time>
      </trkpt>
      <trkpt lat="49.20069" lon="1.27725">
        <ele>22.4</ele>
        <time>2021-04-21T16:10:19Z</time>
      </trkpt>
      <trkpt lat="49.20069" lon="1.27742">
        <ele>21.4</ele>
        <time>2021-04-21T16:10:22Z</time>
      </trkpt>
      <trkpt lat="49.20069" lon="1.27758">
        <ele>20.8</ele>
        <time>2021-04-21T16:10:25Z</time>
      </trkpt>
      <trkpt lat="49.20069" lon="1.2779">
        <ele>20.8</ele>
        <time>2021-04-21T16:10:32Z</time>
      </trkpt>
      <trkpt lat="49.20069" lon="1.27813">
        <ele>22.4</ele>
        <time>2021-04-21T16:10:37Z</time>
      </trkpt>
      <trkpt lat="49.20069" lon="1.27831">
        <ele>23.6</ele>
        <time>2021-04-21T16:10:41Z</time>
      </trkpt>
      <trkpt lat="49.20069" lon="1.27836">
        <ele>23.8</ele>
        <time>2021-04-21T16:10:42Z</time>
      </trkpt>
      <trkpt lat="49.2007" lon="1.27856">
        <ele>24.6</ele>
        <time>2021-04-21T16:10:46Z</time>
      </trkpt>
      <trkpt lat="49.20071" lon="1.27863">
        <ele>24.8</ele>
        <time>2021-04-21T16:10:47Z</time>
      </trkpt>
      <trkpt lat="49.20072" lon="1.27869">
        <ele>25</ele>
        <time>2021-04-21T16:10:48Z</time>
      </trkpt>
      <trkpt lat="49.20076" lon="1.27893">
        <ele>25.4</ele>
        <time>2021-04-21T16:10:51Z</time>
      </trkpt>
      <trkpt lat="49.20083" lon="1.27937">
        <ele>25.4</ele>
        <time>2021-04-21T16:10:55Z</time>
      </trkpt>
      <trkpt lat="49.20089" lon="1.28003">
        <ele>25</ele>
        <time>2021-04-21T16:11:00Z</time>
      </trkpt>
      <trkpt lat="49.2009" lon="1.28026">
        <ele>23.2</ele>
        <time>2021-04-21T16:11:02Z</time>
      </trkpt>
      <trkpt lat="49.20091" lon="1.28035">
        <ele>22.4</ele>
        <time>2021-04-21T16:11:03Z</time>
      </trkpt>
      <trkpt lat="49.20091" lon="1.28043">
        <ele>21.6</ele>
        <time>2021-04-21T16:11:04Z</time>
      </trkpt>
      <trkpt lat="49.20093" lon="1.28056">
        <ele>20</ele>
        <time>2021-04-21T16:11:06Z</time>
      </trkpt>
      <trkpt lat="49.20094" lon="1.28068">
        <ele>19.4</ele>
        <time>2021-04-21T16:11:08Z</time>
      </trkpt>
      <trkpt lat="49.20096" lon="1.28087">
        <ele>19.2</ele>
        <time>2021-04-21T16:11:13Z</time>
      </trkpt>
      <trkpt lat="49.20097" lon="1.28107">
        <ele>21.2</ele>
        <time>2021-04-21T16:11:20Z</time>
      </trkpt>
      <trkpt lat="49.20097" lon="1.28111">
        <ele>21.6</ele>
        <time>2021-04-21T16:11:21Z</time>
      </trkpt>
      <trkpt lat="49.20097" lon="1.28118">
        <ele>22.2</ele>
        <time>2021-04-21T16:11:23Z</time>
      </trkpt>
      <trkpt lat="49.20097" lon="1.28127">
        <ele>23.4</ele>
        <time>2021-04-21T16:11:26Z</time>
      </trkpt>
      <trkpt lat="49.20097" lon="1.2813">
        <ele>23.6</ele>
        <time>2021-04-21T16:11:27Z</time>
      </trkpt>
      <trkpt lat="49.20098" lon="1.2814">
        <ele>24.6</ele>
        <time>2021-04-21T16:11:30Z</time>
      </trkpt>
      <trkpt lat="49.201" lon="1.28156">
        <ele>25.8</ele>
        <time>2021-04-21T16:11:34Z</time>
      </trkpt>
      <trkpt lat="49.20103" lon="1.28182">
        <ele>26.6</ele>
        <time>2021-04-21T16:11:39Z</time>
      </trkpt>
      <trkpt lat="49.2011" lon="1.28219">
        <ele>26.8</ele>
        <time>2021-04-21T16:11:43Z</time>
      </trkpt>
      <trkpt lat="49.2012" lon="1.28283">
        <ele>26.8</ele>
        <time>2021-04-21T16:11:49Z</time>
      </trkpt>
      <trkpt lat="49.20122" lon="1.28293">
        <ele>26.4</ele>
        <time>2021-04-21T16:11:50Z</time>
      </trkpt>
      <trkpt lat="49.20125" lon="1.28315">
        <ele>25.2</ele>
        <time>2021-04-21T16:11:52Z</time>
      </trkpt>
      <trkpt lat="49.20128" lon="1.28336">
        <ele>24.2</ele>
        <time>2021-04-21T16:11:54Z</time>
      </trkpt>
      <trkpt lat="49.20132" lon="1.28368">
        <ele>23</ele>
        <time>2021-04-21T16:11:57Z</time>
      </trkpt>
      <trkpt lat="49.20134" lon="1.28387">
        <ele>22</ele>
        <time>2021-04-21T16:11:59Z</time>
      </trkpt>
      <trkpt lat="49.20134" lon="1.28395">
        <ele>21.8</ele>
        <time>2021-04-21T16:12:00Z</time>
      </trkpt>
      <trkpt lat="49.20133" lon="1.2841">
        <ele>21.8</ele>
        <time>2021-04-21T16:12:03Z</time>
      </trkpt>
      <trkpt lat="49.20134" lon="1.28425">
        <ele>21.8</ele>
        <time>2021-04-21T16:12:08Z</time>
      </trkpt>
      <trkpt lat="49.20135" lon="1.28436">
        <ele>23</ele>
        <time>2021-04-21T16:12:12Z</time>
      </trkpt>
      <trkpt lat="49.20135" lon="1.28442">
        <ele>23.6</ele>
        <time>2021-04-21T16:12:14Z</time>
      </trkpt>
      <trkpt lat="49.20135" lon="1.28444">
        <ele>24</ele>
        <time>2021-04-21T16:12:15Z</time>
      </trkpt>
      <trkpt lat="49.20136" lon="1.28452">
        <ele>25</ele>
        <time>2021-04-21T16:12:18Z</time>
      </trkpt>
      <trkpt lat="49.20136" lon="1.28454">
        <ele>25.2</ele>
        <time>2021-04-21T16:12:19Z</time>
      </trkpt>
      <trkpt lat="49.20136" lon="1.28457">
        <ele>25.4</ele>
        <time>2021-04-21T16:12:20Z</time>
      </trkpt>
      <trkpt lat="49.20137" lon="1.28464">
        <ele>26.4</ele>
        <time>2021-04-21T16:12:23Z</time>
      </trkpt>
      <trkpt lat="49.20137" lon="1.28467">
        <ele>26.8</ele>
        <time>2021-04-21T16:12:24Z</time>
      </trkpt>
      <trkpt lat="49.20137" lon="1.28475">
        <ele>28</ele>
        <time>2021-04-21T16:12:27Z</time>
      </trkpt>
      <trkpt lat="49.20137" lon="1.28488">
        <ele>29</ele>
        <time>2021-04-21T16:12:31Z</time>
      </trkpt>
      <trkpt lat="49.20138" lon="1.28495">
        <ele>29.6</ele>
        <time>2021-04-21T16:12:33Z</time>
      </trkpt>
      <trkpt lat="49.20141" lon="1.28507">
        <ele>30</ele>
        <time>2021-04-21T16:12:36Z</time>
      </trkpt>
      <trkpt lat="49.20141" lon="1.28514">
        <ele>30.4</ele>
        <time>2021-04-21T16:12:38Z</time>
      </trkpt>
      <trkpt lat="49.20144" lon="1.28535">
        <ele>30.6</ele>
        <time>2021-04-21T16:12:43Z</time>
      </trkpt>
      <trkpt lat="49.20146" lon="1.2856">
        <ele>30.8</ele>
        <time>2021-04-21T16:12:49Z</time>
      </trkpt>
      <trkpt lat="49.20147" lon="1.2858">
        <ele>30.8</ele>
        <time>2021-04-21T16:12:55Z</time>
      </trkpt>
      <trkpt lat="49.20148" lon="1.28581">
        <ele>31</ele>
        <time>2021-04-21T16:12:57Z</time>
      </trkpt>
      <trkpt lat="49.20148" lon="1.28585">
        <ele>31.6</ele>
        <time>2021-04-21T16:13:02Z</time>
      </trkpt>
      <trkpt lat="49.20149" lon="1.28591">
        <ele>31.6</ele>
        <time>2021-04-21T16:13:04Z</time>
      </trkpt>
      <trkpt lat="49.20151" lon="1.28615">
        <ele>31.6</ele>
        <time>2021-04-21T16:13:09Z</time>
      </trkpt>
      <trkpt lat="49.20153" lon="1.28631">
        <ele>31.6</ele>
        <time>2021-04-21T16:13:11Z</time>
      </trkpt>
      <trkpt lat="49.20156" lon="1.28649">
        <ele>31.4</ele>
        <time>2021-04-21T16:13:13Z</time>
      </trkpt>
      <trkpt lat="49.2016" lon="1.28677">
        <ele>30.8</ele>
        <time>2021-04-21T16:13:17Z</time>
      </trkpt>
      <trkpt lat="49.20161" lon="1.28682">
        <ele>30.6</ele>
        <time>2021-04-21T16:13:18Z</time>
      </trkpt>
      <trkpt lat="49.20166" lon="1.28708">
        <ele>30.2</ele>
        <time>2021-04-21T16:13:24Z</time>
      </trkpt>
      <trkpt lat="49.2017" lon="1.28725">
        <ele>30.2</ele>
        <time>2021-04-21T16:13:27Z</time>
      </trkpt>
      <trkpt lat="49.20175" lon="1.28739">
        <ele>30.6</ele>
        <time>2021-04-21T16:13:29Z</time>
      </trkpt>
      <trkpt lat="49.20191" lon="1.28789">
        <ele>31</ele>
        <time>2021-04-21T16:13:34Z</time>
      </trkpt>
      <trkpt lat="49.2021" lon="1.28854">
        <ele>30.6</ele>
        <time>2021-04-21T16:13:39Z</time>
      </trkpt>
      <trkpt lat="49.20216" lon="1.28881">
        <ele>29.4</ele>
        <time>2021-04-21T16:13:41Z</time>
      </trkpt>
      <trkpt lat="49.20221" lon="1.28907">
        <ele>28</ele>
        <time>2021-04-21T16:13:43Z</time>
      </trkpt>
      <trkpt lat="49.20226" lon="1.28933">
        <ele>25.8</ele>
        <time>2021-04-21T16:13:45Z</time>
      </trkpt>
      <trkpt lat="49.20228" lon="1.28945">
        <ele>24.6</ele>
        <time>2021-04-21T16:13:46Z</time>
      </trkpt>
      <trkpt lat="49.20233" lon="1.28965">
        <ele>22.8</ele>
        <time>2021-04-21T16:13:48Z</time>
      </trkpt>
      <trkpt lat="49.20235" lon="1.28974">
        <ele>22</ele>
        <time>2021-04-21T16:13:49Z</time>
      </trkpt>
      <trkpt lat="49.20236" lon="1.28982">
        <ele>21.6</ele>
        <time>2021-04-21T16:13:50Z</time>
      </trkpt>
      <trkpt lat="49.20242" lon="1.29008">
        <ele>21.2</ele>
        <time>2021-04-21T16:13:54Z</time>
      </trkpt>
      <trkpt lat="49.20249" lon="1.29036">
        <ele>21.4</ele>
        <time>2021-04-21T16:13:59Z</time>
      </trkpt>
      <trkpt lat="49.20255" lon="1.29058">
        <ele>22.8</ele>
        <time>2021-04-21T16:14:02Z</time>
      </trkpt>
      <trkpt lat="49.20259" lon="1.29076">
        <ele>23.2</ele>
        <time>2021-04-21T16:14:04Z</time>
      </trkpt>
      <trkpt lat="49.20269" lon="1.2911">
        <ele>23.4</ele>
        <time>2021-04-21T16:14:08Z</time>
      </trkpt>
      <trkpt lat="49.2027" lon="1.29117">
        <ele>23.4</ele>
        <time>2021-04-21T16:14:09Z</time>
      </trkpt>
      <trkpt lat="49.20276" lon="1.29143">
        <ele>23.2</ele>
        <time>2021-04-21T16:14:14Z</time>
      </trkpt>
      <trkpt lat="49.20284" lon="1.29174">
        <ele>23.2</ele>
        <time>2021-04-21T16:14:20Z</time>
      </trkpt>
      <trkpt lat="49.20294" lon="1.29209">
        <ele>23.4</ele>
        <time>2021-04-21T16:14:25Z</time>
      </trkpt>
      <trkpt lat="49.20302" lon="1.29237">
        <ele>23.6</ele>
        <time>2021-04-21T16:14:30Z</time>
      </trkpt>
      <trkpt lat="49.20313" lon="1.29272">
        <ele>23.6</ele>
        <time>2021-04-21T16:14:37Z</time>
      </trkpt>
      <trkpt lat="49.20326" lon="1.29309">
        <ele>23</ele>
        <time>2021-04-21T16:14:43Z</time>
      </trkpt>
      <trkpt lat="49.20333" lon="1.29342">
        <ele>22.8</ele>
        <time>2021-04-21T16:14:49Z</time>
      </trkpt>
      <trkpt lat="49.20342" lon="1.29378">
        <ele>22.8</ele>
        <time>2021-04-21T16:14:56Z</time>
      </trkpt>
      <trkpt lat="49.20352" lon="1.29413">
        <ele>23.2</ele>
        <time>2021-04-21T16:15:02Z</time>
      </trkpt>
      <trkpt lat="49.20361" lon="1.29447">
        <ele>23.4</ele>
        <time>2021-04-21T16:15:08Z</time>
      </trkpt>
      <trkpt lat="49.20364" lon="1.2946">
        <ele>23.4</ele>
        <time>2021-04-21T16:15:10Z</time>
      </trkpt>
      <trkpt lat="49.20371" lon="1.29492">
        <ele>23.2</ele>
        <time>2021-04-21T16:15:16Z</time>
      </trkpt>
      <trkpt lat="49.20374" lon="1.2951">
        <ele>23.2</ele>
        <time>2021-04-21T16:15:21Z</time>
      </trkpt>
      <trkpt lat="49.20374" lon="1.29512">
        <ele>23.2</ele>
        <time>2021-04-21T16:15:23Z</time>
      </trkpt>
      <trkpt lat="49.20375" lon="1.29516">
        <ele>23.6</ele>
        <time>2021-04-21T16:15:26Z</time>
      </trkpt>
      <trkpt lat="49.20376" lon="1.29519">
        <ele>23.8</ele>
        <time>2021-04-21T16:15:27Z</time>
      </trkpt>
      <trkpt lat="49.2038" lon="1.29538">
        <ele>24.8</ele>
        <time>2021-04-21T16:15:32Z</time>
      </trkpt>
      <trkpt lat="49.20381" lon="1.29546">
        <ele>25</ele>
        <time>2021-04-21T16:15:34Z</time>
      </trkpt>
      <trkpt lat="49.20384" lon="1.29571">
        <ele>25.4</ele>
        <time>2021-04-21T16:15:40Z</time>
      </trkpt>
      <trkpt lat="49.20386" lon="1.29583">
        <ele>25.8</ele>
        <time>2021-04-21T16:15:43Z</time>
      </trkpt>
      <trkpt lat="49.20388" lon="1.29594">
        <ele>26.4</ele>
        <time>2021-04-21T16:15:46Z</time>
      </trkpt>
      <trkpt lat="49.20389" lon="1.29605">
        <ele>27</ele>
        <time>2021-04-21T16:15:49Z</time>
      </trkpt>
      <trkpt lat="49.20391" lon="1.2962">
        <ele>27.4</ele>
        <time>2021-04-21T16:15:53Z</time>
      </trkpt>
      <trkpt lat="49.20392" lon="1.2964">
        <ele>28</ele>
        <time>2021-04-21T16:15:58Z</time>
      </trkpt>
      <trkpt lat="49.20392" lon="1.29644">
        <ele>28</ele>
        <time>2021-04-21T16:15:59Z</time>
      </trkpt>
      <trkpt lat="49.20395" lon="1.29676">
        <ele>28.6</ele>
        <time>2021-04-21T16:16:06Z</time>
      </trkpt>
      <trkpt lat="49.20396" lon="1.2969">
        <ele>29</ele>
        <time>2021-04-21T16:16:09Z</time>
      </trkpt>
      <trkpt lat="49.20397" lon="1.29713">
        <ele>29.4</ele>
        <time>2021-04-21T16:16:14Z</time>
      </trkpt>
      <trkpt lat="49.204" lon="1.29749">
        <ele>30</ele>
        <time>2021-04-21T16:16:23Z</time>
      </trkpt>
      <trkpt lat="49.20401" lon="1.29788">
        <ele>31.2</ele>
        <time>2021-04-21T16:16:33Z</time>
      </trkpt>
      <trkpt lat="49.20403" lon="1.29817">
        <ele>32.2</ele>
        <time>2021-04-21T16:16:40Z</time>
      </trkpt>
      <trkpt lat="49.20403" lon="1.29825">
        <ele>32.6</ele>
        <time>2021-04-21T16:16:42Z</time>
      </trkpt>
      <trkpt lat="49.20406" lon="1.29851">
        <ele>33.2</ele>
        <time>2021-04-21T16:16:48Z</time>
      </trkpt>
      <trkpt lat="49.20406" lon="1.29859">
        <ele>33.4</ele>
        <time>2021-04-21T16:16:50Z</time>
      </trkpt>
      <trkpt lat="49.20408" lon="1.29879">
        <ele>34.2</ele>
        <time>2021-04-21T16:16:55Z</time>
      </trkpt>
      <trkpt lat="49.2041" lon="1.29896">
        <ele>34.8</ele>
        <time>2021-04-21T16:16:59Z</time>
      </trkpt>
      <trkpt lat="49.20412" lon="1.29925">
        <ele>35.4</ele>
        <time>2021-04-21T16:17:06Z</time>
      </trkpt>
      <trkpt lat="49.20413" lon="1.29938">
        <ele>36</ele>
        <time>2021-04-21T16:17:09Z</time>
      </trkpt>
      <trkpt lat="49.20414" lon="1.2995">
        <ele>36.6</ele>
        <time>2021-04-21T16:17:12Z</time>
      </trkpt>
      <trkpt lat="49.20414" lon="1.29966">
        <ele>37.6</ele>
        <time>2021-04-21T16:17:16Z</time>
      </trkpt>
      <trkpt lat="49.20415" lon="1.29974">
        <ele>38</ele>
        <time>2021-04-21T16:17:18Z</time>
      </trkpt>
      <trkpt lat="49.20416" lon="1.29995">
        <ele>38.6</ele>
        <time>2021-04-21T16:17:23Z</time>
      </trkpt>
      <trkpt lat="49.20418" lon="1.30021">
        <ele>39.8</ele>
        <time>2021-04-21T16:17:29Z</time>
      </trkpt>
      <trkpt lat="49.20419" lon="1.30051">
        <ele>41</ele>
        <time>2021-04-21T16:17:36Z</time>
      </trkpt>
      <trkpt lat="49.20419" lon="1.30069">
        <ele>41.6</ele>
        <time>2021-04-21T16:17:40Z</time>
      </trkpt>
      <trkpt lat="49.20419" lon="1.30078">
        <ele>42</ele>
        <time>2021-04-21T16:17:42Z</time>
      </trkpt>
      <trkpt lat="49.2042" lon="1.30103">
        <ele>42.4</ele>
        <time>2021-04-21T16:17:48Z</time>
      </trkpt>
      <trkpt lat="49.20422" lon="1.30131">
        <ele>43</ele>
        <time>2021-04-21T16:17:54Z</time>
      </trkpt>
      <trkpt lat="49.20423" lon="1.30159">
        <ele>43.6</ele>
        <time>2021-04-21T16:18:00Z</time>
      </trkpt>
      <trkpt lat="49.20423" lon="1.30188">
        <ele>44</ele>
        <time>2021-04-21T16:18:06Z</time>
      </trkpt>
      <trkpt lat="49.20421" lon="1.30207">
        <ele>44.2</ele>
        <time>2021-04-21T16:18:10Z</time>
      </trkpt>
      <trkpt lat="49.20412" lon="1.30257">
        <ele>44.8</ele>
        <time>2021-04-21T16:18:21Z</time>
      </trkpt>
      <trkpt lat="49.20409" lon="1.30279">
        <ele>45.2</ele>
        <time>2021-04-21T16:18:26Z</time>
      </trkpt>
      <trkpt lat="49.20408" lon="1.30296">
        <ele>46.2</ele>
        <time>2021-04-21T16:18:30Z</time>
      </trkpt>
      <trkpt lat="49.20407" lon="1.303">
        <ele>46.2</ele>
        <time>2021-04-21T16:18:31Z</time>
      </trkpt>
      <trkpt lat="49.20403" lon="1.30324">
        <ele>47.4</ele>
        <time>2021-04-21T16:18:37Z</time>
      </trkpt>
      <trkpt lat="49.20402" lon="1.30332">
        <ele>47.6</ele>
        <time>2021-04-21T16:18:39Z</time>
      </trkpt>
      <trkpt lat="49.204" lon="1.30344">
        <ele>48.4</ele>
        <time>2021-04-21T16:18:42Z</time>
      </trkpt>
      <trkpt lat="49.20396" lon="1.30361">
        <ele>49.6</ele>
        <time>2021-04-21T16:18:46Z</time>
      </trkpt>
      <trkpt lat="49.20392" lon="1.30382">
        <ele>50.8</ele>
        <time>2021-04-21T16:18:51Z</time>
      </trkpt>
      <trkpt lat="49.20389" lon="1.30393">
        <ele>51</ele>
        <time>2021-04-21T16:18:54Z</time>
      </trkpt>
      <trkpt lat="49.20382" lon="1.30417">
        <ele>51.8</ele>
        <time>2021-04-21T16:19:00Z</time>
      </trkpt>
      <trkpt lat="49.20376" lon="1.30431">
        <ele>52.4</ele>
        <time>2021-04-21T16:19:04Z</time>
      </trkpt>
      <trkpt lat="49.20369" lon="1.30446">
        <ele>53</ele>
        <time>2021-04-21T16:19:08Z</time>
      </trkpt>
      <trkpt lat="49.2036" lon="1.30462">
        <ele>53.8</ele>
        <time>2021-04-21T16:19:13Z</time>
      </trkpt>
      <trkpt lat="49.20357" lon="1.30469">
        <ele>54</ele>
        <time>2021-04-21T16:19:15Z</time>
      </trkpt>
      <trkpt lat="49.20349" lon="1.30484">
        <ele>54.8</ele>
        <time>2021-04-21T16:19:20Z</time>
      </trkpt>
      <trkpt lat="49.20346" lon="1.3049">
        <ele>55.2</ele>
        <time>2021-04-21T16:19:22Z</time>
      </trkpt>
      <trkpt lat="49.20341" lon="1.30508">
        <ele>56</ele>
        <time>2021-04-21T16:19:26Z</time>
      </trkpt>
      <trkpt lat="49.20339" lon="1.30513">
        <ele>56.4</ele>
        <time>2021-04-21T16:19:27Z</time>
      </trkpt>
      <trkpt lat="49.20333" lon="1.3054">
        <ele>57.4</ele>
        <time>2021-04-21T16:19:32Z</time>
      </trkpt>
      <trkpt lat="49.20332" lon="1.30546">
        <ele>57.4</ele>
        <time>2021-04-21T16:19:33Z</time>
      </trkpt>
      <trkpt lat="49.20324" lon="1.306">
        <ele>57.6</ele>
        <time>2021-04-21T16:19:43Z</time>
      </trkpt>
      <trkpt lat="49.20317" lon="1.30638">
        <ele>58.4</ele>
        <time>2021-04-21T16:19:50Z</time>
      </trkpt>
      <trkpt lat="49.20315" lon="1.30649">
        <ele>58.6</ele>
        <time>2021-04-21T16:19:52Z</time>
      </trkpt>
      <trkpt lat="49.20305" lon="1.3069">
        <ele>59</ele>
        <time>2021-04-21T16:19:59Z</time>
      </trkpt>
      <trkpt lat="49.20296" lon="1.30731">
        <ele>59.2</ele>
        <time>2021-04-21T16:20:06Z</time>
      </trkpt>
      <trkpt lat="49.20288" lon="1.30778">
        <ele>59</ele>
        <time>2021-04-21T16:20:13Z</time>
      </trkpt>
      <trkpt lat="49.20282" lon="1.30843">
        <ele>58.6</ele>
        <time>2021-04-21T16:20:22Z</time>
      </trkpt>
      <trkpt lat="49.20277" lon="1.30901">
        <ele>57.8</ele>
        <time>2021-04-21T16:20:30Z</time>
      </trkpt>
      <trkpt lat="49.2027" lon="1.30972">
        <ele>57.4</ele>
        <time>2021-04-21T16:20:40Z</time>
      </trkpt>
      <trkpt lat="49.20265" lon="1.31028">
        <ele>57.4</ele>
        <time>2021-04-21T16:20:48Z</time>
      </trkpt>
      <trkpt lat="49.20264" lon="1.31049">
        <ele>57.2</ele>
        <time>2021-04-21T16:20:51Z</time>
      </trkpt>
      <trkpt lat="49.20262" lon="1.31077">
        <ele>57.2</ele>
        <time>2021-04-21T16:20:55Z</time>
      </trkpt>
      <trkpt lat="49.20261" lon="1.31083">
        <ele>57.2</ele>
        <time>2021-04-21T16:20:56Z</time>
      </trkpt>
      <trkpt lat="49.20261" lon="1.3111">
        <ele>57</ele>
        <time>2021-04-21T16:21:00Z</time>
      </trkpt>
      <trkpt lat="49.20262" lon="1.31134">
        <ele>57</ele>
        <time>2021-04-21T16:21:04Z</time>
      </trkpt>
      <trkpt lat="49.2026" lon="1.31146">
        <ele>56.8</ele>
        <time>2021-04-21T16:21:06Z</time>
      </trkpt>
      <trkpt lat="49.2026" lon="1.31175">
        <ele>56.4</ele>
        <time>2021-04-21T16:21:10Z</time>
      </trkpt>
      <trkpt lat="49.2026" lon="1.31189">
        <ele>56.2</ele>
        <time>2021-04-21T16:21:12Z</time>
      </trkpt>
      <trkpt lat="49.2026" lon="1.31205">
        <ele>56</ele>
        <time>2021-04-21T16:21:14Z</time>
      </trkpt>
      <trkpt lat="49.20257" lon="1.31233">
        <ele>55.6</ele>
        <time>2021-04-21T16:21:17Z</time>
      </trkpt>
      <trkpt lat="49.20255" lon="1.31252">
        <ele>55.4</ele>
        <time>2021-04-21T16:21:19Z</time>
      </trkpt>
      <trkpt lat="49.20249" lon="1.31301">
        <ele>54.2</ele>
        <time>2021-04-21T16:21:24Z</time>
      </trkpt>
      <trkpt lat="49.2025" lon="1.31349">
        <ele>53</ele>
        <time>2021-04-21T16:21:28Z</time>
      </trkpt>
      <trkpt lat="49.2025" lon="1.31374">
        <ele>52.2</ele>
        <time>2021-04-21T16:21:30Z</time>
      </trkpt>
      <trkpt lat="49.20251" lon="1.31386">
        <ele>51.6</ele>
        <time>2021-04-21T16:21:31Z</time>
      </trkpt>
      <trkpt lat="49.20253" lon="1.31413">
        <ele>50.6</ele>
        <time>2021-04-21T16:21:33Z</time>
      </trkpt>
      <trkpt lat="49.20253" lon="1.31441">
        <ele>49.6</ele>
        <time>2021-04-21T16:21:35Z</time>
      </trkpt>
      <trkpt lat="49.20253" lon="1.31454">
        <ele>49</ele>
        <time>2021-04-21T16:21:36Z</time>
      </trkpt>
      <trkpt lat="49.20252" lon="1.31468">
        <ele>48.4</ele>
        <time>2021-04-21T16:21:37Z</time>
      </trkpt>
      <trkpt lat="49.2025" lon="1.31495">
        <ele>47</ele>
        <time>2021-04-21T16:21:39Z</time>
      </trkpt>
      <trkpt lat="49.20248" lon="1.31508">
        <ele>46.4</ele>
        <time>2021-04-21T16:21:40Z</time>
      </trkpt>
      <trkpt lat="49.20245" lon="1.31522">
        <ele>45.8</ele>
        <time>2021-04-21T16:21:41Z</time>
      </trkpt>
      <trkpt lat="49.20242" lon="1.31536">
        <ele>45.2</ele>
        <time>2021-04-21T16:21:42Z</time>
      </trkpt>
      <trkpt lat="49.2024" lon="1.3155">
        <ele>44.4</ele>
        <time>2021-04-21T16:21:43Z</time>
      </trkpt>
      <trkpt lat="49.20238" lon="1.31562">
        <ele>43.8</ele>
        <time>2021-04-21T16:21:44Z</time>
      </trkpt>
      <trkpt lat="49.20237" lon="1.31572">
        <ele>43</ele>
        <time>2021-04-21T16:21:45Z</time>
      </trkpt>
      <trkpt lat="49.20237" lon="1.31578">
        <ele>42</ele>
        <time>2021-04-21T16:21:46Z</time>
      </trkpt>
      <trkpt lat="49.20236" lon="1.31584">
        <ele>41.2</ele>
        <time>2021-04-21T16:21:47Z</time>
      </trkpt>
      <trkpt lat="49.20232" lon="1.31593">
        <ele>39.2</ele>
        <time>2021-04-21T16:21:49Z</time>
      </trkpt>
      <trkpt lat="49.20229" lon="1.31599">
        <ele>38.2</ele>
        <time>2021-04-21T16:21:50Z</time>
      </trkpt>
      <trkpt lat="49.20225" lon="1.31604">
        <ele>37</ele>
        <time>2021-04-21T16:21:51Z</time>
      </trkpt>
      <trkpt lat="49.20221" lon="1.3161">
        <ele>35.8</ele>
        <time>2021-04-21T16:21:52Z</time>
      </trkpt>
      <trkpt lat="49.20212" lon="1.31622">
        <ele>34.6</ele>
        <time>2021-04-21T16:21:54Z</time>
      </trkpt>
      <trkpt lat="49.20203" lon="1.31634">
        <ele>34.2</ele>
        <time>2021-04-21T16:21:56Z</time>
      </trkpt>
      <trkpt lat="49.20179" lon="1.31661">
        <ele>33.4</ele>
        <time>2021-04-21T16:22:01Z</time>
      </trkpt>
      <trkpt lat="49.2017" lon="1.31668">
        <ele>33.2</ele>
        <time>2021-04-21T16:22:03Z</time>
      </trkpt>
      <trkpt lat="49.20144" lon="1.31685">
        <ele>33.2</ele>
        <time>2021-04-21T16:22:09Z</time>
      </trkpt>
      <trkpt lat="49.20126" lon="1.31702">
        <ele>33.8</ele>
        <time>2021-04-21T16:22:15Z</time>
      </trkpt>
      <trkpt lat="49.20119" lon="1.31715">
        <ele>34.6</ele>
        <time>2021-04-21T16:22:18Z</time>
      </trkpt>
      <trkpt lat="49.20115" lon="1.31729">
        <ele>35.4</ele>
        <time>2021-04-21T16:22:21Z</time>
      </trkpt>
      <trkpt lat="49.20115" lon="1.31734">
        <ele>35.8</ele>
        <time>2021-04-21T16:22:22Z</time>
      </trkpt>
      <trkpt lat="49.20114" lon="1.31748">
        <ele>36.8</ele>
        <time>2021-04-21T16:22:25Z</time>
      </trkpt>
      <trkpt lat="49.20114" lon="1.31763">
        <ele>37.6</ele>
        <time>2021-04-21T16:22:28Z</time>
      </trkpt>
      <trkpt lat="49.20116" lon="1.31772">
        <ele>38</ele>
        <time>2021-04-21T16:22:30Z</time>
      </trkpt>
      <trkpt lat="49.20123" lon="1.31793">
        <ele>38.2</ele>
        <time>2021-04-21T16:22:35Z</time>
      </trkpt>
      <trkpt lat="49.20125" lon="1.31805">
        <ele>38.8</ele>
        <time>2021-04-21T16:22:38Z</time>
      </trkpt>
      <trkpt lat="49.20124" lon="1.31809">
        <ele>39</ele>
        <time>2021-04-21T16:22:39Z</time>
      </trkpt>
      <trkpt lat="49.20117" lon="1.31821">
        <ele>39.6</ele>
        <time>2021-04-21T16:22:44Z</time>
      </trkpt>
      <trkpt lat="49.20115" lon="1.31825">
        <ele>39.8</ele>
        <time>2021-04-21T16:22:46Z</time>
      </trkpt>
      <trkpt lat="49.20108" lon="1.31838">
        <ele>41</ele>
        <time>2021-04-21T16:22:52Z</time>
      </trkpt>
      <trkpt lat="49.20106" lon="1.31842">
        <ele>41.6</ele>
        <time>2021-04-21T16:22:54Z</time>
      </trkpt>
      <trkpt lat="49.20104" lon="1.31848">
        <ele>42.2</ele>
        <time>2021-04-21T16:22:57Z</time>
      </trkpt>
      <trkpt lat="49.201" lon="1.31856">
        <ele>43.2</ele>
        <time>2021-04-21T16:23:01Z</time>
      </trkpt>
      <trkpt lat="49.20098" lon="1.31863">
        <ele>44</ele>
        <time>2021-04-21T16:23:04Z</time>
      </trkpt>
      <trkpt lat="49.20096" lon="1.31867">
        <ele>44.2</ele>
        <time>2021-04-21T16:23:06Z</time>
      </trkpt>
      <trkpt lat="49.20091" lon="1.31879">
        <ele>45.4</ele>
        <time>2021-04-21T16:23:12Z</time>
      </trkpt>
      <trkpt lat="49.20087" lon="1.31889">
        <ele>46.6</ele>
        <time>2021-04-21T16:23:17Z</time>
      </trkpt>
      <trkpt lat="49.20083" lon="1.31898">
        <ele>47.4</ele>
        <time>2021-04-21T16:23:21Z</time>
      </trkpt>
      <trkpt lat="49.20081" lon="1.31902">
        <ele>47.6</ele>
        <time>2021-04-21T16:23:23Z</time>
      </trkpt>
      <trkpt lat="49.20077" lon="1.3191">
        <ele>48.6</ele>
        <time>2021-04-21T16:23:27Z</time>
      </trkpt>
      <trkpt lat="49.20074" lon="1.31915">
        <ele>49.2</ele>
        <time>2021-04-21T16:23:30Z</time>
      </trkpt>
      <trkpt lat="49.20071" lon="1.31922">
        <ele>49.6</ele>
        <time>2021-04-21T16:23:33Z</time>
      </trkpt>
      <trkpt lat="49.20063" lon="1.31932">
        <ele>50.6</ele>
        <time>2021-04-21T16:23:39Z</time>
      </trkpt>
      <trkpt lat="49.20062" lon="1.31934">
        <ele>50.8</ele>
        <time>2021-04-21T16:23:40Z</time>
      </trkpt>
      <trkpt lat="49.20056" lon="1.31943">
        <ele>52</ele>
        <time>2021-04-21T16:23:45Z</time>
      </trkpt>
      <trkpt lat="49.20052" lon="1.31948">
        <ele>52.8</ele>
        <time>2021-04-21T16:23:48Z</time>
      </trkpt>
      <trkpt lat="49.2005" lon="1.3195">
        <ele>53</ele>
        <time>2021-04-21T16:23:49Z</time>
      </trkpt>
      <trkpt lat="49.20039" lon="1.31967">
        <ele>54</ele>
        <time>2021-04-21T16:23:57Z</time>
      </trkpt>
      <trkpt lat="49.20028" lon="1.31983">
        <ele>54.6</ele>
        <time>2021-04-21T16:24:04Z</time>
      </trkpt>
      <trkpt lat="49.20019" lon="1.31976">
        <ele>55</ele>
        <time>2021-04-21T16:24:08Z</time>
      </trkpt>
      <trkpt lat="49.20004" lon="1.31966">
        <ele>55.6</ele>
        <time>2021-04-21T16:24:14Z</time>
      </trkpt>
      <trkpt lat="49.19978" lon="1.31952">
        <ele>56.2</ele>
        <time>2021-04-21T16:24:23Z</time>
      </trkpt>
      <trkpt lat="49.19969" lon="1.31947">
        <ele>56.6</ele>
        <time>2021-04-21T16:24:26Z</time>
      </trkpt>
      <trkpt lat="49.19957" lon="1.3194">
        <ele>57.2</ele>
        <time>2021-04-21T16:24:30Z</time>
      </trkpt>
      <trkpt lat="49.19943" lon="1.31933">
        <ele>57.2</ele>
        <time>2021-04-21T16:24:34Z</time>
      </trkpt>
      <trkpt lat="49.19914" lon="1.31916">
        <ele>58.2</ele>
        <time>2021-04-21T16:24:43Z</time>
      </trkpt>
      <trkpt lat="49.19891" lon="1.31897">
        <ele>58.8</ele>
        <time>2021-04-21T16:24:50Z</time>
      </trkpt>
      <trkpt lat="49.19891" lon="1.31873">
        <ele>59.2</ele>
        <time>2021-04-21T16:24:54Z</time>
      </trkpt>
      <trkpt lat="49.19896" lon="1.31863">
        <ele>59.2</ele>
        <time>2021-04-21T16:24:56Z</time>
      </trkpt>
      <trkpt lat="49.19904" lon="1.31847">
        <ele>59.4</ele>
        <time>2021-04-21T16:24:59Z</time>
      </trkpt>
      <trkpt lat="49.19923" lon="1.31807">
        <ele>59.4</ele>
        <time>2021-04-21T16:25:06Z</time>
      </trkpt>
      <trkpt lat="49.19924" lon="1.31784">
        <ele>59.2</ele>
        <time>2021-04-21T16:25:09Z</time>
      </trkpt>
      <trkpt lat="49.19917" lon="1.31761">
        <ele>59</ele>
        <time>2021-04-21T16:25:12Z</time>
      </trkpt>
      <trkpt lat="49.19911" lon="1.31748">
        <ele>58.8</ele>
        <time>2021-04-21T16:25:14Z</time>
      </trkpt>
      <trkpt lat="49.19897" lon="1.31721">
        <ele>58.4</ele>
        <time>2021-04-21T16:25:19Z</time>
      </trkpt>
      <trkpt lat="49.19872" lon="1.31682">
        <ele>58.6</ele>
        <time>2021-04-21T16:25:27Z</time>
      </trkpt>
      <trkpt lat="49.19844" lon="1.31654">
        <ele>59.6</ele>
        <time>2021-04-21T16:25:35Z</time>
      </trkpt>
      <trkpt lat="49.19823" lon="1.31634">
        <ele>60.2</ele>
        <time>2021-04-21T16:25:41Z</time>
      </trkpt>
      <trkpt lat="49.19809" lon="1.3162">
        <ele>60.6</ele>
        <time>2021-04-21T16:25:45Z</time>
      </trkpt>
      <trkpt lat="49.19789" lon="1.31597">
        <ele>61.4</ele>
        <time>2021-04-21T16:25:51Z</time>
      </trkpt>
      <trkpt lat="49.19776" lon="1.3158">
        <ele>62</ele>
        <time>2021-04-21T16:25:55Z</time>
      </trkpt>
      <trkpt lat="49.19758" lon="1.31553">
        <ele>62.6</ele>
        <time>2021-04-21T16:26:01Z</time>
      </trkpt>
      <trkpt lat="49.19743" lon="1.31531">
        <ele>63</ele>
        <time>2021-04-21T16:26:06Z</time>
      </trkpt>
      <trkpt lat="49.19728" lon="1.31503">
        <ele>63.4</ele>
        <time>2021-04-21T16:26:13Z</time>
      </trkpt>
      <trkpt lat="49.19726" lon="1.31501">
        <ele>63.4</ele>
        <time>2021-04-21T16:26:14Z</time>
      </trkpt>
      <trkpt lat="49.19723" lon="1.31505">
        <ele>63.6</ele>
        <time>2021-04-21T16:26:16Z</time>
      </trkpt>
      <trkpt lat="49.19723" lon="1.31508">
        <ele>63.6</ele>
        <time>2021-04-21T16:26:17Z</time>
      </trkpt>
      <trkpt lat="49.19724" lon="1.31529">
        <ele>64</ele>
        <time>2021-04-21T16:26:22Z</time>
      </trkpt>
      <trkpt lat="49.19723" lon="1.31563">
        <ele>64</ele>
        <time>2021-04-21T16:26:28Z</time>
      </trkpt>
      <trkpt lat="49.19716" lon="1.31627">
        <ele>63.6</ele>
        <time>2021-04-21T16:26:38Z</time>
      </trkpt>
      <trkpt lat="49.19711" lon="1.31658">
        <ele>63.6</ele>
        <time>2021-04-21T16:26:43Z</time>
      </trkpt>
      <trkpt lat="49.19706" lon="1.31683">
        <ele>63.6</ele>
        <time>2021-04-21T16:26:47Z</time>
      </trkpt>
      <trkpt lat="49.19686" lon="1.31743">
        <ele>64</ele>
        <time>2021-04-21T16:26:57Z</time>
      </trkpt>
      <trkpt lat="49.1967" lon="1.31785">
        <ele>64.2</ele>
        <time>2021-04-21T16:27:04Z</time>
      </trkpt>
      <trkpt lat="49.19665" lon="1.31796">
        <ele>64.2</ele>
        <time>2021-04-21T16:27:06Z</time>
      </trkpt>
      <trkpt lat="49.19663" lon="1.31808">
        <ele>64.4</ele>
        <time>2021-04-21T16:27:08Z</time>
      </trkpt>
      <trkpt lat="49.19666" lon="1.31825">
        <ele>64.6</ele>
        <time>2021-04-21T16:27:11Z</time>
      </trkpt>
      <trkpt lat="49.19668" lon="1.31831">
        <ele>64.6</ele>
        <time>2021-04-21T16:27:12Z</time>
      </trkpt>
      <trkpt lat="49.19675" lon="1.31849">
        <ele>64.6</ele>
        <time>2021-04-21T16:27:15Z</time>
      </trkpt>
      <trkpt lat="49.19682" lon="1.31875">
        <ele>64.8</ele>
        <time>2021-04-21T16:27:19Z</time>
      </trkpt>
      <trkpt lat="49.19687" lon="1.31907">
        <ele>64.8</ele>
        <time>2021-04-21T16:27:24Z</time>
      </trkpt>
      <trkpt lat="49.19687" lon="1.31913">
        <ele>64.8</ele>
        <time>2021-04-21T16:27:25Z</time>
      </trkpt>
      <trkpt lat="49.19683" lon="1.31973">
        <ele>64.6</ele>
        <time>2021-04-21T16:27:34Z</time>
      </trkpt>
      <trkpt lat="49.19673" lon="1.32031">
        <ele>64.4</ele>
        <time>2021-04-21T16:27:43Z</time>
      </trkpt>
      <trkpt lat="49.19661" lon="1.32081">
        <ele>64.2</ele>
        <time>2021-04-21T16:27:51Z</time>
      </trkpt>
      <trkpt lat="49.19647" lon="1.32128">
        <ele>64.4</ele>
        <time>2021-04-21T16:27:59Z</time>
      </trkpt>
      <trkpt lat="49.19629" lon="1.32173">
        <ele>64.6</ele>
        <time>2021-04-21T16:28:07Z</time>
      </trkpt>
      <trkpt lat="49.19609" lon="1.32211">
        <ele>65.2</ele>
        <time>2021-04-21T16:28:15Z</time>
      </trkpt>
      <trkpt lat="49.19597" lon="1.32233">
        <ele>65.2</ele>
        <time>2021-04-21T16:28:20Z</time>
      </trkpt>
      <trkpt lat="49.19588" lon="1.32259">
        <ele>65.4</ele>
        <time>2021-04-21T16:28:25Z</time>
      </trkpt>
      <trkpt lat="49.19585" lon="1.32264">
        <ele>65.4</ele>
        <time>2021-04-21T16:28:26Z</time>
      </trkpt>
      <trkpt lat="49.19578" lon="1.3228">
        <ele>65.4</ele>
        <time>2021-04-21T16:28:29Z</time>
      </trkpt>
      <trkpt lat="49.19571" lon="1.32294">
        <ele>65.6</ele>
        <time>2021-04-21T16:28:32Z</time>
      </trkpt>
      <trkpt lat="49.19564" lon="1.32307">
        <ele>65.6</ele>
        <time>2021-04-21T16:28:35Z</time>
      </trkpt>
      <trkpt lat="49.19558" lon="1.32319">
        <ele>65.6</ele>
        <time>2021-04-21T16:28:37Z</time>
      </trkpt>
      <trkpt lat="49.19552" lon="1.3233">
        <ele>65.8</ele>
        <time>2021-04-21T16:28:39Z</time>
      </trkpt>
      <trkpt lat="49.19546" lon="1.3234">
        <ele>66</ele>
        <time>2021-04-21T16:28:41Z</time>
      </trkpt>
      <trkpt lat="49.19543" lon="1.32344">
        <ele>66</ele>
        <time>2021-04-21T16:28:42Z</time>
      </trkpt>
      <trkpt lat="49.1954" lon="1.32348">
        <ele>66</ele>
        <time>2021-04-21T16:28:43Z</time>
      </trkpt>
      <trkpt lat="49.19534" lon="1.32365">
        <ele>66</ele>
        <time>2021-04-21T16:28:46Z</time>
      </trkpt>
      <trkpt lat="49.19532" lon="1.32371">
        <ele>66.2</ele>
        <time>2021-04-21T16:28:47Z</time>
      </trkpt>
      <trkpt lat="49.19518" lon="1.32409">
        <ele>66.4</ele>
        <time>2021-04-21T16:28:53Z</time>
      </trkpt>
      <trkpt lat="49.19497" lon="1.32461">
        <ele>66.4</ele>
        <time>2021-04-21T16:29:01Z</time>
      </trkpt>
      <trkpt lat="49.19492" lon="1.32475">
        <ele>66.2</ele>
        <time>2021-04-21T16:29:03Z</time>
      </trkpt>
      <trkpt lat="49.19485" lon="1.32494">
        <ele>65.8</ele>
        <time>2021-04-21T16:29:06Z</time>
      </trkpt>
      <trkpt lat="49.19475" lon="1.32508">
        <ele>65.8</ele>
        <time>2021-04-21T16:29:09Z</time>
      </trkpt>
      <trkpt lat="49.19462" lon="1.32498">
        <ele>65.8</ele>
        <time>2021-04-21T16:29:12Z</time>
      </trkpt>
      <trkpt lat="49.19455" lon="1.32488">
        <ele>65.8</ele>
        <time>2021-04-21T16:29:14Z</time>
      </trkpt>
      <trkpt lat="49.19432" lon="1.32462">
        <ele>66.2</ele>
        <time>2021-04-21T16:29:20Z</time>
      </trkpt>
      <trkpt lat="49.19403" lon="1.32438">
        <ele>66.6</ele>
        <time>2021-04-21T16:29:27Z</time>
      </trkpt>
      <trkpt lat="49.19398" lon="1.32438">
        <ele>66.6</ele>
        <time>2021-04-21T16:29:28Z</time>
      </trkpt>
      <trkpt lat="49.19392" lon="1.32448">
        <ele>66.8</ele>
        <time>2021-04-21T16:29:30Z</time>
      </trkpt>
      <trkpt lat="49.1939" lon="1.32454">
        <ele>67</ele>
        <time>2021-04-21T16:29:31Z</time>
      </trkpt>
      <trkpt lat="49.19388" lon="1.32461">
        <ele>67</ele>
        <time>2021-04-21T16:29:32Z</time>
      </trkpt>
      <trkpt lat="49.19378" lon="1.32493">
        <ele>68</ele>
        <time>2021-04-21T16:29:37Z</time>
      </trkpt>
      <trkpt lat="49.19368" lon="1.32525">
        <ele>68.8</ele>
        <time>2021-04-21T16:29:42Z</time>
      </trkpt>
      <trkpt lat="49.19364" lon="1.32538">
        <ele>69</ele>
        <time>2021-04-21T16:29:44Z</time>
      </trkpt>
      <trkpt lat="49.1935" lon="1.32582">
        <ele>70</ele>
        <time>2021-04-21T16:29:51Z</time>
      </trkpt>
      <trkpt lat="49.19347" lon="1.32589">
        <ele>70</ele>
        <time>2021-04-21T16:29:52Z</time>
      </trkpt>
      <trkpt lat="49.19333" lon="1.32636">
        <ele>70.6</ele>
        <time>2021-04-21T16:30:00Z</time>
      </trkpt>
      <trkpt lat="49.19322" lon="1.3265">
        <ele>71.2</ele>
        <time>2021-04-21T16:30:04Z</time>
      </trkpt>
      <trkpt lat="49.19307" lon="1.32643">
        <ele>71.8</ele>
        <time>2021-04-21T16:30:08Z</time>
      </trkpt>
      <trkpt lat="49.19296" lon="1.32638">
        <ele>72.2</ele>
        <time>2021-04-21T16:30:11Z</time>
      </trkpt>
      <trkpt lat="49.19279" lon="1.32629">
        <ele>73.2</ele>
        <time>2021-04-21T16:30:16Z</time>
      </trkpt>
      <trkpt lat="49.19275" lon="1.32628">
        <ele>73.4</ele>
        <time>2021-04-21T16:30:17Z</time>
      </trkpt>
      <trkpt lat="49.19249" lon="1.32622">
        <ele>74.2</ele>
        <time>2021-04-21T16:30:24Z</time>
      </trkpt>
      <trkpt lat="49.19231" lon="1.32628">
        <ele>74.8</ele>
        <time>2021-04-21T16:30:29Z</time>
      </trkpt>
      <trkpt lat="49.1922" lon="1.32645">
        <ele>75.2</ele>
        <time>2021-04-21T16:30:33Z</time>
      </trkpt>
      <trkpt lat="49.19212" lon="1.32659">
        <ele>76</ele>
        <time>2021-04-21T16:30:36Z</time>
      </trkpt>
      <trkpt lat="49.19206" lon="1.32668">
        <ele>76.4</ele>
        <time>2021-04-21T16:30:38Z</time>
      </trkpt>
      <trkpt lat="49.19195" lon="1.32685">
        <ele>77.6</ele>
        <time>2021-04-21T16:30:42Z</time>
      </trkpt>
      <trkpt lat="49.1919" lon="1.32691">
        <ele>78</ele>
        <time>2021-04-21T16:30:44Z</time>
      </trkpt>
      <trkpt lat="49.19189" lon="1.32694">
        <ele>78.2</ele>
        <time>2021-04-21T16:30:45Z</time>
      </trkpt>
      <trkpt lat="49.1919" lon="1.32698">
        <ele>78.4</ele>
        <time>2021-04-21T16:30:47Z</time>
      </trkpt>
      <trkpt lat="49.1919" lon="1.32698">
        <ele>78.6</ele>
        <time>2021-04-21T16:30:48Z</time>
      </trkpt>
      <trkpt lat="49.1919" lon="1.32699">
        <ele>80</ele>
        <time>2021-04-21T16:31:03Z</time>
      </trkpt>
      <trkpt lat="49.1919" lon="1.32705">
        <ele>80.2</ele>
        <time>2021-04-21T16:31:05Z</time>
      </trkpt>
      <trkpt lat="49.19188" lon="1.32736">
        <ele>80.2</ele>
        <time>2021-04-21T16:31:12Z</time>
      </trkpt>
      <trkpt lat="49.19184" lon="1.32789">
        <ele>80.6</ele>
        <time>2021-04-21T16:31:23Z</time>
      </trkpt>
      <trkpt lat="49.19182" lon="1.32809">
        <ele>81.2</ele>
        <time>2021-04-21T16:31:27Z</time>
      </trkpt>
      <trkpt lat="49.19179" lon="1.32833">
        <ele>81.8</ele>
        <time>2021-04-21T16:31:32Z</time>
      </trkpt>
      <trkpt lat="49.19175" lon="1.32858">
        <ele>82.2</ele>
        <time>2021-04-21T16:31:37Z</time>
      </trkpt>
      <trkpt lat="49.19174" lon="1.32873">
        <ele>82.8</ele>
        <time>2021-04-21T16:31:40Z</time>
      </trkpt>
      <trkpt lat="49.19175" lon="1.32881">
        <ele>82.8</ele>
        <time>2021-04-21T16:31:42Z</time>
      </trkpt>
      <trkpt lat="49.19177" lon="1.32883">
        <ele>82.8</ele>
        <time>2021-04-21T16:31:43Z</time>
      </trkpt>
      <trkpt lat="49.1919" lon="1.32888">
        <ele>82.8</ele>
        <time>2021-04-21T16:31:47Z</time>
      </trkpt>
      <trkpt lat="49.1921" lon="1.32894">
        <ele>82.8</ele>
        <time>2021-04-21T16:31:52Z</time>
      </trkpt>
      <trkpt lat="49.1922" lon="1.32896">
        <ele>82.8</ele>
        <time>2021-04-21T16:31:54Z</time>
      </trkpt>
      <trkpt lat="49.1923" lon="1.329">
        <ele>82.8</ele>
        <time>2021-04-21T16:31:56Z</time>
      </trkpt>
      <trkpt lat="49.19235" lon="1.32902">
        <ele>82.6</ele>
        <time>2021-04-21T16:31:57Z</time>
      </trkpt>
      <trkpt lat="49.19245" lon="1.32907">
        <ele>82.2</ele>
        <time>2021-04-21T16:31:59Z</time>
      </trkpt>
      <trkpt lat="49.19249" lon="1.32915">
        <ele>81.2</ele>
        <time>2021-04-21T16:32:01Z</time>
      </trkpt>
      <trkpt lat="49.19247" lon="1.32931">
        <ele>80</ele>
        <time>2021-04-21T16:32:04Z</time>
      </trkpt>
      <trkpt lat="49.19245" lon="1.32936">
        <ele>79.6</ele>
        <time>2021-04-21T16:32:05Z</time>
      </trkpt>
      <trkpt lat="49.19245" lon="1.32941">
        <ele>79</ele>
        <time>2021-04-21T16:32:06Z</time>
      </trkpt>
      <trkpt lat="49.19247" lon="1.32958">
        <ele>78</ele>
        <time>2021-04-21T16:32:09Z</time>
      </trkpt>
      <trkpt lat="49.19251" lon="1.32967">
        <ele>77.8</ele>
        <time>2021-04-21T16:32:11Z</time>
      </trkpt>
      <trkpt lat="49.19258" lon="1.32976">
        <ele>77.6</ele>
        <time>2021-04-21T16:32:13Z</time>
      </trkpt>
      <trkpt lat="49.19274" lon="1.3299">
        <ele>77.6</ele>
        <time>2021-04-21T16:32:17Z</time>
      </trkpt>
      <trkpt lat="49.19279" lon="1.32992">
        <ele>77.6</ele>
        <time>2021-04-21T16:32:18Z</time>
      </trkpt>
      <trkpt lat="49.1931" lon="1.33001">
        <ele>77</ele>
        <time>2021-04-21T16:32:24Z</time>
      </trkpt>
      <trkpt lat="49.19316" lon="1.33002">
        <ele>77</ele>
        <time>2021-04-21T16:32:25Z</time>
      </trkpt>
      <trkpt lat="49.19341" lon="1.33007">
        <ele>75.6</ele>
        <time>2021-04-21T16:32:29Z</time>
      </trkpt>
      <trkpt lat="49.19348" lon="1.33009">
        <ele>75.4</ele>
        <time>2021-04-21T16:32:30Z</time>
      </trkpt>
      <trkpt lat="49.19372" lon="1.33018">
        <ele>74.4</ele>
        <time>2021-04-21T16:32:34Z</time>
      </trkpt>
      <trkpt lat="49.19384" lon="1.33024">
        <ele>73.8</ele>
        <time>2021-04-21T16:32:36Z</time>
      </trkpt>
      <trkpt lat="49.19388" lon="1.33029">
        <ele>73.4</ele>
        <time>2021-04-21T16:32:37Z</time>
      </trkpt>
      <trkpt lat="49.19391" lon="1.33041">
        <ele>72.8</ele>
        <time>2021-04-21T16:32:39Z</time>
      </trkpt>
      <trkpt lat="49.19394" lon="1.33048">
        <ele>72.4</ele>
        <time>2021-04-21T16:32:40Z</time>
      </trkpt>
      <trkpt lat="49.19395" lon="1.33053">
        <ele>72</ele>
        <time>2021-04-21T16:32:41Z</time>
      </trkpt>
      <trkpt lat="49.19395" lon="1.33058">
        <ele>71.6</ele>
        <time>2021-04-21T16:32:42Z</time>
      </trkpt>
      <trkpt lat="49.19391" lon="1.33067">
        <ele>71</ele>
        <time>2021-04-21T16:32:44Z</time>
      </trkpt>
      <trkpt lat="49.19387" lon="1.33079">
        <ele>70.8</ele>
        <time>2021-04-21T16:32:46Z</time>
      </trkpt>
      <trkpt lat="49.19385" lon="1.33085">
        <ele>70.8</ele>
        <time>2021-04-21T16:32:47Z</time>
      </trkpt>
      <trkpt lat="49.19364" lon="1.33142">
        <ele>70.6</ele>
        <time>2021-04-21T16:32:56Z</time>
      </trkpt>
      <trkpt lat="49.19363" lon="1.33149">
        <ele>70.6</ele>
        <time>2021-04-21T16:32:57Z</time>
      </trkpt>
      <trkpt lat="49.1936" lon="1.33171">
        <ele>70.6</ele>
        <time>2021-04-21T16:33:00Z</time>
      </trkpt>
      <trkpt lat="49.19358" lon="1.33194">
        <ele>70.6</ele>
        <time>2021-04-21T16:33:03Z</time>
      </trkpt>
      <trkpt lat="49.19363" lon="1.33205">
        <ele>70.6</ele>
        <time>2021-04-21T16:33:05Z</time>
      </trkpt>
      <trkpt lat="49.19377" lon="1.33211">
        <ele>70.6</ele>
        <time>2021-04-21T16:33:08Z</time>
      </trkpt>
      <trkpt lat="49.19383" lon="1.33215">
        <ele>70.4</ele>
        <time>2021-04-21T16:33:10Z</time>
      </trkpt>
      <trkpt lat="49.19382" lon="1.33218">
        <ele>70.4</ele>
        <time>2021-04-21T16:33:11Z</time>
      </trkpt>
      <trkpt lat="49.19373" lon="1.33226">
        <ele>70</ele>
        <time>2021-04-21T16:33:15Z</time>
      </trkpt>
      <trkpt lat="49.19358" lon="1.33227">
        <ele>69.6</ele>
        <time>2021-04-21T16:33:18Z</time>
      </trkpt>
      <trkpt lat="49.19344" lon="1.33227">
        <ele>69.4</ele>
        <time>2021-04-21T16:33:20Z</time>
      </trkpt>
      <trkpt lat="49.19326" lon="1.33231">
        <ele>69.2</ele>
        <time>2021-04-21T16:33:22Z</time>
      </trkpt>
      <trkpt lat="49.19304" lon="1.33235">
        <ele>68.8</ele>
        <time>2021-04-21T16:33:24Z</time>
      </trkpt>
      <trkpt lat="49.19281" lon="1.33237">
        <ele>68.4</ele>
        <time>2021-04-21T16:33:26Z</time>
      </trkpt>
      <trkpt lat="49.19269" lon="1.33238">
        <ele>67.2</ele>
        <time>2021-04-21T16:33:27Z</time>
      </trkpt>
      <trkpt lat="49.19247" lon="1.3324">
        <ele>65.2</ele>
        <time>2021-04-21T16:33:29Z</time>
      </trkpt>
      <trkpt lat="49.19235" lon="1.3324">
        <ele>63.6</ele>
        <time>2021-04-21T16:33:30Z</time>
      </trkpt>
      <trkpt lat="49.19223" lon="1.33241">
        <ele>61.8</ele>
        <time>2021-04-21T16:33:31Z</time>
      </trkpt>
      <trkpt lat="49.1921" lon="1.33243">
        <ele>59.8</ele>
        <time>2021-04-21T16:33:32Z</time>
      </trkpt>
      <trkpt lat="49.19198" lon="1.33246">
        <ele>57.6</ele>
        <time>2021-04-21T16:33:33Z</time>
      </trkpt>
      <trkpt lat="49.19187" lon="1.33249">
        <ele>55.6</ele>
        <time>2021-04-21T16:33:34Z</time>
      </trkpt>
      <trkpt lat="49.19176" lon="1.33251">
        <ele>53.4</ele>
        <time>2021-04-21T16:33:35Z</time>
      </trkpt>
      <trkpt lat="49.19167" lon="1.33252">
        <ele>51.2</ele>
        <time>2021-04-21T16:33:36Z</time>
      </trkpt>
      <trkpt lat="49.19158" lon="1.33254">
        <ele>49</ele>
        <time>2021-04-21T16:33:37Z</time>
      </trkpt>
      <trkpt lat="49.19148" lon="1.33255">
        <ele>47</ele>
        <time>2021-04-21T16:33:38Z</time>
      </trkpt>
      <trkpt lat="49.19138" lon="1.33257">
        <ele>45</ele>
        <time>2021-04-21T16:33:39Z</time>
      </trkpt>
      <trkpt lat="49.19129" lon="1.3326">
        <ele>42.8</ele>
        <time>2021-04-21T16:33:40Z</time>
      </trkpt>
      <trkpt lat="49.19122" lon="1.33262">
        <ele>40.6</ele>
        <time>2021-04-21T16:33:41Z</time>
      </trkpt>
      <trkpt lat="49.19116" lon="1.33263">
        <ele>38.4</ele>
        <time>2021-04-21T16:33:42Z</time>
      </trkpt>
      <trkpt lat="49.19113" lon="1.33263">
        <ele>36.4</ele>
        <time>2021-04-21T16:33:43Z</time>
      </trkpt>
      <trkpt lat="49.19111" lon="1.33265">
        <ele>34.8</ele>
        <time>2021-04-21T16:33:44Z</time>
      </trkpt>
      <trkpt lat="49.19109" lon="1.33267">
        <ele>33.4</ele>
        <time>2021-04-21T16:33:45Z</time>
      </trkpt>
      <trkpt lat="49.19108" lon="1.33267">
        <ele>31.8</ele>
        <time>2021-04-21T16:33:46Z</time>
      </trkpt>
      <trkpt lat="49.19106" lon="1.33267">
        <ele>30.4</ele>
        <time>2021-04-21T16:33:47Z</time>
      </trkpt>
      <trkpt lat="49.19104" lon="1.33268">
        <ele>29</ele>
        <time>2021-04-21T16:33:48Z</time>
      </trkpt>
      <trkpt lat="49.19102" lon="1.33268">
        <ele>27.6</ele>
        <time>2021-04-21T16:33:49Z</time>
      </trkpt>
      <trkpt lat="49.191" lon="1.33268">
        <ele>26.4</ele>
        <time>2021-04-21T16:33:50Z</time>
      </trkpt>
      <trkpt lat="49.191" lon="1.33269">
        <ele>24.8</ele>
        <time>2021-04-21T16:33:52Z</time>
      </trkpt>
      <trkpt lat="49.19099" lon="1.33268">
        <ele>21.6</ele>
        <time>2021-04-21T16:34:11Z</time>
      </trkpt>
      <trkpt lat="49.19096" lon="1.33269">
        <ele>21.6</ele>
        <time>2021-04-21T16:34:13Z</time>
      </trkpt>
      <trkpt lat="49.19081" lon="1.33272">
        <ele>21.4</ele>
        <time>2021-04-21T16:34:17Z</time>
      </trkpt>
      <trkpt lat="49.19065" lon="1.33274">
        <ele>21.4</ele>
        <time>2021-04-21T16:34:20Z</time>
      </trkpt>
      <trkpt lat="49.19052" lon="1.33277">
        <ele>21.4</ele>
        <time>2021-04-21T16:34:22Z</time>
      </trkpt>
      <trkpt lat="49.19038" lon="1.33278">
        <ele>20.4</ele>
        <time>2021-04-21T16:34:24Z</time>
      </trkpt>
      <trkpt lat="49.19031" lon="1.33279">
        <ele>20.2</ele>
        <time>2021-04-21T16:34:25Z</time>
      </trkpt>
      <trkpt lat="49.19015" lon="1.33281">
        <ele>19.6</ele>
        <time>2021-04-21T16:34:27Z</time>
      </trkpt>
      <trkpt lat="49.19" lon="1.3329">
        <ele>19</ele>
        <time>2021-04-21T16:34:29Z</time>
      </trkpt>
      <trkpt lat="49.18992" lon="1.33293">
        <ele>18.4</ele>
        <time>2021-04-21T16:34:30Z</time>
      </trkpt>
      <trkpt lat="49.18986" lon="1.33297">
        <ele>18</ele>
        <time>2021-04-21T16:34:31Z</time>
      </trkpt>
      <trkpt lat="49.1898" lon="1.33302">
        <ele>17.6</ele>
        <time>2021-04-21T16:34:32Z</time>
      </trkpt>
      <trkpt lat="49.18972" lon="1.33316">
        <ele>16.6</ele>
        <time>2021-04-21T16:34:34Z</time>
      </trkpt>
      <trkpt lat="49.18969" lon="1.33325">
        <ele>16</ele>
        <time>2021-04-21T16:34:35Z</time>
      </trkpt>
      <trkpt lat="49.18959" lon="1.33352">
        <ele>14.6</ele>
        <time>2021-04-21T16:34:38Z</time>
      </trkpt>
      <trkpt lat="49.1895" lon="1.33379">
        <ele>13.2</ele>
        <time>2021-04-21T16:34:41Z</time>
      </trkpt>
      <trkpt lat="49.18945" lon="1.33396">
        <ele>12.4</ele>
        <time>2021-04-21T16:34:43Z</time>
      </trkpt>
      <trkpt lat="49.18942" lon="1.33405">
        <ele>12</ele>
        <time>2021-04-21T16:34:44Z</time>
      </trkpt>
      <trkpt lat="49.18939" lon="1.33413">
        <ele>11.8</ele>
        <time>2021-04-21T16:34:45Z</time>
      </trkpt>
      <trkpt lat="49.1893" lon="1.33425">
        <ele>11</ele>
        <time>2021-04-21T16:34:47Z</time>
      </trkpt>
      <trkpt lat="49.18914" lon="1.33428">
        <ele>10</ele>
        <time>2021-04-21T16:34:50Z</time>
      </trkpt>
      <trkpt lat="49.18902" lon="1.33427">
        <ele>9.6</ele>
        <time>2021-04-21T16:34:52Z</time>
      </trkpt>
      <trkpt lat="49.18886" lon="1.33425">
        <ele>9.2</ele>
        <time>2021-04-21T16:34:55Z</time>
      </trkpt>
      <trkpt lat="49.18869" lon="1.33414">
        <ele>9</ele>
        <time>2021-04-21T16:34:59Z</time>
      </trkpt>
      <trkpt lat="49.18855" lon="1.33419">
        <ele>9</ele>
        <time>2021-04-21T16:35:02Z</time>
      </trkpt>
      <trkpt lat="49.18834" lon="1.33436">
        <ele>9.2</ele>
        <time>2021-04-21T16:35:06Z</time>
      </trkpt>
      <trkpt lat="49.18813" lon="1.33451">
        <ele>9.2</ele>
        <time>2021-04-21T16:35:10Z</time>
      </trkpt>
      <trkpt lat="49.18808" lon="1.33454">
        <ele>9.2</ele>
        <time>2021-04-21T16:35:11Z</time>
      </trkpt>
      <trkpt lat="49.18804" lon="1.33457">
        <ele>9.2</ele>
        <time>2021-04-21T16:35:12Z</time>
      </trkpt>
      <trkpt lat="49.18784" lon="1.33469">
        <ele>9.2</ele>
        <time>2021-04-21T16:35:16Z</time>
      </trkpt>
      <trkpt lat="49.18755" lon="1.33485">
        <ele>9.2</ele>
        <time>2021-04-21T16:35:22Z</time>
      </trkpt>
      <trkpt lat="49.18719" lon="1.33511">
        <ele>9.4</ele>
        <time>2021-04-21T16:35:29Z</time>
      </trkpt>
      <trkpt lat="49.18681" lon="1.33544">
        <ele>9.4</ele>
        <time>2021-04-21T16:35:37Z</time>
      </trkpt>
      <trkpt lat="49.18667" lon="1.33556">
        <ele>9.4</ele>
        <time>2021-04-21T16:35:40Z</time>
      </trkpt>
      <trkpt lat="49.18659" lon="1.33564">
        <ele>9.4</ele>
        <time>2021-04-21T16:35:42Z</time>
      </trkpt>
      <trkpt lat="49.18635" lon="1.3359">
        <ele>9.4</ele>
        <time>2021-04-21T16:35:48Z</time>
      </trkpt>
      <trkpt lat="49.1861" lon="1.33619">
        <ele>9.4</ele>
        <time>2021-04-21T16:35:54Z</time>
      </trkpt>
      <trkpt lat="49.18589" lon="1.33645">
        <ele>9.4</ele>
        <time>2021-04-21T16:36:00Z</time>
      </trkpt>
      <trkpt lat="49.18564" lon="1.33674">
        <ele>9.6</ele>
        <time>2021-04-21T16:36:06Z</time>
      </trkpt>
      <trkpt lat="49.1856" lon="1.33679">
        <ele>9.6</ele>
        <time>2021-04-21T16:36:07Z</time>
      </trkpt>
      <trkpt lat="49.18543" lon="1.33699">
        <ele>9.8</ele>
        <time>2021-04-21T16:36:11Z</time>
      </trkpt>
      <trkpt lat="49.18521" lon="1.33726">
        <ele>10</ele>
        <time>2021-04-21T16:36:16Z</time>
      </trkpt>
      <trkpt lat="49.18493" lon="1.33762">
        <ele>9.8</ele>
        <time>2021-04-21T16:36:22Z</time>
      </trkpt>
      <trkpt lat="49.18479" lon="1.33782">
        <ele>9.6</ele>
        <time>2021-04-21T16:36:25Z</time>
      </trkpt>
      <trkpt lat="49.18465" lon="1.338">
        <ele>9.4</ele>
        <time>2021-04-21T16:36:28Z</time>
      </trkpt>
      <trkpt lat="49.18433" lon="1.33847">
        <ele>9.2</ele>
        <time>2021-04-21T16:36:35Z</time>
      </trkpt>
      <trkpt lat="49.18425" lon="1.3386">
        <ele>9.2</ele>
        <time>2021-04-21T16:36:37Z</time>
      </trkpt>
      <trkpt lat="49.1841" lon="1.33885">
        <ele>9.2</ele>
        <time>2021-04-21T16:36:41Z</time>
      </trkpt>
      <trkpt lat="49.18394" lon="1.33911">
        <ele>9</ele>
        <time>2021-04-21T16:36:45Z</time>
      </trkpt>
      <trkpt lat="49.18386" lon="1.3393">
        <ele>9</ele>
        <time>2021-04-21T16:36:48Z</time>
      </trkpt>
      <trkpt lat="49.18374" lon="1.33939">
        <ele>9.2</ele>
        <time>2021-04-21T16:36:51Z</time>
      </trkpt>
      <trkpt lat="49.18373" lon="1.33947">
        <ele>9.2</ele>
        <time>2021-04-21T16:36:54Z</time>
      </trkpt>
      <trkpt lat="49.18368" lon="1.3396">
        <ele>9.2</ele>
        <time>2021-04-21T16:36:57Z</time>
      </trkpt>
      <trkpt lat="49.18356" lon="1.33984">
        <ele>9.8</ele>
        <time>2021-04-21T16:37:01Z</time>
      </trkpt>
      <trkpt lat="49.18353" lon="1.33991">
        <ele>9.8</ele>
        <time>2021-04-21T16:37:02Z</time>
      </trkpt>
      <trkpt lat="49.18327" lon="1.34042">
        <ele>10</ele>
        <time>2021-04-21T16:37:09Z</time>
      </trkpt>
      <trkpt lat="49.18292" lon="1.3411">
        <ele>9.2</ele>
        <time>2021-04-21T16:37:18Z</time>
      </trkpt>
      <trkpt lat="49.18261" lon="1.34173">
        <ele>9.2</ele>
        <time>2021-04-21T16:37:26Z</time>
      </trkpt>
      <trkpt lat="49.18227" lon="1.34244">
        <ele>9.2</ele>
        <time>2021-04-21T16:37:35Z</time>
      </trkpt>
      <trkpt lat="49.18193" lon="1.34316">
        <ele>9.4</ele>
        <time>2021-04-21T16:37:44Z</time>
      </trkpt>
      <trkpt lat="49.18186" lon="1.34333">
        <ele>9.4</ele>
        <time>2021-04-21T16:37:46Z</time>
      </trkpt>
      <trkpt lat="49.18152" lon="1.34406">
        <ele>9.4</ele>
        <time>2021-04-21T16:37:55Z</time>
      </trkpt>
      <trkpt lat="49.18119" lon="1.34481">
        <ele>9.2</ele>
        <time>2021-04-21T16:38:04Z</time>
      </trkpt>
      <trkpt lat="49.18093" lon="1.34538">
        <ele>9.2</ele>
        <time>2021-04-21T16:38:11Z</time>
      </trkpt>
      <trkpt lat="49.18073" lon="1.34587">
        <ele>9</ele>
        <time>2021-04-21T16:38:17Z</time>
      </trkpt>
      <trkpt lat="49.18047" lon="1.34654">
        <ele>9</ele>
        <time>2021-04-21T16:38:25Z</time>
      </trkpt>
      <trkpt lat="49.18037" lon="1.34679">
        <ele>9</ele>
        <time>2021-04-21T16:38:28Z</time>
      </trkpt>
      <trkpt lat="49.1803" lon="1.34695">
        <ele>9</ele>
        <time>2021-04-21T16:38:30Z</time>
      </trkpt>
      <trkpt lat="49.18013" lon="1.34748">
        <ele>9</ele>
        <time>2021-04-21T16:38:36Z</time>
      </trkpt>
      <trkpt lat="49.17998" lon="1.34794">
        <ele>8.8</ele>
        <time>2021-04-21T16:38:41Z</time>
      </trkpt>
      <trkpt lat="49.17995" lon="1.34804">
        <ele>8.8</ele>
        <time>2021-04-21T16:38:42Z</time>
      </trkpt>
      <trkpt lat="49.17977" lon="1.34859">
        <ele>8.8</ele>
        <time>2021-04-21T16:38:48Z</time>
      </trkpt>
      <trkpt lat="49.17953" lon="1.34933">
        <ele>8.8</ele>
        <time>2021-04-21T16:38:56Z</time>
      </trkpt>
      <trkpt lat="49.17949" lon="1.34953">
        <ele>8.8</ele>
        <time>2021-04-21T16:38:58Z</time>
      </trkpt>
      <trkpt lat="49.17937" lon="1.3499">
        <ele>8.8</ele>
        <time>2021-04-21T16:39:02Z</time>
      </trkpt>
      <trkpt lat="49.1791" lon="1.35062">
        <ele>8.6</ele>
        <time>2021-04-21T16:39:10Z</time>
      </trkpt>
      <trkpt lat="49.17897" lon="1.35107">
        <ele>8</ele>
        <time>2021-04-21T16:39:15Z</time>
      </trkpt>
      <trkpt lat="49.17894" lon="1.35115">
        <ele>8</ele>
        <time>2021-04-21T16:39:16Z</time>
      </trkpt>
      <trkpt lat="49.17881" lon="1.3515">
        <ele>8</ele>
        <time>2021-04-21T16:39:20Z</time>
      </trkpt>
      <trkpt lat="49.17866" lon="1.35205">
        <ele>8.6</ele>
        <time>2021-04-21T16:39:26Z</time>
      </trkpt>
      <trkpt lat="49.17843" lon="1.35286">
        <ele>8.6</ele>
        <time>2021-04-21T16:39:35Z</time>
      </trkpt>
      <trkpt lat="49.17828" lon="1.35331">
        <ele>8.2</ele>
        <time>2021-04-21T16:39:41Z</time>
      </trkpt>
      <trkpt lat="49.17816" lon="1.35366">
        <ele>7.8</ele>
        <time>2021-04-21T16:39:45Z</time>
      </trkpt>
      <trkpt lat="49.17811" lon="1.35383">
        <ele>7.6</ele>
        <time>2021-04-21T16:39:47Z</time>
      </trkpt>
      <trkpt lat="49.17804" lon="1.35406">
        <ele>7.6</ele>
        <time>2021-04-21T16:39:50Z</time>
      </trkpt>
      <trkpt lat="49.17799" lon="1.3542">
        <ele>7.6</ele>
        <time>2021-04-21T16:39:52Z</time>
      </trkpt>
      <trkpt lat="49.17781" lon="1.35473">
        <ele>7.8</ele>
        <time>2021-04-21T16:39:59Z</time>
      </trkpt>
      <trkpt lat="49.17766" lon="1.35523">
        <ele>9</ele>
        <time>2021-04-21T16:40:05Z</time>
      </trkpt>
      <trkpt lat="49.1776" lon="1.35539">
        <ele>9</ele>
        <time>2021-04-21T16:40:07Z</time>
      </trkpt>
      <trkpt lat="49.17739" lon="1.35601">
        <ele>9.2</ele>
        <time>2021-04-21T16:40:15Z</time>
      </trkpt>
      <trkpt lat="49.17716" lon="1.35666">
        <ele>9</ele>
        <time>2021-04-21T16:40:23Z</time>
      </trkpt>
      <trkpt lat="49.17692" lon="1.35736">
        <ele>9</ele>
        <time>2021-04-21T16:40:32Z</time>
      </trkpt>
      <trkpt lat="49.17678" lon="1.35774">
        <ele>9.2</ele>
        <time>2021-04-21T16:40:37Z</time>
      </trkpt>
      <trkpt lat="49.17676" lon="1.35782">
        <ele>9.2</ele>
        <time>2021-04-21T16:40:38Z</time>
      </trkpt>
      <trkpt lat="49.17656" lon="1.35839">
        <ele>9.2</ele>
        <time>2021-04-21T16:40:45Z</time>
      </trkpt>
      <trkpt lat="49.17634" lon="1.35917">
        <ele>9.4</ele>
        <time>2021-04-21T16:40:54Z</time>
      </trkpt>
      <trkpt lat="49.17612" lon="1.35995">
        <ele>9.4</ele>
        <time>2021-04-21T16:41:03Z</time>
      </trkpt>
      <trkpt lat="49.1761" lon="1.36021">
        <ele>9.4</ele>
        <time>2021-04-21T16:41:06Z</time>
      </trkpt>
      <trkpt lat="49.17606" lon="1.36037">
        <ele>9.6</ele>
        <time>2021-04-21T16:41:08Z</time>
      </trkpt>
      <trkpt lat="49.17591" lon="1.3609">
        <ele>9.6</ele>
        <time>2021-04-21T16:41:15Z</time>
      </trkpt>
      <trkpt lat="49.17577" lon="1.36144">
        <ele>9.6</ele>
        <time>2021-04-21T16:41:21Z</time>
      </trkpt>
      <trkpt lat="49.17561" lon="1.36208">
        <ele>9.4</ele>
        <time>2021-04-21T16:41:28Z</time>
      </trkpt>
      <trkpt lat="49.17548" lon="1.36274">
        <ele>9</ele>
        <time>2021-04-21T16:41:35Z</time>
      </trkpt>
      <trkpt lat="49.17534" lon="1.36339">
        <ele>8.8</ele>
        <time>2021-04-21T16:41:42Z</time>
      </trkpt>
      <trkpt lat="49.17525" lon="1.36391">
        <ele>9</ele>
        <time>2021-04-21T16:41:48Z</time>
      </trkpt>
      <trkpt lat="49.17517" lon="1.36438">
        <ele>9</ele>
        <time>2021-04-21T16:41:53Z</time>
      </trkpt>
      <trkpt lat="49.17515" lon="1.36455">
        <ele>9</ele>
        <time>2021-04-21T16:41:55Z</time>
      </trkpt>
      <trkpt lat="49.17511" lon="1.36485">
        <ele>9.2</ele>
        <time>2021-04-21T16:41:58Z</time>
      </trkpt>
      <trkpt lat="49.17499" lon="1.36555">
        <ele>9.4</ele>
        <time>2021-04-21T16:42:05Z</time>
      </trkpt>
      <trkpt lat="49.17491" lon="1.36606">
        <ele>9.4</ele>
        <time>2021-04-21T16:42:11Z</time>
      </trkpt>
      <trkpt lat="49.17487" lon="1.36631">
        <ele>9.6</ele>
        <time>2021-04-21T16:42:14Z</time>
      </trkpt>
      <trkpt lat="49.17485" lon="1.3664">
        <ele>9.6</ele>
        <time>2021-04-21T16:42:15Z</time>
      </trkpt>
      <trkpt lat="49.17483" lon="1.36656">
        <ele>9.8</ele>
        <time>2021-04-21T16:42:17Z</time>
      </trkpt>
      <trkpt lat="49.17481" lon="1.36674">
        <ele>10</ele>
        <time>2021-04-21T16:42:19Z</time>
      </trkpt>
      <trkpt lat="49.1748" lon="1.36683">
        <ele>10</ele>
        <time>2021-04-21T16:42:20Z</time>
      </trkpt>
      <trkpt lat="49.1747" lon="1.36745">
        <ele>10.6</ele>
        <time>2021-04-21T16:42:27Z</time>
      </trkpt>
      <trkpt lat="49.17461" lon="1.36803">
        <ele>10.6</ele>
        <time>2021-04-21T16:42:33Z</time>
      </trkpt>
      <trkpt lat="49.17452" lon="1.36866">
        <ele>10.4</ele>
        <time>2021-04-21T16:42:39Z</time>
      </trkpt>
      <trkpt lat="49.17444" lon="1.3694">
        <ele>10</ele>
        <time>2021-04-21T16:42:46Z</time>
      </trkpt>
      <trkpt lat="49.17441" lon="1.3695">
        <ele>10</ele>
        <time>2021-04-21T16:42:47Z</time>
      </trkpt>
      <trkpt lat="49.1743" lon="1.36995">
        <ele>9.6</ele>
        <time>2021-04-21T16:42:52Z</time>
      </trkpt>
      <trkpt lat="49.17416" lon="1.37051">
        <ele>9.6</ele>
        <time>2021-04-21T16:42:58Z</time>
      </trkpt>
      <trkpt lat="49.17399" lon="1.37106">
        <ele>9.8</ele>
        <time>2021-04-21T16:43:04Z</time>
      </trkpt>
      <trkpt lat="49.1739" lon="1.37132">
        <ele>9.8</ele>
        <time>2021-04-21T16:43:07Z</time>
      </trkpt>
      <trkpt lat="49.17382" lon="1.37157">
        <ele>9.8</ele>
        <time>2021-04-21T16:43:10Z</time>
      </trkpt>
      <trkpt lat="49.17372" lon="1.37183">
        <ele>9.8</ele>
        <time>2021-04-21T16:43:13Z</time>
      </trkpt>
      <trkpt lat="49.17364" lon="1.37198">
        <ele>9.8</ele>
        <time>2021-04-21T16:43:15Z</time>
      </trkpt>
      <trkpt lat="49.17344" lon="1.37241">
        <ele>9.8</ele>
        <time>2021-04-21T16:43:21Z</time>
      </trkpt>
      <trkpt lat="49.17327" lon="1.37277">
        <ele>9.8</ele>
        <time>2021-04-21T16:43:26Z</time>
      </trkpt>
      <trkpt lat="49.17321" lon="1.37288">
        <ele>9.8</ele>
        <time>2021-04-21T16:43:28Z</time>
      </trkpt>
      <trkpt lat="49.17315" lon="1.37299">
        <ele>9.4</ele>
        <time>2021-04-21T16:43:30Z</time>
      </trkpt>
      <trkpt lat="49.17296" lon="1.37333">
        <ele>9.2</ele>
        <time>2021-04-21T16:43:35Z</time>
      </trkpt>
      <trkpt lat="49.17275" lon="1.37373">
        <ele>9.2</ele>
        <time>2021-04-21T16:43:40Z</time>
      </trkpt>
      <trkpt lat="49.17254" lon="1.3741">
        <ele>9.4</ele>
        <time>2021-04-21T16:43:45Z</time>
      </trkpt>
      <trkpt lat="49.17229" lon="1.37456">
        <ele>10</ele>
        <time>2021-04-21T16:43:51Z</time>
      </trkpt>
      <trkpt lat="49.17201" lon="1.37509">
        <ele>10.2</ele>
        <time>2021-04-21T16:43:58Z</time>
      </trkpt>
      <trkpt lat="49.17197" lon="1.37517">
        <ele>10.2</ele>
        <time>2021-04-21T16:43:59Z</time>
      </trkpt>
      <trkpt lat="49.17186" lon="1.37537">
        <ele>10.4</ele>
        <time>2021-04-21T16:44:02Z</time>
      </trkpt>
      <trkpt lat="49.17175" lon="1.37559">
        <ele>10.4</ele>
        <time>2021-04-21T16:44:05Z</time>
      </trkpt>
      <trkpt lat="49.17159" lon="1.37589">
        <ele>10.4</ele>
        <time>2021-04-21T16:44:09Z</time>
      </trkpt>
      <trkpt lat="49.17155" lon="1.37596">
        <ele>10.4</ele>
        <time>2021-04-21T16:44:10Z</time>
      </trkpt>
      <trkpt lat="49.17128" lon="1.37658">
        <ele>10.6</ele>
        <time>2021-04-21T16:44:18Z</time>
      </trkpt>
      <trkpt lat="49.17111" lon="1.37694">
        <ele>10.6</ele>
        <time>2021-04-21T16:44:23Z</time>
      </trkpt>
      <trkpt lat="49.17103" lon="1.37706">
        <ele>10.6</ele>
        <time>2021-04-21T16:44:25Z</time>
      </trkpt>
      <trkpt lat="49.1708" lon="1.3775">
        <ele>10.6</ele>
        <time>2021-04-21T16:44:32Z</time>
      </trkpt>
      <trkpt lat="49.17058" lon="1.37799">
        <ele>10.6</ele>
        <time>2021-04-21T16:44:40Z</time>
      </trkpt>
      <trkpt lat="49.17055" lon="1.37805">
        <ele>10.6</ele>
        <time>2021-04-21T16:44:41Z</time>
      </trkpt>
      <trkpt lat="49.17037" lon="1.37842">
        <ele>10.6</ele>
        <time>2021-04-21T16:44:47Z</time>
      </trkpt>
      <trkpt lat="49.17011" lon="1.37895">
        <ele>11.2</ele>
        <time>2021-04-21T16:44:55Z</time>
      </trkpt>
      <trkpt lat="49.16987" lon="1.37939">
        <ele>11.2</ele>
        <time>2021-04-21T16:45:02Z</time>
      </trkpt>
      <trkpt lat="49.16983" lon="1.37944">
        <ele>11.2</ele>
        <time>2021-04-21T16:45:03Z</time>
      </trkpt>
      <trkpt lat="49.16964" lon="1.3795">
        <ele>10.6</ele>
        <time>2021-04-21T16:45:07Z</time>
      </trkpt>
      <trkpt lat="49.16959" lon="1.37948">
        <ele>10.6</ele>
        <time>2021-04-21T16:45:08Z</time>
      </trkpt>
      <trkpt lat="49.16917" lon="1.37929">
        <ele>10.6</ele>
        <time>2021-04-21T16:45:16Z</time>
      </trkpt>
      <trkpt lat="49.16865" lon="1.37904">
        <ele>11.2</ele>
        <time>2021-04-21T16:45:26Z</time>
      </trkpt>
      <trkpt lat="49.16859" lon="1.37902">
        <ele>11.2</ele>
        <time>2021-04-21T16:45:27Z</time>
      </trkpt>
      <trkpt lat="49.16822" lon="1.37884">
        <ele>12.4</ele>
        <time>2021-04-21T16:45:34Z</time>
      </trkpt>
      <trkpt lat="49.16811" lon="1.37879">
        <ele>12.4</ele>
        <time>2021-04-21T16:45:36Z</time>
      </trkpt>
      <trkpt lat="49.1676" lon="1.37857">
        <ele>12.8</ele>
        <time>2021-04-21T16:45:45Z</time>
      </trkpt>
      <trkpt lat="49.16709" lon="1.37833">
        <ele>13.2</ele>
        <time>2021-04-21T16:45:54Z</time>
      </trkpt>
      <trkpt lat="49.16692" lon="1.37825">
        <ele>13.4</ele>
        <time>2021-04-21T16:45:57Z</time>
      </trkpt>
      <trkpt lat="49.16658" lon="1.37809">
        <ele>13.4</ele>
        <time>2021-04-21T16:46:03Z</time>
      </trkpt>
      <trkpt lat="49.16647" lon="1.37805">
        <ele>13.4</ele>
        <time>2021-04-21T16:46:05Z</time>
      </trkpt>
      <trkpt lat="49.16632" lon="1.37798">
        <ele>13.4</ele>
        <time>2021-04-21T16:46:08Z</time>
      </trkpt>
      <trkpt lat="49.16593" lon="1.37779">
        <ele>13.8</ele>
        <time>2021-04-21T16:46:16Z</time>
      </trkpt>
      <trkpt lat="49.16588" lon="1.37778">
        <ele>14</ele>
        <time>2021-04-21T16:46:17Z</time>
      </trkpt>
      <trkpt lat="49.16575" lon="1.37785">
        <ele>14</ele>
        <time>2021-04-21T16:46:20Z</time>
      </trkpt>
      <trkpt lat="49.16572" lon="1.37808">
        <ele>14</ele>
        <time>2021-04-21T16:46:23Z</time>
      </trkpt>
      <trkpt lat="49.16572" lon="1.37816">
        <ele>14</ele>
        <time>2021-04-21T16:46:24Z</time>
      </trkpt>
      <trkpt lat="49.16571" lon="1.37865">
        <ele>13.8</ele>
        <time>2021-04-21T16:46:30Z</time>
      </trkpt>
      <trkpt lat="49.16569" lon="1.37935">
        <ele>13.4</ele>
        <time>2021-04-21T16:46:39Z</time>
      </trkpt>
      <trkpt lat="49.16566" lon="1.37992">
        <ele>13.8</ele>
        <time>2021-04-21T16:46:46Z</time>
      </trkpt>
      <trkpt lat="49.16562" lon="1.38059">
        <ele>14.4</ele>
        <time>2021-04-21T16:46:54Z</time>
      </trkpt>
      <trkpt lat="49.16557" lon="1.38145">
        <ele>14.8</ele>
        <time>2021-04-21T16:47:04Z</time>
      </trkpt>
      <trkpt lat="49.16555" lon="1.38153">
        <ele>14.8</ele>
        <time>2021-04-21T16:47:05Z</time>
      </trkpt>
      <trkpt lat="49.16547" lon="1.38186">
        <ele>15</ele>
        <time>2021-04-21T16:47:09Z</time>
      </trkpt>
      <trkpt lat="49.16539" lon="1.3821">
        <ele>15</ele>
        <time>2021-04-21T16:47:12Z</time>
      </trkpt>
      <trkpt lat="49.16529" lon="1.38231">
        <ele>15</ele>
        <time>2021-04-21T16:47:15Z</time>
      </trkpt>
      <trkpt lat="49.16504" lon="1.38283">
        <ele>15</ele>
        <time>2021-04-21T16:47:22Z</time>
      </trkpt>
      <trkpt lat="49.16468" lon="1.38355">
        <ele>15</ele>
        <time>2021-04-21T16:47:32Z</time>
      </trkpt>
      <trkpt lat="49.16438" lon="1.38415">
        <ele>14.8</ele>
        <time>2021-04-21T16:47:40Z</time>
      </trkpt>
      <trkpt lat="49.16406" lon="1.38479">
        <ele>14.6</ele>
        <time>2021-04-21T16:47:49Z</time>
      </trkpt>
      <trkpt lat="49.16373" lon="1.38543">
        <ele>14.4</ele>
        <time>2021-04-21T16:47:58Z</time>
      </trkpt>
      <trkpt lat="49.16369" lon="1.3855">
        <ele>14.4</ele>
        <time>2021-04-21T16:47:59Z</time>
      </trkpt>
      <trkpt lat="49.16361" lon="1.38562">
        <ele>14.4</ele>
        <time>2021-04-21T16:48:01Z</time>
      </trkpt>
      <trkpt lat="49.16352" lon="1.38571">
        <ele>14.4</ele>
        <time>2021-04-21T16:48:03Z</time>
      </trkpt>
      <trkpt lat="49.16336" lon="1.38571">
        <ele>14.6</ele>
        <time>2021-04-21T16:48:06Z</time>
      </trkpt>
      <trkpt lat="49.16327" lon="1.38562">
        <ele>14.6</ele>
        <time>2021-04-21T16:48:08Z</time>
      </trkpt>
      <trkpt lat="49.16317" lon="1.38551">
        <ele>14.8</ele>
        <time>2021-04-21T16:48:10Z</time>
      </trkpt>
      <trkpt lat="49.16285" lon="1.38521">
        <ele>15</ele>
        <time>2021-04-21T16:48:16Z</time>
      </trkpt>
      <trkpt lat="49.16273" lon="1.38512">
        <ele>15</ele>
        <time>2021-04-21T16:48:18Z</time>
      </trkpt>
      <trkpt lat="49.16261" lon="1.38503">
        <ele>15</ele>
        <time>2021-04-21T16:48:20Z</time>
      </trkpt>
      <trkpt lat="49.16255" lon="1.38499">
        <ele>15</ele>
        <time>2021-04-21T16:48:21Z</time>
      </trkpt>
      <trkpt lat="49.16249" lon="1.38495">
        <ele>15</ele>
        <time>2021-04-21T16:48:22Z</time>
      </trkpt>
      <trkpt lat="49.16224" lon="1.38479">
        <ele>14.8</ele>
        <time>2021-04-21T16:48:26Z</time>
      </trkpt>
      <trkpt lat="49.16178" lon="1.38447">
        <ele>13.2</ele>
        <time>2021-04-21T16:48:33Z</time>
      </trkpt>
      <trkpt lat="49.16171" lon="1.38443">
        <ele>13</ele>
        <time>2021-04-21T16:48:34Z</time>
      </trkpt>
      <trkpt lat="49.16149" lon="1.38427">
        <ele>12.2</ele>
        <time>2021-04-21T16:48:38Z</time>
      </trkpt>
      <trkpt lat="49.16144" lon="1.38423">
        <ele>12.2</ele>
        <time>2021-04-21T16:48:39Z</time>
      </trkpt>
      <trkpt lat="49.16115" lon="1.38402">
        <ele>12.2</ele>
        <time>2021-04-21T16:48:45Z</time>
      </trkpt>
      <trkpt lat="49.16083" lon="1.38378">
        <ele>13.4</ele>
        <time>2021-04-21T16:48:52Z</time>
      </trkpt>
      <trkpt lat="49.16058" lon="1.3836">
        <ele>14.6</ele>
        <time>2021-04-21T16:48:57Z</time>
      </trkpt>
      <trkpt lat="49.16043" lon="1.38349">
        <ele>15.4</ele>
        <time>2021-04-21T16:49:00Z</time>
      </trkpt>
      <trkpt lat="49.16005" lon="1.38324">
        <ele>15.6</ele>
        <time>2021-04-21T16:49:07Z</time>
      </trkpt>
      <trkpt lat="49.15955" lon="1.38289">
        <ele>15.6</ele>
        <time>2021-04-21T16:49:16Z</time>
      </trkpt>
      <trkpt lat="49.15902" lon="1.38253">
        <ele>15.2</ele>
        <time>2021-04-21T16:49:25Z</time>
      </trkpt>
      <trkpt lat="49.15866" lon="1.38229">
        <ele>14.6</ele>
        <time>2021-04-21T16:49:31Z</time>
      </trkpt>
      <trkpt lat="49.15836" lon="1.38208">
        <ele>14.6</ele>
        <time>2021-04-21T16:49:36Z</time>
      </trkpt>
      <trkpt lat="49.15802" lon="1.38179">
        <ele>14.4</ele>
        <time>2021-04-21T16:49:42Z</time>
      </trkpt>
      <trkpt lat="49.15797" lon="1.38171">
        <ele>14.4</ele>
        <time>2021-04-21T16:49:43Z</time>
      </trkpt>
      <trkpt lat="49.15792" lon="1.38142">
        <ele>14.6</ele>
        <time>2021-04-21T16:49:46Z</time>
      </trkpt>
      <trkpt lat="49.15791" lon="1.38132">
        <ele>14.6</ele>
        <time>2021-04-21T16:49:47Z</time>
      </trkpt>
      <trkpt lat="49.15784" lon="1.38066">
        <ele>14.6</ele>
        <time>2021-04-21T16:49:53Z</time>
      </trkpt>
      <trkpt lat="49.15775" lon="1.37982">
        <ele>14.6</ele>
        <time>2021-04-21T16:49:59Z</time>
      </trkpt>
      <trkpt lat="49.15769" lon="1.37914">
        <ele>13.2</ele>
        <time>2021-04-21T16:50:04Z</time>
      </trkpt>
      <trkpt lat="49.15767" lon="1.37887">
        <ele>11.8</ele>
        <time>2021-04-21T16:50:06Z</time>
      </trkpt>
      <trkpt lat="49.15765" lon="1.37862">
        <ele>10.6</ele>
        <time>2021-04-21T16:50:08Z</time>
      </trkpt>
      <trkpt lat="49.1576" lon="1.37802">
        <ele>9.6</ele>
        <time>2021-04-21T16:50:13Z</time>
      </trkpt>
      <trkpt lat="49.15754" lon="1.37733">
        <ele>9.4</ele>
        <time>2021-04-21T16:50:19Z</time>
      </trkpt>
      <trkpt lat="49.15745" lon="1.37644">
        <ele>9.4</ele>
        <time>2021-04-21T16:50:27Z</time>
      </trkpt>
      <trkpt lat="49.15738" lon="1.37555">
        <ele>9.8</ele>
        <time>2021-04-21T16:50:35Z</time>
      </trkpt>
      <trkpt lat="49.15736" lon="1.37534">
        <ele>9.8</ele>
        <time>2021-04-21T16:50:37Z</time>
      </trkpt>
      <trkpt lat="49.15729" lon="1.37461">
        <ele>10.4</ele>
        <time>2021-04-21T16:50:44Z</time>
      </trkpt>
      <trkpt lat="49.15728" lon="1.37451">
        <ele>10.6</ele>
        <time>2021-04-21T16:50:45Z</time>
      </trkpt>
      <trkpt lat="49.15723" lon="1.37395">
        <ele>11</ele>
        <time>2021-04-21T16:50:51Z</time>
      </trkpt>
      <trkpt lat="49.15719" lon="1.37354">
        <ele>11.8</ele>
        <time>2021-04-21T16:50:56Z</time>
      </trkpt>
      <trkpt lat="49.15719" lon="1.37347">
        <ele>11.8</ele>
        <time>2021-04-21T16:50:57Z</time>
      </trkpt>
      <trkpt lat="49.15719" lon="1.37339">
        <ele>12</ele>
        <time>2021-04-21T16:50:58Z</time>
      </trkpt>
      <trkpt lat="49.15716" lon="1.37307">
        <ele>13</ele>
        <time>2021-04-21T16:51:02Z</time>
      </trkpt>
      <trkpt lat="49.15715" lon="1.37299">
        <ele>13.2</ele>
        <time>2021-04-21T16:51:03Z</time>
      </trkpt>
      <trkpt lat="49.15713" lon="1.37273">
        <ele>14</ele>
        <time>2021-04-21T16:51:06Z</time>
      </trkpt>
      <trkpt lat="49.1571" lon="1.37248">
        <ele>14.6</ele>
        <time>2021-04-21T16:51:09Z</time>
      </trkpt>
      <trkpt lat="49.15704" lon="1.37196">
        <ele>15</ele>
        <time>2021-04-21T16:51:15Z</time>
      </trkpt>
      <trkpt lat="49.15702" lon="1.37169">
        <ele>15.2</ele>
        <time>2021-04-21T16:51:18Z</time>
      </trkpt>
      <trkpt lat="49.15695" lon="1.37099">
        <ele>15.4</ele>
        <time>2021-04-21T16:51:26Z</time>
      </trkpt>
      <trkpt lat="49.15688" lon="1.3703">
        <ele>15.4</ele>
        <time>2021-04-21T16:51:34Z</time>
      </trkpt>
      <trkpt lat="49.15681" lon="1.36957">
        <ele>15.4</ele>
        <time>2021-04-21T16:51:42Z</time>
      </trkpt>
      <trkpt lat="49.15678" lon="1.36905">
        <ele>15.2</ele>
        <time>2021-04-21T16:51:48Z</time>
      </trkpt>
      <trkpt lat="49.15673" lon="1.36883">
        <ele>15.2</ele>
        <time>2021-04-21T16:51:52Z</time>
      </trkpt>
      <trkpt lat="49.15674" lon="1.36863">
        <ele>15.4</ele>
        <time>2021-04-21T16:51:57Z</time>
      </trkpt>
      <trkpt lat="49.15671" lon="1.36823">
        <ele>15.4</ele>
        <time>2021-04-21T16:52:04Z</time>
      </trkpt>
      <trkpt lat="49.15665" lon="1.36771">
        <ele>15.2</ele>
        <time>2021-04-21T16:52:11Z</time>
      </trkpt>
      <trkpt lat="49.15663" lon="1.36754">
        <ele>15.2</ele>
        <time>2021-04-21T16:52:13Z</time>
      </trkpt>
      <trkpt lat="49.1566" lon="1.36728">
        <ele>15</ele>
        <time>2021-04-21T16:52:16Z</time>
      </trkpt>
      <trkpt lat="49.15654" lon="1.36681">
        <ele>14.6</ele>
        <time>2021-04-21T16:52:21Z</time>
      </trkpt>
      <trkpt lat="49.15647" lon="1.36656">
        <ele>14.2</ele>
        <time>2021-04-21T16:52:24Z</time>
      </trkpt>
      <trkpt lat="49.15644" lon="1.3665">
        <ele>14</ele>
        <time>2021-04-21T16:52:25Z</time>
      </trkpt>
      <trkpt lat="49.15642" lon="1.36645">
        <ele>13.8</ele>
        <time>2021-04-21T16:52:26Z</time>
      </trkpt>
      <trkpt lat="49.15636" lon="1.3663">
        <ele>13.6</ele>
        <time>2021-04-21T16:52:29Z</time>
      </trkpt>
      <trkpt lat="49.15632" lon="1.36626">
        <ele>13.4</ele>
        <time>2021-04-21T16:52:30Z</time>
      </trkpt>
      <trkpt lat="49.15625" lon="1.36613">
        <ele>13.2</ele>
        <time>2021-04-21T16:52:33Z</time>
      </trkpt>
      <trkpt lat="49.15623" lon="1.36608">
        <ele>13.2</ele>
        <time>2021-04-21T16:52:34Z</time>
      </trkpt>
      <trkpt lat="49.15605" lon="1.36578">
        <ele>13.2</ele>
        <time>2021-04-21T16:52:41Z</time>
      </trkpt>
      <trkpt lat="49.15601" lon="1.36564">
        <ele>13.2</ele>
        <time>2021-04-21T16:52:45Z</time>
      </trkpt>
      <trkpt lat="49.156" lon="1.36563">
        <ele>13.2</ele>
        <time>2021-04-21T16:52:46Z</time>
      </trkpt>
      <trkpt lat="49.15594" lon="1.36559">
        <ele>13.4</ele>
        <time>2021-04-21T16:52:50Z</time>
      </trkpt>
      <trkpt lat="49.1559" lon="1.36558">
        <ele>13.6</ele>
        <time>2021-04-21T16:52:52Z</time>
      </trkpt>
      <trkpt lat="49.15585" lon="1.36552">
        <ele>14.2</ele>
        <time>2021-04-21T16:52:55Z</time>
      </trkpt>
      <trkpt lat="49.15573" lon="1.36537">
        <ele>14.4</ele>
        <time>2021-04-21T16:53:01Z</time>
      </trkpt>
      <trkpt lat="49.15555" lon="1.36517">
        <ele>14.8</ele>
        <time>2021-04-21T16:53:08Z</time>
      </trkpt>
      <trkpt lat="49.15547" lon="1.36506">
        <ele>15.2</ele>
        <time>2021-04-21T16:53:11Z</time>
      </trkpt>
      <trkpt lat="49.15536" lon="1.36493">
        <ele>15.8</ele>
        <time>2021-04-21T16:53:15Z</time>
      </trkpt>
      <trkpt lat="49.15517" lon="1.36471">
        <ele>16.2</ele>
        <time>2021-04-21T16:53:22Z</time>
      </trkpt>
      <trkpt lat="49.1549" lon="1.36436">
        <ele>16.2</ele>
        <time>2021-04-21T16:53:30Z</time>
      </trkpt>
      <trkpt lat="49.15463" lon="1.36405">
        <ele>16</ele>
        <time>2021-04-21T16:53:37Z</time>
      </trkpt>
      <trkpt lat="49.15427" lon="1.36372">
        <ele>15.8</ele>
        <time>2021-04-21T16:53:46Z</time>
      </trkpt>
      <trkpt lat="49.15419" lon="1.36365">
        <ele>15.8</ele>
        <time>2021-04-21T16:53:48Z</time>
      </trkpt>
      <trkpt lat="49.15409" lon="1.36356">
        <ele>15.8</ele>
        <time>2021-04-21T16:53:51Z</time>
      </trkpt>
      <trkpt lat="49.15389" lon="1.36347">
        <ele>16</ele>
        <time>2021-04-21T16:53:56Z</time>
      </trkpt>
      <trkpt lat="49.15351" lon="1.36324">
        <ele>16</ele>
        <time>2021-04-21T16:54:04Z</time>
      </trkpt>
      <trkpt lat="49.15308" lon="1.36289">
        <ele>16</ele>
        <time>2021-04-21T16:54:13Z</time>
      </trkpt>
      <trkpt lat="49.15292" lon="1.36275">
        <ele>16.4</ele>
        <time>2021-04-21T16:54:16Z</time>
      </trkpt>
      <trkpt lat="49.15257" lon="1.36244">
        <ele>16.6</ele>
        <time>2021-04-21T16:54:23Z</time>
      </trkpt>
      <trkpt lat="49.15221" lon="1.36218">
        <ele>16.4</ele>
        <time>2021-04-21T16:54:30Z</time>
      </trkpt>
      <trkpt lat="49.15182" lon="1.36194">
        <ele>16.2</ele>
        <time>2021-04-21T16:54:37Z</time>
      </trkpt>
      <trkpt lat="49.1513" lon="1.36161">
        <ele>16</ele>
        <time>2021-04-21T16:54:46Z</time>
      </trkpt>
      <trkpt lat="49.15118" lon="1.36155">
        <ele>16</ele>
        <time>2021-04-21T16:54:48Z</time>
      </trkpt>
      <trkpt lat="49.15063" lon="1.36134">
        <ele>15.8</ele>
        <time>2021-04-21T16:54:57Z</time>
      </trkpt>
      <trkpt lat="49.15008" lon="1.36119">
        <ele>15.8</ele>
        <time>2021-04-21T16:55:06Z</time>
      </trkpt>
      <trkpt lat="49.14997" lon="1.36115">
        <ele>15.8</ele>
        <time>2021-04-21T16:55:08Z</time>
      </trkpt>
      <trkpt lat="49.14945" lon="1.36101">
        <ele>16</ele>
        <time>2021-04-21T16:55:17Z</time>
      </trkpt>
      <trkpt lat="49.14927" lon="1.36095">
        <ele>16</ele>
        <time>2021-04-21T16:55:21Z</time>
      </trkpt>
      <trkpt lat="49.14923" lon="1.36092">
        <ele>16.2</ele>
        <time>2021-04-21T16:55:22Z</time>
      </trkpt>
      <trkpt lat="49.14921" lon="1.36073">
        <ele>16.2</ele>
        <time>2021-04-21T16:55:25Z</time>
      </trkpt>
      <trkpt lat="49.14923" lon="1.36059">
        <ele>16.4</ele>
        <time>2021-04-21T16:55:27Z</time>
      </trkpt>
      <trkpt lat="49.14928" lon="1.36022">
        <ele>16.8</ele>
        <time>2021-04-21T16:55:32Z</time>
      </trkpt>
    </trkseg>
  </trk>
</gpx>